<?xml version="1.0" encoding="UTF-8" standalone="no" ?>
<gpx xmlns="http://www.topografix.com/GPX/1/1" xmlns:xsi="http://www.w3.org/2001/XMLSchema-instance" xsi:schemaLocation="http://www.topografix.com/GPX/1/1 http://www.topografix.com/GPX/1/1/gpx.xsd" version="1.1" creator="VisuGPX - https://www.visugpx.com">
  <metadata>
    <name>Col de Plaa Segouné au départ de Gourette </name>
  </metadata>
  <trk>
    <name><![CDATA[SityTrail - Col de Plaa Segouné au départ de Gourette ]]></name>
    <trkseg>
      <trkpt lat="42.95689" lon="-0.33047">
        <ele>1362</ele>
        <time>2021-03-03T08:37:50.280Z</time>
      </trkpt>
      <trkpt lat="42.95691" lon="-0.33046">
        <ele>1362</ele>
        <time>2021-03-03T08:39:50.524Z</time>
      </trkpt>
      <trkpt lat="42.95692" lon="-0.33046">
        <ele>1362</ele>
        <time>2021-03-03T08:39:55.526Z</time>
      </trkpt>
      <trkpt lat="42.95695" lon="-0.33048">
        <ele>1362</ele>
        <time>2021-03-03T08:39:59.562Z</time>
      </trkpt>
      <trkpt lat="42.95697" lon="-0.33053">
        <ele>1362</ele>
        <time>2021-03-03T08:40:04.530Z</time>
      </trkpt>
      <trkpt lat="42.957" lon="-0.33056">
        <ele>1362</ele>
        <time>2021-03-03T08:40:08.561Z</time>
      </trkpt>
      <trkpt lat="42.95702" lon="-0.3306">
        <ele>1362</ele>
        <time>2021-03-03T08:40:13.529Z</time>
      </trkpt>
      <trkpt lat="42.95702" lon="-0.33066">
        <ele>1362</ele>
        <time>2021-03-03T08:40:18.528Z</time>
      </trkpt>
      <trkpt lat="42.95702" lon="-0.33071">
        <ele>1365</ele>
        <time>2021-03-03T08:40:23.565Z</time>
      </trkpt>
      <trkpt lat="42.95702" lon="-0.33076">
        <ele>1365</ele>
        <time>2021-03-03T08:40:28.536Z</time>
      </trkpt>
      <trkpt lat="42.95702" lon="-0.33082">
        <ele>1365</ele>
        <time>2021-03-03T08:40:33.537Z</time>
      </trkpt>
      <trkpt lat="42.95699" lon="-0.33087">
        <ele>1365</ele>
        <time>2021-03-03T08:40:38.554Z</time>
      </trkpt>
      <trkpt lat="42.95696" lon="-0.33093">
        <ele>1365</ele>
        <time>2021-03-03T08:40:43.526Z</time>
      </trkpt>
      <trkpt lat="42.95693" lon="-0.33099">
        <ele>1366</ele>
        <time>2021-03-03T08:40:48.527Z</time>
      </trkpt>
      <trkpt lat="42.9569" lon="-0.33104">
        <ele>1366</ele>
        <time>2021-03-03T08:40:53.527Z</time>
      </trkpt>
      <trkpt lat="42.95691" lon="-0.33109">
        <ele>1366</ele>
        <time>2021-03-03T08:40:57.523Z</time>
      </trkpt>
      <trkpt lat="42.95689" lon="-0.33114">
        <ele>1366</ele>
        <time>2021-03-03T08:41:02.555Z</time>
      </trkpt>
      <trkpt lat="42.95687" lon="-0.33118">
        <ele>1366</ele>
        <time>2021-03-03T08:41:06.560Z</time>
      </trkpt>
      <trkpt lat="42.95686" lon="-0.33123">
        <ele>1366</ele>
        <time>2021-03-03T08:41:11.565Z</time>
      </trkpt>
      <trkpt lat="42.95684" lon="-0.33126">
        <ele>1364</ele>
        <time>2021-03-03T08:41:15.618Z</time>
      </trkpt>
      <trkpt lat="42.95684" lon="-0.3313">
        <ele>1364</ele>
        <time>2021-03-03T08:41:20.560Z</time>
      </trkpt>
      <trkpt lat="42.95686" lon="-0.33133">
        <ele>1364</ele>
        <time>2021-03-03T08:41:25.594Z</time>
      </trkpt>
      <trkpt lat="42.95687" lon="-0.33138">
        <ele>1364</ele>
        <time>2021-03-03T08:41:30.562Z</time>
      </trkpt>
      <trkpt lat="42.95688" lon="-0.33142">
        <ele>1364</ele>
        <time>2021-03-03T08:41:34.625Z</time>
      </trkpt>
      <trkpt lat="42.95689" lon="-0.33145">
        <ele>1364</ele>
        <time>2021-03-03T08:41:39.535Z</time>
      </trkpt>
      <trkpt lat="42.95688" lon="-0.3315">
        <ele>1364</ele>
        <time>2021-03-03T08:41:43.562Z</time>
      </trkpt>
      <trkpt lat="42.9569" lon="-0.33154">
        <ele>1363</ele>
        <time>2021-03-03T08:41:48.578Z</time>
      </trkpt>
      <trkpt lat="42.9569" lon="-0.33159">
        <ele>1363</ele>
        <time>2021-03-03T08:41:52.572Z</time>
      </trkpt>
      <trkpt lat="42.95689" lon="-0.33166">
        <ele>1363</ele>
        <time>2021-03-03T08:41:57.597Z</time>
      </trkpt>
      <trkpt lat="42.95686" lon="-0.33173">
        <ele>1363</ele>
        <time>2021-03-03T08:42:02.563Z</time>
      </trkpt>
      <trkpt lat="42.95683" lon="-0.33179">
        <ele>1363</ele>
        <time>2021-03-03T08:42:07.560Z</time>
      </trkpt>
      <trkpt lat="42.95678" lon="-0.33195">
        <ele>1363</ele>
        <time>2021-03-03T08:45:11.562Z</time>
      </trkpt>
      <trkpt lat="42.95678" lon="-0.33196">
        <ele>1363</ele>
        <time>2021-03-03T08:45:16.535Z</time>
      </trkpt>
      <trkpt lat="42.95677" lon="-0.33197">
        <ele>1363</ele>
        <time>2021-03-03T08:45:21.525Z</time>
      </trkpt>
      <trkpt lat="42.95677" lon="-0.33197">
        <ele>1363</ele>
        <time>2021-03-03T08:45:26.528Z</time>
      </trkpt>
      <trkpt lat="42.95676" lon="-0.33197">
        <ele>1363</ele>
        <time>2021-03-03T08:45:31.532Z</time>
      </trkpt>
      <trkpt lat="42.95676" lon="-0.33198">
        <ele>1363</ele>
        <time>2021-03-03T08:45:36.526Z</time>
      </trkpt>
      <trkpt lat="42.95672" lon="-0.33201">
        <ele>1363</ele>
        <time>2021-03-03T08:45:41.530Z</time>
      </trkpt>
      <trkpt lat="42.95669" lon="-0.33204">
        <ele>1363</ele>
        <time>2021-03-03T08:45:46.559Z</time>
      </trkpt>
      <trkpt lat="42.95669" lon="-0.33206">
        <ele>1363</ele>
        <time>2021-03-03T08:45:51.529Z</time>
      </trkpt>
      <trkpt lat="42.95665" lon="-0.33214">
        <ele>1363</ele>
        <time>2021-03-03T08:49:07.525Z</time>
      </trkpt>
      <trkpt lat="42.95665" lon="-0.33214">
        <ele>1363</ele>
        <time>2021-03-03T08:49:11.554Z</time>
      </trkpt>
      <trkpt lat="42.95665" lon="-0.33214">
        <ele>1363</ele>
        <time>2021-03-03T08:49:16.562Z</time>
      </trkpt>
      <trkpt lat="42.95664" lon="-0.33216">
        <ele>1363</ele>
        <time>2021-03-03T08:49:21.565Z</time>
      </trkpt>
      <trkpt lat="42.95664" lon="-0.33219">
        <ele>1363</ele>
        <time>2021-03-03T08:49:26.564Z</time>
      </trkpt>
      <trkpt lat="42.95663" lon="-0.33221">
        <ele>1363</ele>
        <time>2021-03-03T08:49:31.559Z</time>
      </trkpt>
      <trkpt lat="42.95662" lon="-0.33226">
        <ele>1363</ele>
        <time>2021-03-03T08:49:35.569Z</time>
      </trkpt>
      <trkpt lat="42.95661" lon="-0.33229">
        <ele>1363</ele>
        <time>2021-03-03T08:49:39.597Z</time>
      </trkpt>
      <trkpt lat="42.95661" lon="-0.33232">
        <ele>1363</ele>
        <time>2021-03-03T08:49:44.568Z</time>
      </trkpt>
      <trkpt lat="42.9566" lon="-0.33235">
        <ele>1363</ele>
        <time>2021-03-03T08:49:49.555Z</time>
      </trkpt>
      <trkpt lat="42.95659" lon="-0.33238">
        <ele>1363</ele>
        <time>2021-03-03T08:49:53.623Z</time>
      </trkpt>
      <trkpt lat="42.95657" lon="-0.3324">
        <ele>1363</ele>
        <time>2021-03-03T08:49:58.558Z</time>
      </trkpt>
      <trkpt lat="42.95655" lon="-0.33243">
        <ele>1363</ele>
        <time>2021-03-03T08:50:03.565Z</time>
      </trkpt>
      <trkpt lat="42.95654" lon="-0.33245">
        <ele>1363</ele>
        <time>2021-03-03T08:50:07.572Z</time>
      </trkpt>
      <trkpt lat="42.95654" lon="-0.33249">
        <ele>1363</ele>
        <time>2021-03-03T08:50:12.562Z</time>
      </trkpt>
      <trkpt lat="42.95651" lon="-0.33252">
        <ele>1365</ele>
        <time>2021-03-03T08:50:17.569Z</time>
      </trkpt>
      <trkpt lat="42.95649" lon="-0.33255">
        <ele>1365</ele>
        <time>2021-03-03T08:50:22.520Z</time>
      </trkpt>
      <trkpt lat="42.95646" lon="-0.33257">
        <ele>1365</ele>
        <time>2021-03-03T08:50:26.551Z</time>
      </trkpt>
      <trkpt lat="42.95643" lon="-0.3326">
        <ele>1365</ele>
        <time>2021-03-03T08:50:30.572Z</time>
      </trkpt>
      <trkpt lat="42.95639" lon="-0.33261">
        <ele>1365</ele>
        <time>2021-03-03T08:50:34.630Z</time>
      </trkpt>
      <trkpt lat="42.95635" lon="-0.33262">
        <ele>1365</ele>
        <time>2021-03-03T08:50:39.565Z</time>
      </trkpt>
      <trkpt lat="42.95632" lon="-0.33263">
        <ele>1365</ele>
        <time>2021-03-03T08:50:43.573Z</time>
      </trkpt>
      <trkpt lat="42.95628" lon="-0.33263">
        <ele>1365</ele>
        <time>2021-03-03T08:50:48.638Z</time>
      </trkpt>
      <trkpt lat="42.95626" lon="-0.33267">
        <ele>1367</ele>
        <time>2021-03-03T08:50:53.565Z</time>
      </trkpt>
      <trkpt lat="42.95622" lon="-0.33271">
        <ele>1369</ele>
        <time>2021-03-03T08:50:58.527Z</time>
      </trkpt>
      <trkpt lat="42.95619" lon="-0.33274">
        <ele>1369</ele>
        <time>2021-03-03T08:51:03.530Z</time>
      </trkpt>
      <trkpt lat="42.95615" lon="-0.33277">
        <ele>1369</ele>
        <time>2021-03-03T08:51:08.531Z</time>
      </trkpt>
      <trkpt lat="42.95612" lon="-0.33281">
        <ele>1369</ele>
        <time>2021-03-03T08:51:13.524Z</time>
      </trkpt>
      <trkpt lat="42.95609" lon="-0.33284">
        <ele>1369</ele>
        <time>2021-03-03T08:51:18.529Z</time>
      </trkpt>
      <trkpt lat="42.95608" lon="-0.33286">
        <ele>1369</ele>
        <time>2021-03-03T08:51:22.551Z</time>
      </trkpt>
      <trkpt lat="42.95606" lon="-0.3329">
        <ele>1369</ele>
        <time>2021-03-03T08:51:27.525Z</time>
      </trkpt>
      <trkpt lat="42.95604" lon="-0.33293">
        <ele>1372</ele>
        <time>2021-03-03T08:51:31.526Z</time>
      </trkpt>
      <trkpt lat="42.95601" lon="-0.33295">
        <ele>1372</ele>
        <time>2021-03-03T08:51:35.559Z</time>
      </trkpt>
      <trkpt lat="42.95598" lon="-0.33298">
        <ele>1372</ele>
        <time>2021-03-03T08:51:40.526Z</time>
      </trkpt>
      <trkpt lat="42.95596" lon="-0.33301">
        <ele>1375</ele>
        <time>2021-03-03T08:51:45.527Z</time>
      </trkpt>
      <trkpt lat="42.95594" lon="-0.33304">
        <ele>1375</ele>
        <time>2021-03-03T08:51:50.527Z</time>
      </trkpt>
      <trkpt lat="42.95592" lon="-0.33308">
        <ele>1375</ele>
        <time>2021-03-03T08:51:55.519Z</time>
      </trkpt>
      <trkpt lat="42.9559" lon="-0.33312">
        <ele>1375</ele>
        <time>2021-03-03T08:52:00.525Z</time>
      </trkpt>
      <trkpt lat="42.95589" lon="-0.33316">
        <ele>1375</ele>
        <time>2021-03-03T08:52:05.530Z</time>
      </trkpt>
      <trkpt lat="42.95587" lon="-0.33321">
        <ele>1377</ele>
        <time>2021-03-03T08:52:10.556Z</time>
      </trkpt>
      <trkpt lat="42.95585" lon="-0.33325">
        <ele>1377</ele>
        <time>2021-03-03T08:52:15.528Z</time>
      </trkpt>
      <trkpt lat="42.95583" lon="-0.3333">
        <ele>1377</ele>
        <time>2021-03-03T08:52:20.524Z</time>
      </trkpt>
      <trkpt lat="42.95581" lon="-0.33335">
        <ele>1377</ele>
        <time>2021-03-03T08:52:25.532Z</time>
      </trkpt>
      <trkpt lat="42.95577" lon="-0.33339">
        <ele>1377</ele>
        <time>2021-03-03T08:52:34.555Z</time>
      </trkpt>
      <trkpt lat="42.95576" lon="-0.33343">
        <ele>1377</ele>
        <time>2021-03-03T08:52:39.528Z</time>
      </trkpt>
      <trkpt lat="42.95578" lon="-0.33347">
        <ele>1377</ele>
        <time>2021-03-03T08:52:44.531Z</time>
      </trkpt>
      <trkpt lat="42.95579" lon="-0.3335">
        <ele>1380</ele>
        <time>2021-03-03T08:52:49.528Z</time>
      </trkpt>
      <trkpt lat="42.9558" lon="-0.33353">
        <ele>1380</ele>
        <time>2021-03-03T08:52:54.529Z</time>
      </trkpt>
      <trkpt lat="42.95581" lon="-0.33357">
        <ele>1380</ele>
        <time>2021-03-03T08:52:59.529Z</time>
      </trkpt>
      <trkpt lat="42.95581" lon="-0.33362">
        <ele>1380</ele>
        <time>2021-03-03T08:53:03.525Z</time>
      </trkpt>
      <trkpt lat="42.95582" lon="-0.33368">
        <ele>1380</ele>
        <time>2021-03-03T08:53:08.526Z</time>
      </trkpt>
      <trkpt lat="42.95584" lon="-0.33372">
        <ele>1380</ele>
        <time>2021-03-03T08:53:13.527Z</time>
      </trkpt>
      <trkpt lat="42.95585" lon="-0.33376">
        <ele>1383</ele>
        <time>2021-03-03T08:53:18.522Z</time>
      </trkpt>
      <trkpt lat="42.95588" lon="-0.33381">
        <ele>1383</ele>
        <time>2021-03-03T08:53:23.553Z</time>
      </trkpt>
      <trkpt lat="42.9559" lon="-0.33384">
        <ele>1383</ele>
        <time>2021-03-03T08:53:28.524Z</time>
      </trkpt>
      <trkpt lat="42.95589" lon="-0.33389">
        <ele>1383</ele>
        <time>2021-03-03T08:53:33.524Z</time>
      </trkpt>
      <trkpt lat="42.95587" lon="-0.33394">
        <ele>1383</ele>
        <time>2021-03-03T08:53:38.534Z</time>
      </trkpt>
      <trkpt lat="42.95584" lon="-0.33396">
        <ele>1383</ele>
        <time>2021-03-03T08:53:43.529Z</time>
      </trkpt>
      <trkpt lat="42.9558" lon="-0.33396">
        <ele>1383</ele>
        <time>2021-03-03T08:53:47.559Z</time>
      </trkpt>
      <trkpt lat="42.95577" lon="-0.33397">
        <ele>1383</ele>
        <time>2021-03-03T08:53:52.526Z</time>
      </trkpt>
      <trkpt lat="42.95574" lon="-0.33399">
        <ele>1383</ele>
        <time>2021-03-03T08:53:56.524Z</time>
      </trkpt>
      <trkpt lat="42.9557" lon="-0.33401">
        <ele>1383</ele>
        <time>2021-03-03T08:54:01.525Z</time>
      </trkpt>
      <trkpt lat="42.95567" lon="-0.33403">
        <ele>1395</ele>
        <time>2021-03-03T08:54:06.532Z</time>
      </trkpt>
      <trkpt lat="42.95565" lon="-0.33407">
        <ele>1395</ele>
        <time>2021-03-03T08:54:11.527Z</time>
      </trkpt>
      <trkpt lat="42.95565" lon="-0.33411">
        <ele>1395</ele>
        <time>2021-03-03T08:54:16.525Z</time>
      </trkpt>
      <trkpt lat="42.95565" lon="-0.33415">
        <ele>1395</ele>
        <time>2021-03-03T08:54:21.531Z</time>
      </trkpt>
      <trkpt lat="42.95565" lon="-0.33419">
        <ele>1395</ele>
        <time>2021-03-03T08:54:26.530Z</time>
      </trkpt>
      <trkpt lat="42.95565" lon="-0.33425">
        <ele>1395</ele>
        <time>2021-03-03T08:54:31.530Z</time>
      </trkpt>
      <trkpt lat="42.95565" lon="-0.33429">
        <ele>1395</ele>
        <time>2021-03-03T08:54:35.524Z</time>
      </trkpt>
      <trkpt lat="42.95567" lon="-0.33434">
        <ele>1400</ele>
        <time>2021-03-03T08:54:40.523Z</time>
      </trkpt>
      <trkpt lat="42.95568" lon="-0.33437">
        <ele>1400</ele>
        <time>2021-03-03T08:54:45.527Z</time>
      </trkpt>
      <trkpt lat="42.95568" lon="-0.33441">
        <ele>1400</ele>
        <time>2021-03-03T08:54:50.527Z</time>
      </trkpt>
      <trkpt lat="42.95567" lon="-0.33445">
        <ele>1400</ele>
        <time>2021-03-03T08:54:55.532Z</time>
      </trkpt>
      <trkpt lat="42.95566" lon="-0.33449">
        <ele>1400</ele>
        <time>2021-03-03T08:55:00.524Z</time>
      </trkpt>
      <trkpt lat="42.95562" lon="-0.33454">
        <ele>1400</ele>
        <time>2021-03-03T08:55:05.524Z</time>
      </trkpt>
      <trkpt lat="42.95558" lon="-0.33457">
        <ele>1400</ele>
        <time>2021-03-03T08:55:10.524Z</time>
      </trkpt>
      <trkpt lat="42.95556" lon="-0.33459">
        <ele>1403</ele>
        <time>2021-03-03T08:55:14.530Z</time>
      </trkpt>
      <trkpt lat="42.95553" lon="-0.33459">
        <ele>1403</ele>
        <time>2021-03-03T08:55:18.560Z</time>
      </trkpt>
      <trkpt lat="42.95549" lon="-0.33456">
        <ele>1400</ele>
        <time>2021-03-03T08:55:23.526Z</time>
      </trkpt>
      <trkpt lat="42.95547" lon="-0.33459">
        <ele>1403</ele>
        <time>2021-03-03T08:55:28.526Z</time>
      </trkpt>
      <trkpt lat="42.95544" lon="-0.33461">
        <ele>1403</ele>
        <time>2021-03-03T08:55:33.527Z</time>
      </trkpt>
      <trkpt lat="42.95542" lon="-0.33463">
        <ele>1403</ele>
        <time>2021-03-03T08:55:37.527Z</time>
      </trkpt>
      <trkpt lat="42.95541" lon="-0.33465">
        <ele>1407</ele>
        <time>2021-03-03T08:55:42.525Z</time>
      </trkpt>
      <trkpt lat="42.95541" lon="-0.33469">
        <ele>1407</ele>
        <time>2021-03-03T08:55:47.527Z</time>
      </trkpt>
      <trkpt lat="42.95541" lon="-0.33474">
        <ele>1407</ele>
        <time>2021-03-03T08:55:52.531Z</time>
      </trkpt>
      <trkpt lat="42.95541" lon="-0.3348">
        <ele>1407</ele>
        <time>2021-03-03T08:55:57.526Z</time>
      </trkpt>
      <trkpt lat="42.95543" lon="-0.33484">
        <ele>1403</ele>
        <time>2021-03-03T08:56:02.527Z</time>
      </trkpt>
      <trkpt lat="42.95543" lon="-0.33488">
        <ele>1403</ele>
        <time>2021-03-03T08:56:06.524Z</time>
      </trkpt>
      <trkpt lat="42.95544" lon="-0.33493">
        <ele>1403</ele>
        <time>2021-03-03T08:56:11.526Z</time>
      </trkpt>
      <trkpt lat="42.95545" lon="-0.33498">
        <ele>1403</ele>
        <time>2021-03-03T08:56:16.531Z</time>
      </trkpt>
      <trkpt lat="42.95544" lon="-0.33504">
        <ele>1403</ele>
        <time>2021-03-03T08:56:21.532Z</time>
      </trkpt>
      <trkpt lat="42.95544" lon="-0.33508">
        <ele>1403</ele>
        <time>2021-03-03T08:56:25.554Z</time>
      </trkpt>
      <trkpt lat="42.95545" lon="-0.33511">
        <ele>1403</ele>
        <time>2021-03-03T08:56:30.523Z</time>
      </trkpt>
      <trkpt lat="42.95545" lon="-0.33516">
        <ele>1405</ele>
        <time>2021-03-03T08:56:35.529Z</time>
      </trkpt>
      <trkpt lat="42.95545" lon="-0.3352">
        <ele>1405</ele>
        <time>2021-03-03T08:56:40.526Z</time>
      </trkpt>
      <trkpt lat="42.95543" lon="-0.33525">
        <ele>1405</ele>
        <time>2021-03-03T08:56:45.533Z</time>
      </trkpt>
      <trkpt lat="42.95539" lon="-0.33527">
        <ele>1411</ele>
        <time>2021-03-03T08:56:50.527Z</time>
      </trkpt>
      <trkpt lat="42.95537" lon="-0.33527">
        <ele>1411</ele>
        <time>2021-03-03T08:56:54.526Z</time>
      </trkpt>
      <trkpt lat="42.95534" lon="-0.33527">
        <ele>1411</ele>
        <time>2021-03-03T08:56:59.529Z</time>
      </trkpt>
      <trkpt lat="42.95531" lon="-0.33527">
        <ele>1411</ele>
        <time>2021-03-03T08:57:04.521Z</time>
      </trkpt>
      <trkpt lat="42.95529" lon="-0.33527">
        <ele>1411</ele>
        <time>2021-03-03T08:57:09.527Z</time>
      </trkpt>
      <trkpt lat="42.95526" lon="-0.33527">
        <ele>1411</ele>
        <time>2021-03-03T08:57:13.581Z</time>
      </trkpt>
      <trkpt lat="42.95523" lon="-0.33529">
        <ele>1411</ele>
        <time>2021-03-03T08:57:27.529Z</time>
      </trkpt>
      <trkpt lat="42.9552" lon="-0.33528">
        <ele>1411</ele>
        <time>2021-03-03T08:57:32.528Z</time>
      </trkpt>
      <trkpt lat="42.95518" lon="-0.33527">
        <ele>1411</ele>
        <time>2021-03-03T08:57:37.525Z</time>
      </trkpt>
      <trkpt lat="42.95516" lon="-0.33527">
        <ele>1411</ele>
        <time>2021-03-03T08:57:42.530Z</time>
      </trkpt>
      <trkpt lat="42.95513" lon="-0.33527">
        <ele>1420</ele>
        <time>2021-03-03T08:57:47.528Z</time>
      </trkpt>
      <trkpt lat="42.95508" lon="-0.33527">
        <ele>1420</ele>
        <time>2021-03-03T08:57:57.527Z</time>
      </trkpt>
      <trkpt lat="42.95508" lon="-0.3353">
        <ele>1420</ele>
        <time>2021-03-03T08:58:02.532Z</time>
      </trkpt>
      <trkpt lat="42.95508" lon="-0.33533">
        <ele>1420</ele>
        <time>2021-03-03T08:58:07.528Z</time>
      </trkpt>
      <trkpt lat="42.95509" lon="-0.33536">
        <ele>1420</ele>
        <time>2021-03-03T08:58:12.533Z</time>
      </trkpt>
      <trkpt lat="42.9551" lon="-0.3354">
        <ele>1420</ele>
        <time>2021-03-03T08:58:17.527Z</time>
      </trkpt>
      <trkpt lat="42.9551" lon="-0.33544">
        <ele>1424</ele>
        <time>2021-03-03T08:58:21.522Z</time>
      </trkpt>
      <trkpt lat="42.95512" lon="-0.33548">
        <ele>1424</ele>
        <time>2021-03-03T08:58:26.526Z</time>
      </trkpt>
      <trkpt lat="42.95512" lon="-0.33551">
        <ele>1424</ele>
        <time>2021-03-03T08:58:31.526Z</time>
      </trkpt>
      <trkpt lat="42.95512" lon="-0.33554">
        <ele>1424</ele>
        <time>2021-03-03T08:58:36.526Z</time>
      </trkpt>
      <trkpt lat="42.95513" lon="-0.33557">
        <ele>1424</ele>
        <time>2021-03-03T08:58:41.557Z</time>
      </trkpt>
      <trkpt lat="42.95515" lon="-0.33561">
        <ele>1413</ele>
        <time>2021-03-03T08:58:46.531Z</time>
      </trkpt>
      <trkpt lat="42.95516" lon="-0.33564">
        <ele>1413</ele>
        <time>2021-03-03T08:58:51.524Z</time>
      </trkpt>
      <trkpt lat="42.95517" lon="-0.33567">
        <ele>1413</ele>
        <time>2021-03-03T08:58:56.525Z</time>
      </trkpt>
      <trkpt lat="42.95517" lon="-0.33571">
        <ele>1418</ele>
        <time>2021-03-03T08:59:01.524Z</time>
      </trkpt>
      <trkpt lat="42.95518" lon="-0.33575">
        <ele>1418</ele>
        <time>2021-03-03T08:59:06.523Z</time>
      </trkpt>
      <trkpt lat="42.95518" lon="-0.33579">
        <ele>1418</ele>
        <time>2021-03-03T08:59:11.524Z</time>
      </trkpt>
      <trkpt lat="42.95517" lon="-0.33583">
        <ele>1418</ele>
        <time>2021-03-03T08:59:16.529Z</time>
      </trkpt>
      <trkpt lat="42.95514" lon="-0.33587">
        <ele>1418</ele>
        <time>2021-03-03T08:59:21.574Z</time>
      </trkpt>
      <trkpt lat="42.9551" lon="-0.33588">
        <ele>1427</ele>
        <time>2021-03-03T08:59:26.559Z</time>
      </trkpt>
      <trkpt lat="42.95507" lon="-0.33588">
        <ele>1427</ele>
        <time>2021-03-03T08:59:30.571Z</time>
      </trkpt>
      <trkpt lat="42.95504" lon="-0.33588">
        <ele>1427</ele>
        <time>2021-03-03T08:59:35.561Z</time>
      </trkpt>
      <trkpt lat="42.95502" lon="-0.33588">
        <ele>1427</ele>
        <time>2021-03-03T08:59:40.528Z</time>
      </trkpt>
      <trkpt lat="42.95501" lon="-0.33586">
        <ele>1427</ele>
        <time>2021-03-03T08:59:44.529Z</time>
      </trkpt>
      <trkpt lat="42.95499" lon="-0.33583">
        <ele>1427</ele>
        <time>2021-03-03T08:59:49.525Z</time>
      </trkpt>
      <trkpt lat="42.95496" lon="-0.3358">
        <ele>1427</ele>
        <time>2021-03-03T08:59:54.527Z</time>
      </trkpt>
      <trkpt lat="42.95492" lon="-0.33577">
        <ele>1427</ele>
        <time>2021-03-03T08:59:59.527Z</time>
      </trkpt>
      <trkpt lat="42.95488" lon="-0.33575">
        <ele>1427</ele>
        <time>2021-03-03T09:00:04.525Z</time>
      </trkpt>
      <trkpt lat="42.95485" lon="-0.33574">
        <ele>1442</ele>
        <time>2021-03-03T09:00:08.551Z</time>
      </trkpt>
      <trkpt lat="42.95483" lon="-0.33576">
        <ele>1442</ele>
        <time>2021-03-03T09:00:13.531Z</time>
      </trkpt>
      <trkpt lat="42.95482" lon="-0.3358">
        <ele>1442</ele>
        <time>2021-03-03T09:00:18.540Z</time>
      </trkpt>
      <trkpt lat="42.95483" lon="-0.33584">
        <ele>1442</ele>
        <time>2021-03-03T09:00:22.561Z</time>
      </trkpt>
      <trkpt lat="42.95484" lon="-0.33587">
        <ele>1442</ele>
        <time>2021-03-03T09:00:27.527Z</time>
      </trkpt>
      <trkpt lat="42.95485" lon="-0.33591">
        <ele>1442</ele>
        <time>2021-03-03T09:00:32.532Z</time>
      </trkpt>
      <trkpt lat="42.95488" lon="-0.33594">
        <ele>1427</ele>
        <time>2021-03-03T09:00:37.524Z</time>
      </trkpt>
      <trkpt lat="42.95488" lon="-0.33598">
        <ele>1433</ele>
        <time>2021-03-03T09:00:42.524Z</time>
      </trkpt>
      <trkpt lat="42.95488" lon="-0.33601">
        <ele>1433</ele>
        <time>2021-03-03T09:00:47.527Z</time>
      </trkpt>
      <trkpt lat="42.95488" lon="-0.33604">
        <ele>1433</ele>
        <time>2021-03-03T09:00:52.526Z</time>
      </trkpt>
      <trkpt lat="42.95488" lon="-0.33608">
        <ele>1433</ele>
        <time>2021-03-03T09:00:57.529Z</time>
      </trkpt>
      <trkpt lat="42.95487" lon="-0.33612">
        <ele>1433</ele>
        <time>2021-03-03T09:01:01.525Z</time>
      </trkpt>
      <trkpt lat="42.95487" lon="-0.33616">
        <ele>1433</ele>
        <time>2021-03-03T09:01:06.524Z</time>
      </trkpt>
      <trkpt lat="42.95489" lon="-0.33619">
        <ele>1433</ele>
        <time>2021-03-03T09:01:11.657Z</time>
      </trkpt>
      <trkpt lat="42.95488" lon="-0.33626">
        <ele>1440</ele>
        <time>2021-03-03T09:01:16.625Z</time>
      </trkpt>
      <trkpt lat="42.95488" lon="-0.33632">
        <ele>1440</ele>
        <time>2021-03-03T09:01:21.572Z</time>
      </trkpt>
      <trkpt lat="42.95488" lon="-0.33635">
        <ele>1440</ele>
        <time>2021-03-03T09:01:26.522Z</time>
      </trkpt>
      <trkpt lat="42.95487" lon="-0.33639">
        <ele>1440</ele>
        <time>2021-03-03T09:01:31.527Z</time>
      </trkpt>
      <trkpt lat="42.95486" lon="-0.33644">
        <ele>1440</ele>
        <time>2021-03-03T09:01:36.530Z</time>
      </trkpt>
      <trkpt lat="42.95486" lon="-0.33645">
        <ele>1451</ele>
        <time>2021-03-03T09:01:41.522Z</time>
      </trkpt>
      <trkpt lat="42.95484" lon="-0.33647">
        <ele>1451</ele>
        <time>2021-03-03T09:01:45.523Z</time>
      </trkpt>
      <trkpt lat="42.95483" lon="-0.33651">
        <ele>1451</ele>
        <time>2021-03-03T09:01:50.531Z</time>
      </trkpt>
      <trkpt lat="42.95481" lon="-0.33654">
        <ele>1455</ele>
        <time>2021-03-03T09:01:55.526Z</time>
      </trkpt>
      <trkpt lat="42.95479" lon="-0.33658">
        <ele>1455</ele>
        <time>2021-03-03T09:02:00.525Z</time>
      </trkpt>
      <trkpt lat="42.95476" lon="-0.33659">
        <ele>1455</ele>
        <time>2021-03-03T09:02:05.528Z</time>
      </trkpt>
      <trkpt lat="42.95473" lon="-0.33657">
        <ele>1455</ele>
        <time>2021-03-03T09:02:10.527Z</time>
      </trkpt>
      <trkpt lat="42.95471" lon="-0.33656">
        <ele>1455</ele>
        <time>2021-03-03T09:02:14.562Z</time>
      </trkpt>
      <trkpt lat="42.95469" lon="-0.33654">
        <ele>1455</ele>
        <time>2021-03-03T09:02:19.527Z</time>
      </trkpt>
      <trkpt lat="42.95467" lon="-0.3365">
        <ele>1451</ele>
        <time>2021-03-03T09:02:24.526Z</time>
      </trkpt>
      <trkpt lat="42.95464" lon="-0.33648">
        <ele>1451</ele>
        <time>2021-03-03T09:02:29.524Z</time>
      </trkpt>
      <trkpt lat="42.95461" lon="-0.33645">
        <ele>1451</ele>
        <time>2021-03-03T09:02:33.526Z</time>
      </trkpt>
      <trkpt lat="42.95458" lon="-0.33643">
        <ele>1461</ele>
        <time>2021-03-03T09:02:38.526Z</time>
      </trkpt>
      <trkpt lat="42.95455" lon="-0.3364">
        <ele>1461</ele>
        <time>2021-03-03T09:02:43.532Z</time>
      </trkpt>
      <trkpt lat="42.95453" lon="-0.33637">
        <ele>1461</ele>
        <time>2021-03-03T09:02:48.526Z</time>
      </trkpt>
      <trkpt lat="42.9545" lon="-0.33635">
        <ele>1461</ele>
        <time>2021-03-03T09:02:53.528Z</time>
      </trkpt>
      <trkpt lat="42.95447" lon="-0.33632">
        <ele>1461</ele>
        <time>2021-03-03T09:02:58.532Z</time>
      </trkpt>
      <trkpt lat="42.95445" lon="-0.33631">
        <ele>1461</ele>
        <time>2021-03-03T09:03:02.572Z</time>
      </trkpt>
      <trkpt lat="42.95442" lon="-0.33628">
        <ele>1461</ele>
        <time>2021-03-03T09:03:07.560Z</time>
      </trkpt>
      <trkpt lat="42.95439" lon="-0.33624">
        <ele>1457</ele>
        <time>2021-03-03T09:03:12.525Z</time>
      </trkpt>
      <trkpt lat="42.95437" lon="-0.33622">
        <ele>1457</ele>
        <time>2021-03-03T09:03:17.527Z</time>
      </trkpt>
      <trkpt lat="42.95435" lon="-0.33619">
        <ele>1457</ele>
        <time>2021-03-03T09:03:22.533Z</time>
      </trkpt>
      <trkpt lat="42.95433" lon="-0.33617">
        <ele>1457</ele>
        <time>2021-03-03T09:03:27.528Z</time>
      </trkpt>
      <trkpt lat="42.9543" lon="-0.33616">
        <ele>1467</ele>
        <time>2021-03-03T09:03:32.530Z</time>
      </trkpt>
      <trkpt lat="42.95427" lon="-0.33616">
        <ele>1467</ele>
        <time>2021-03-03T09:03:37.525Z</time>
      </trkpt>
      <trkpt lat="42.95425" lon="-0.33619">
        <ele>1467</ele>
        <time>2021-03-03T09:03:42.527Z</time>
      </trkpt>
      <trkpt lat="42.95424" lon="-0.33622">
        <ele>1467</ele>
        <time>2021-03-03T09:03:46.588Z</time>
      </trkpt>
      <trkpt lat="42.95421" lon="-0.33625">
        <ele>1469</ele>
        <time>2021-03-03T09:03:51.531Z</time>
      </trkpt>
      <trkpt lat="42.95419" lon="-0.33628">
        <ele>1469</ele>
        <time>2021-03-03T09:03:55.524Z</time>
      </trkpt>
      <trkpt lat="42.95416" lon="-0.33631">
        <ele>1469</ele>
        <time>2021-03-03T09:04:00.532Z</time>
      </trkpt>
      <trkpt lat="42.95413" lon="-0.33631">
        <ele>1469</ele>
        <time>2021-03-03T09:04:05.527Z</time>
      </trkpt>
      <trkpt lat="42.95411" lon="-0.33628">
        <ele>1469</ele>
        <time>2021-03-03T09:04:10.526Z</time>
      </trkpt>
      <trkpt lat="42.95409" lon="-0.33624">
        <ele>1467</ele>
        <time>2021-03-03T09:04:15.529Z</time>
      </trkpt>
      <trkpt lat="42.95405" lon="-0.33625">
        <ele>1469</ele>
        <time>2021-03-03T09:08:01.527Z</time>
      </trkpt>
      <trkpt lat="42.95403" lon="-0.33624">
        <ele>1467</ele>
        <time>2021-03-03T09:08:06.527Z</time>
      </trkpt>
      <trkpt lat="42.95401" lon="-0.33622">
        <ele>1476</ele>
        <time>2021-03-03T09:08:11.527Z</time>
      </trkpt>
      <trkpt lat="42.95399" lon="-0.33618">
        <ele>1476</ele>
        <time>2021-03-03T09:08:16.526Z</time>
      </trkpt>
      <trkpt lat="42.95398" lon="-0.33614">
        <ele>1476</ele>
        <time>2021-03-03T09:08:21.563Z</time>
      </trkpt>
      <trkpt lat="42.95396" lon="-0.33611">
        <ele>1476</ele>
        <time>2021-03-03T09:08:26.524Z</time>
      </trkpt>
      <trkpt lat="42.95396" lon="-0.33607">
        <ele>1476</ele>
        <time>2021-03-03T09:08:31.531Z</time>
      </trkpt>
      <trkpt lat="42.95395" lon="-0.33605">
        <ele>1476</ele>
        <time>2021-03-03T09:08:36.528Z</time>
      </trkpt>
      <trkpt lat="42.95396" lon="-0.33602">
        <ele>1476</ele>
        <time>2021-03-03T09:08:41.530Z</time>
      </trkpt>
      <trkpt lat="42.95396" lon="-0.33597">
        <ele>1476</ele>
        <time>2021-03-03T09:08:46.525Z</time>
      </trkpt>
      <trkpt lat="42.95398" lon="-0.33594">
        <ele>1475</ele>
        <time>2021-03-03T09:08:51.525Z</time>
      </trkpt>
      <trkpt lat="42.95398" lon="-0.33591">
        <ele>1475</ele>
        <time>2021-03-03T09:08:56.525Z</time>
      </trkpt>
      <trkpt lat="42.95397" lon="-0.33585">
        <ele>1475</ele>
        <time>2021-03-03T09:09:01.523Z</time>
      </trkpt>
      <trkpt lat="42.95396" lon="-0.33581">
        <ele>1475</ele>
        <time>2021-03-03T09:09:06.526Z</time>
      </trkpt>
      <trkpt lat="42.95394" lon="-0.33577">
        <ele>1475</ele>
        <time>2021-03-03T09:09:11.523Z</time>
      </trkpt>
      <trkpt lat="42.95392" lon="-0.33573">
        <ele>1475</ele>
        <time>2021-03-03T09:09:15.527Z</time>
      </trkpt>
      <trkpt lat="42.95388" lon="-0.33569">
        <ele>1474</ele>
        <time>2021-03-03T09:09:20.525Z</time>
      </trkpt>
      <trkpt lat="42.95386" lon="-0.33567">
        <ele>1474</ele>
        <time>2021-03-03T09:09:25.529Z</time>
      </trkpt>
      <trkpt lat="42.95386" lon="-0.33561">
        <ele>1474</ele>
        <time>2021-03-03T09:09:30.575Z</time>
      </trkpt>
      <trkpt lat="42.95383" lon="-0.33559">
        <ele>1474</ele>
        <time>2021-03-03T09:09:35.556Z</time>
      </trkpt>
      <trkpt lat="42.95382" lon="-0.33555">
        <ele>1474</ele>
        <time>2021-03-03T09:09:40.528Z</time>
      </trkpt>
      <trkpt lat="42.9538" lon="-0.33551">
        <ele>1474</ele>
        <time>2021-03-03T09:09:45.527Z</time>
      </trkpt>
      <trkpt lat="42.95378" lon="-0.33549">
        <ele>1474</ele>
        <time>2021-03-03T09:09:49.552Z</time>
      </trkpt>
      <trkpt lat="42.95375" lon="-0.33543">
        <ele>1474</ele>
        <time>2021-03-03T09:09:54.524Z</time>
      </trkpt>
      <trkpt lat="42.95375" lon="-0.3354">
        <ele>1483</ele>
        <time>2021-03-03T09:09:59.522Z</time>
      </trkpt>
      <trkpt lat="42.95372" lon="-0.33538">
        <ele>1483</ele>
        <time>2021-03-03T09:10:04.649Z</time>
      </trkpt>
      <trkpt lat="42.95368" lon="-0.33537">
        <ele>1483</ele>
        <time>2021-03-03T09:10:10.041Z</time>
      </trkpt>
      <trkpt lat="42.95366" lon="-0.33534">
        <ele>1483</ele>
        <time>2021-03-03T09:10:14.525Z</time>
      </trkpt>
      <trkpt lat="42.95357" lon="-0.33524">
        <ele>1483</ele>
        <time>2021-03-03T09:10:44.524Z</time>
      </trkpt>
      <trkpt lat="42.95355" lon="-0.33523">
        <ele>1483</ele>
        <time>2021-03-03T09:10:49.558Z</time>
      </trkpt>
      <trkpt lat="42.95352" lon="-0.33524">
        <ele>1483</ele>
        <time>2021-03-03T09:10:54.530Z</time>
      </trkpt>
      <trkpt lat="42.95351" lon="-0.33526">
        <ele>1483</ele>
        <time>2021-03-03T09:10:59.556Z</time>
      </trkpt>
      <trkpt lat="42.95347" lon="-0.33526">
        <ele>1483</ele>
        <time>2021-03-03T09:11:04.529Z</time>
      </trkpt>
      <trkpt lat="42.95345" lon="-0.33525">
        <ele>1493</ele>
        <time>2021-03-03T09:11:09.525Z</time>
      </trkpt>
      <trkpt lat="42.95343" lon="-0.33523">
        <ele>1493</ele>
        <time>2021-03-03T09:11:14.529Z</time>
      </trkpt>
      <trkpt lat="42.95341" lon="-0.33521">
        <ele>1493</ele>
        <time>2021-03-03T09:11:19.532Z</time>
      </trkpt>
      <trkpt lat="42.95339" lon="-0.33517">
        <ele>1493</ele>
        <time>2021-03-03T09:11:24.526Z</time>
      </trkpt>
      <trkpt lat="42.95338" lon="-0.33515">
        <ele>1493</ele>
        <time>2021-03-03T09:11:28.556Z</time>
      </trkpt>
      <trkpt lat="42.95335" lon="-0.33512">
        <ele>1491</ele>
        <time>2021-03-03T09:11:38.527Z</time>
      </trkpt>
      <trkpt lat="42.95334" lon="-0.33509">
        <ele>1491</ele>
        <time>2021-03-03T09:11:43.529Z</time>
      </trkpt>
      <trkpt lat="42.95333" lon="-0.33506">
        <ele>1491</ele>
        <time>2021-03-03T09:11:48.527Z</time>
      </trkpt>
      <trkpt lat="42.95331" lon="-0.33505">
        <ele>1491</ele>
        <time>2021-03-03T09:11:53.528Z</time>
      </trkpt>
      <trkpt lat="42.9533" lon="-0.33502">
        <ele>1491</ele>
        <time>2021-03-03T09:11:58.532Z</time>
      </trkpt>
      <trkpt lat="42.95329" lon="-0.33504">
        <ele>1491</ele>
        <time>2021-03-03T09:12:03.527Z</time>
      </trkpt>
      <trkpt lat="42.95325" lon="-0.33503">
        <ele>1491</ele>
        <time>2021-03-03T09:12:08.528Z</time>
      </trkpt>
      <trkpt lat="42.95321" lon="-0.33504">
        <ele>1491</ele>
        <time>2021-03-03T09:12:13.531Z</time>
      </trkpt>
      <trkpt lat="42.95318" lon="-0.33506">
        <ele>1499</ele>
        <time>2021-03-03T09:12:18.528Z</time>
      </trkpt>
      <trkpt lat="42.95313" lon="-0.33509">
        <ele>1499</ele>
        <time>2021-03-03T09:12:28.562Z</time>
      </trkpt>
      <trkpt lat="42.95312" lon="-0.33511">
        <ele>1499</ele>
        <time>2021-03-03T09:12:33.528Z</time>
      </trkpt>
      <trkpt lat="42.95309" lon="-0.3351">
        <ele>1499</ele>
        <time>2021-03-03T09:12:38.527Z</time>
      </trkpt>
      <trkpt lat="42.95306" lon="-0.33508">
        <ele>1499</ele>
        <time>2021-03-03T09:12:43.527Z</time>
      </trkpt>
      <trkpt lat="42.95304" lon="-0.33505">
        <ele>1499</ele>
        <time>2021-03-03T09:12:48.527Z</time>
      </trkpt>
      <trkpt lat="42.95302" lon="-0.33503">
        <ele>1499</ele>
        <time>2021-03-03T09:12:53.529Z</time>
      </trkpt>
      <trkpt lat="42.95299" lon="-0.33501">
        <ele>1499</ele>
        <time>2021-03-03T09:12:58.523Z</time>
      </trkpt>
      <trkpt lat="42.95297" lon="-0.33499">
        <ele>1499</ele>
        <time>2021-03-03T09:13:02.523Z</time>
      </trkpt>
      <trkpt lat="42.95294" lon="-0.33497">
        <ele>1499</ele>
        <time>2021-03-03T09:13:07.527Z</time>
      </trkpt>
      <trkpt lat="42.95292" lon="-0.33496">
        <ele>1499</ele>
        <time>2021-03-03T09:13:12.530Z</time>
      </trkpt>
      <trkpt lat="42.9529" lon="-0.33496">
        <ele>1506</ele>
        <time>2021-03-03T09:13:17.528Z</time>
      </trkpt>
      <trkpt lat="42.95289" lon="-0.33501">
        <ele>1506</ele>
        <time>2021-03-03T09:13:22.530Z</time>
      </trkpt>
      <trkpt lat="42.95287" lon="-0.33504">
        <ele>1506</ele>
        <time>2021-03-03T09:13:27.527Z</time>
      </trkpt>
      <trkpt lat="42.95286" lon="-0.33507">
        <ele>1506</ele>
        <time>2021-03-03T09:13:32.550Z</time>
      </trkpt>
      <trkpt lat="42.95283" lon="-0.3351">
        <ele>1506</ele>
        <time>2021-03-03T09:13:37.527Z</time>
      </trkpt>
      <trkpt lat="42.95281" lon="-0.33514">
        <ele>1508</ele>
        <time>2021-03-03T09:13:42.530Z</time>
      </trkpt>
      <trkpt lat="42.95281" lon="-0.33517">
        <ele>1508</ele>
        <time>2021-03-03T09:13:47.526Z</time>
      </trkpt>
      <trkpt lat="42.9528" lon="-0.3352">
        <ele>1508</ele>
        <time>2021-03-03T09:13:52.530Z</time>
      </trkpt>
      <trkpt lat="42.95278" lon="-0.33521">
        <ele>1508</ele>
        <time>2021-03-03T09:13:57.527Z</time>
      </trkpt>
      <trkpt lat="42.95276" lon="-0.3352">
        <ele>1508</ele>
        <time>2021-03-03T09:14:02.523Z</time>
      </trkpt>
      <trkpt lat="42.95274" lon="-0.33518">
        <ele>1508</ele>
        <time>2021-03-03T09:14:06.549Z</time>
      </trkpt>
      <trkpt lat="42.95272" lon="-0.33515">
        <ele>1508</ele>
        <time>2021-03-03T09:14:11.528Z</time>
      </trkpt>
      <trkpt lat="42.9527" lon="-0.33513">
        <ele>1506</ele>
        <time>2021-03-03T09:14:16.526Z</time>
      </trkpt>
      <trkpt lat="42.95269" lon="-0.33511">
        <ele>1506</ele>
        <time>2021-03-03T09:14:21.525Z</time>
      </trkpt>
      <trkpt lat="42.95266" lon="-0.33508">
        <ele>1506</ele>
        <time>2021-03-03T09:14:26.527Z</time>
      </trkpt>
      <trkpt lat="42.95264" lon="-0.33506">
        <ele>1514</ele>
        <time>2021-03-03T09:14:30.524Z</time>
      </trkpt>
      <trkpt lat="42.9526" lon="-0.33505">
        <ele>1514</ele>
        <time>2021-03-03T09:14:35.529Z</time>
      </trkpt>
      <trkpt lat="42.95258" lon="-0.33502">
        <ele>1514</ele>
        <time>2021-03-03T09:14:40.526Z</time>
      </trkpt>
      <trkpt lat="42.95256" lon="-0.33499">
        <ele>1514</ele>
        <time>2021-03-03T09:14:45.528Z</time>
      </trkpt>
      <trkpt lat="42.95255" lon="-0.33496">
        <ele>1514</ele>
        <time>2021-03-03T09:14:50.527Z</time>
      </trkpt>
      <trkpt lat="42.95252" lon="-0.33498">
        <ele>1514</ele>
        <time>2021-03-03T09:14:55.531Z</time>
      </trkpt>
      <trkpt lat="42.9525" lon="-0.33502">
        <ele>1514</ele>
        <time>2021-03-03T09:15:00.560Z</time>
      </trkpt>
      <trkpt lat="42.95248" lon="-0.33506">
        <ele>1514</ele>
        <time>2021-03-03T09:15:05.526Z</time>
      </trkpt>
      <trkpt lat="42.95244" lon="-0.33513">
        <ele>1514</ele>
        <time>2021-03-03T09:15:15.530Z</time>
      </trkpt>
      <trkpt lat="42.95243" lon="-0.33515">
        <ele>1517</ele>
        <time>2021-03-03T09:15:20.527Z</time>
      </trkpt>
      <trkpt lat="42.95242" lon="-0.33517">
        <ele>1517</ele>
        <time>2021-03-03T09:15:24.527Z</time>
      </trkpt>
      <trkpt lat="42.95239" lon="-0.33519">
        <ele>1517</ele>
        <time>2021-03-03T09:15:29.527Z</time>
      </trkpt>
      <trkpt lat="42.95237" lon="-0.33521">
        <ele>1517</ele>
        <time>2021-03-03T09:15:34.524Z</time>
      </trkpt>
      <trkpt lat="42.95234" lon="-0.33522">
        <ele>1527</ele>
        <time>2021-03-03T09:15:39.525Z</time>
      </trkpt>
      <trkpt lat="42.95232" lon="-0.3352">
        <ele>1527</ele>
        <time>2021-03-03T09:15:44.534Z</time>
      </trkpt>
      <trkpt lat="42.95229" lon="-0.33518">
        <ele>1527</ele>
        <time>2021-03-03T09:15:49.528Z</time>
      </trkpt>
      <trkpt lat="42.95227" lon="-0.33515">
        <ele>1527</ele>
        <time>2021-03-03T09:15:54.532Z</time>
      </trkpt>
      <trkpt lat="42.95223" lon="-0.33514">
        <ele>1524</ele>
        <time>2021-03-03T09:15:59.525Z</time>
      </trkpt>
      <trkpt lat="42.95219" lon="-0.33511">
        <ele>1524</ele>
        <time>2021-03-03T09:16:04.531Z</time>
      </trkpt>
      <trkpt lat="42.95216" lon="-0.3351">
        <ele>1524</ele>
        <time>2021-03-03T09:16:09.528Z</time>
      </trkpt>
      <trkpt lat="42.95214" lon="-0.3351">
        <ele>1524</ele>
        <time>2021-03-03T09:16:14.522Z</time>
      </trkpt>
      <trkpt lat="42.95211" lon="-0.3351">
        <ele>1524</ele>
        <time>2021-03-03T09:16:19.528Z</time>
      </trkpt>
      <trkpt lat="42.95208" lon="-0.33511">
        <ele>1531</ele>
        <time>2021-03-03T09:16:24.530Z</time>
      </trkpt>
      <trkpt lat="42.95206" lon="-0.33513">
        <ele>1531</ele>
        <time>2021-03-03T09:16:29.550Z</time>
      </trkpt>
      <trkpt lat="42.95205" lon="-0.33517">
        <ele>1533</ele>
        <time>2021-03-03T09:16:34.528Z</time>
      </trkpt>
      <trkpt lat="42.95203" lon="-0.33519">
        <ele>1533</ele>
        <time>2021-03-03T09:16:39.530Z</time>
      </trkpt>
      <trkpt lat="42.95201" lon="-0.33524">
        <ele>1533</ele>
        <time>2021-03-03T09:16:44.528Z</time>
      </trkpt>
      <trkpt lat="42.95199" lon="-0.33528">
        <ele>1533</ele>
        <time>2021-03-03T09:16:49.526Z</time>
      </trkpt>
      <trkpt lat="42.95196" lon="-0.3353">
        <ele>1533</ele>
        <time>2021-03-03T09:16:54.527Z</time>
      </trkpt>
      <trkpt lat="42.95195" lon="-0.33532">
        <ele>1533</ele>
        <time>2021-03-03T09:16:59.526Z</time>
      </trkpt>
      <trkpt lat="42.95193" lon="-0.33536">
        <ele>1533</ele>
        <time>2021-03-03T09:17:04.555Z</time>
      </trkpt>
      <trkpt lat="42.9519" lon="-0.33538">
        <ele>1533</ele>
        <time>2021-03-03T09:17:09.529Z</time>
      </trkpt>
      <trkpt lat="42.95186" lon="-0.33541">
        <ele>1533</ele>
        <time>2021-03-03T09:17:14.532Z</time>
      </trkpt>
      <trkpt lat="42.95184" lon="-0.33542">
        <ele>1536</ele>
        <time>2021-03-03T09:17:19.529Z</time>
      </trkpt>
      <trkpt lat="42.95182" lon="-0.33542">
        <ele>1536</ele>
        <time>2021-03-03T09:17:24.532Z</time>
      </trkpt>
      <trkpt lat="42.95179" lon="-0.33543">
        <ele>1538</ele>
        <time>2021-03-03T09:17:29.526Z</time>
      </trkpt>
      <trkpt lat="42.95175" lon="-0.33545">
        <ele>1538</ele>
        <time>2021-03-03T09:17:34.526Z</time>
      </trkpt>
      <trkpt lat="42.95172" lon="-0.33547">
        <ele>1538</ele>
        <time>2021-03-03T09:17:39.529Z</time>
      </trkpt>
      <trkpt lat="42.95169" lon="-0.33549">
        <ele>1538</ele>
        <time>2021-03-03T09:17:44.529Z</time>
      </trkpt>
      <trkpt lat="42.95166" lon="-0.33551">
        <ele>1538</ele>
        <time>2021-03-03T09:17:49.522Z</time>
      </trkpt>
      <trkpt lat="42.95164" lon="-0.33553">
        <ele>1538</ele>
        <time>2021-03-03T09:17:54.526Z</time>
      </trkpt>
      <trkpt lat="42.95162" lon="-0.33556">
        <ele>1538</ele>
        <time>2021-03-03T09:17:59.818Z</time>
      </trkpt>
      <trkpt lat="42.95159" lon="-0.33559">
        <ele>1538</ele>
        <time>2021-03-03T09:18:04.523Z</time>
      </trkpt>
      <trkpt lat="42.95156" lon="-0.33563">
        <ele>1538</ele>
        <time>2021-03-03T09:18:09.553Z</time>
      </trkpt>
      <trkpt lat="42.95153" lon="-0.33567">
        <ele>1538</ele>
        <time>2021-03-03T09:18:13.849Z</time>
      </trkpt>
      <trkpt lat="42.9515" lon="-0.33571">
        <ele>1543</ele>
        <time>2021-03-03T09:18:18.527Z</time>
      </trkpt>
      <trkpt lat="42.95147" lon="-0.33575">
        <ele>1543</ele>
        <time>2021-03-03T09:18:23.527Z</time>
      </trkpt>
      <trkpt lat="42.95144" lon="-0.33577">
        <ele>1543</ele>
        <time>2021-03-03T09:18:28.524Z</time>
      </trkpt>
      <trkpt lat="42.95141" lon="-0.3358">
        <ele>1543</ele>
        <time>2021-03-03T09:18:33.526Z</time>
      </trkpt>
      <trkpt lat="42.95139" lon="-0.33583">
        <ele>1543</ele>
        <time>2021-03-03T09:18:38.531Z</time>
      </trkpt>
      <trkpt lat="42.95136" lon="-0.33586">
        <ele>1543</ele>
        <time>2021-03-03T09:18:43.535Z</time>
      </trkpt>
      <trkpt lat="42.95133" lon="-0.3359">
        <ele>1543</ele>
        <time>2021-03-03T09:18:48.526Z</time>
      </trkpt>
      <trkpt lat="42.95129" lon="-0.33594">
        <ele>1543</ele>
        <time>2021-03-03T09:18:53.524Z</time>
      </trkpt>
      <trkpt lat="42.95126" lon="-0.33596">
        <ele>1543</ele>
        <time>2021-03-03T09:18:58.529Z</time>
      </trkpt>
      <trkpt lat="42.95125" lon="-0.33599">
        <ele>1552</ele>
        <time>2021-03-03T09:19:03.527Z</time>
      </trkpt>
      <trkpt lat="42.95124" lon="-0.33602">
        <ele>1552</ele>
        <time>2021-03-03T09:19:08.529Z</time>
      </trkpt>
      <trkpt lat="42.95121" lon="-0.33604">
        <ele>1552</ele>
        <time>2021-03-03T09:19:13.525Z</time>
      </trkpt>
      <trkpt lat="42.95119" lon="-0.33607">
        <ele>1552</ele>
        <time>2021-03-03T09:19:18.532Z</time>
      </trkpt>
      <trkpt lat="42.95117" lon="-0.33608">
        <ele>1552</ele>
        <time>2021-03-03T09:19:23.530Z</time>
      </trkpt>
      <trkpt lat="42.95114" lon="-0.33608">
        <ele>1552</ele>
        <time>2021-03-03T09:19:28.533Z</time>
      </trkpt>
      <trkpt lat="42.95112" lon="-0.33608">
        <ele>1552</ele>
        <time>2021-03-03T09:19:33.526Z</time>
      </trkpt>
      <trkpt lat="42.95109" lon="-0.33608">
        <ele>1552</ele>
        <time>2021-03-03T09:19:37.524Z</time>
      </trkpt>
      <trkpt lat="42.95108" lon="-0.33607">
        <ele>1552</ele>
        <time>2021-03-03T09:19:42.524Z</time>
      </trkpt>
      <trkpt lat="42.95106" lon="-0.33604">
        <ele>1552</ele>
        <time>2021-03-03T09:19:47.526Z</time>
      </trkpt>
      <trkpt lat="42.95104" lon="-0.33602">
        <ele>1552</ele>
        <time>2021-03-03T09:19:52.528Z</time>
      </trkpt>
      <trkpt lat="42.95102" lon="-0.336">
        <ele>1552</ele>
        <time>2021-03-03T09:19:57.533Z</time>
      </trkpt>
      <trkpt lat="42.951" lon="-0.33599">
        <ele>1552</ele>
        <time>2021-03-03T09:20:02.533Z</time>
      </trkpt>
      <trkpt lat="42.95098" lon="-0.33597">
        <ele>1550</ele>
        <time>2021-03-03T09:20:06.525Z</time>
      </trkpt>
      <trkpt lat="42.95091" lon="-0.33586">
        <ele>1559</ele>
        <time>2021-03-03T09:20:31.533Z</time>
      </trkpt>
      <trkpt lat="42.95089" lon="-0.33587">
        <ele>1559</ele>
        <time>2021-03-03T09:20:35.523Z</time>
      </trkpt>
      <trkpt lat="42.95088" lon="-0.3359">
        <ele>1559</ele>
        <time>2021-03-03T09:20:40.528Z</time>
      </trkpt>
      <trkpt lat="42.95087" lon="-0.33592">
        <ele>1559</ele>
        <time>2021-03-03T09:20:45.529Z</time>
      </trkpt>
      <trkpt lat="42.95085" lon="-0.33595">
        <ele>1559</ele>
        <time>2021-03-03T09:20:50.530Z</time>
      </trkpt>
      <trkpt lat="42.95085" lon="-0.33598">
        <ele>1563</ele>
        <time>2021-03-03T09:20:55.524Z</time>
      </trkpt>
      <trkpt lat="42.95084" lon="-0.33601">
        <ele>1563</ele>
        <time>2021-03-03T09:21:00.524Z</time>
      </trkpt>
      <trkpt lat="42.95083" lon="-0.33604">
        <ele>1563</ele>
        <time>2021-03-03T09:21:05.528Z</time>
      </trkpt>
      <trkpt lat="42.95082" lon="-0.33607">
        <ele>1563</ele>
        <time>2021-03-03T09:21:10.528Z</time>
      </trkpt>
      <trkpt lat="42.9508" lon="-0.33608">
        <ele>1563</ele>
        <time>2021-03-03T09:21:15.531Z</time>
      </trkpt>
      <trkpt lat="42.95077" lon="-0.33605">
        <ele>1563</ele>
        <time>2021-03-03T09:21:20.527Z</time>
      </trkpt>
      <trkpt lat="42.95074" lon="-0.33602">
        <ele>1563</ele>
        <time>2021-03-03T09:21:25.526Z</time>
      </trkpt>
      <trkpt lat="42.95071" lon="-0.33599">
        <ele>1563</ele>
        <time>2021-03-03T09:21:30.526Z</time>
      </trkpt>
      <trkpt lat="42.95069" lon="-0.33596">
        <ele>1568</ele>
        <time>2021-03-03T09:21:35.529Z</time>
      </trkpt>
      <trkpt lat="42.95065" lon="-0.33586">
        <ele>1568</ele>
        <time>2021-03-03T09:21:50.697Z</time>
      </trkpt>
      <trkpt lat="42.95064" lon="-0.33584">
        <ele>1568</ele>
        <time>2021-03-03T09:21:55.527Z</time>
      </trkpt>
      <trkpt lat="42.95064" lon="-0.33583">
        <ele>1568</ele>
        <time>2021-03-03T09:22:00.526Z</time>
      </trkpt>
      <trkpt lat="42.95063" lon="-0.33582">
        <ele>1568</ele>
        <time>2021-03-03T09:22:04.527Z</time>
      </trkpt>
      <trkpt lat="42.95062" lon="-0.33578">
        <ele>1568</ele>
        <time>2021-03-03T09:22:09.522Z</time>
      </trkpt>
      <trkpt lat="42.95057" lon="-0.33574">
        <ele>1568</ele>
        <time>2021-03-03T09:22:24.523Z</time>
      </trkpt>
      <trkpt lat="42.95055" lon="-0.33576">
        <ele>1568</ele>
        <time>2021-03-03T09:22:29.529Z</time>
      </trkpt>
      <trkpt lat="42.95054" lon="-0.33578">
        <ele>1568</ele>
        <time>2021-03-03T09:22:33.803Z</time>
      </trkpt>
      <trkpt lat="42.95052" lon="-0.3358">
        <ele>1568</ele>
        <time>2021-03-03T09:22:38.524Z</time>
      </trkpt>
      <trkpt lat="42.95049" lon="-0.33583">
        <ele>1568</ele>
        <time>2021-03-03T09:22:43.528Z</time>
      </trkpt>
      <trkpt lat="42.95047" lon="-0.33583">
        <ele>1568</ele>
        <time>2021-03-03T09:22:48.525Z</time>
      </trkpt>
      <trkpt lat="42.95044" lon="-0.33581">
        <ele>1568</ele>
        <time>2021-03-03T09:22:53.530Z</time>
      </trkpt>
      <trkpt lat="42.95041" lon="-0.3358">
        <ele>1579</ele>
        <time>2021-03-03T09:22:58.733Z</time>
      </trkpt>
      <trkpt lat="42.9504" lon="-0.33577">
        <ele>1579</ele>
        <time>2021-03-03T09:23:03.523Z</time>
      </trkpt>
      <trkpt lat="42.95039" lon="-0.33576">
        <ele>1579</ele>
        <time>2021-03-03T09:23:08.528Z</time>
      </trkpt>
      <trkpt lat="42.95036" lon="-0.33576">
        <ele>1579</ele>
        <time>2021-03-03T09:23:13.525Z</time>
      </trkpt>
      <trkpt lat="42.95033" lon="-0.33577">
        <ele>1579</ele>
        <time>2021-03-03T09:23:18.527Z</time>
      </trkpt>
      <trkpt lat="42.95031" lon="-0.3358">
        <ele>1579</ele>
        <time>2021-03-03T09:23:23.528Z</time>
      </trkpt>
      <trkpt lat="42.95029" lon="-0.33583">
        <ele>1579</ele>
        <time>2021-03-03T09:23:28.700Z</time>
      </trkpt>
      <trkpt lat="42.95026" lon="-0.33586">
        <ele>1579</ele>
        <time>2021-03-03T09:23:33.526Z</time>
      </trkpt>
      <trkpt lat="42.95025" lon="-0.33591">
        <ele>1579</ele>
        <time>2021-03-03T09:23:38.527Z</time>
      </trkpt>
      <trkpt lat="42.95023" lon="-0.33595">
        <ele>1579</ele>
        <time>2021-03-03T09:23:43.688Z</time>
      </trkpt>
      <trkpt lat="42.95021" lon="-0.33598">
        <ele>1582</ele>
        <time>2021-03-03T09:23:48.524Z</time>
      </trkpt>
      <trkpt lat="42.95019" lon="-0.336">
        <ele>1582</ele>
        <time>2021-03-03T09:23:53.528Z</time>
      </trkpt>
      <trkpt lat="42.95016" lon="-0.33601">
        <ele>1582</ele>
        <time>2021-03-03T09:23:58.822Z</time>
      </trkpt>
      <trkpt lat="42.95014" lon="-0.33602">
        <ele>1582</ele>
        <time>2021-03-03T09:24:03.529Z</time>
      </trkpt>
      <trkpt lat="42.95011" lon="-0.33604">
        <ele>1584</ele>
        <time>2021-03-03T09:24:08.529Z</time>
      </trkpt>
      <trkpt lat="42.95009" lon="-0.33604">
        <ele>1584</ele>
        <time>2021-03-03T09:24:13.524Z</time>
      </trkpt>
      <trkpt lat="42.95007" lon="-0.33606">
        <ele>1584</ele>
        <time>2021-03-03T09:24:17.523Z</time>
      </trkpt>
      <trkpt lat="42.95005" lon="-0.33608">
        <ele>1584</ele>
        <time>2021-03-03T09:24:22.526Z</time>
      </trkpt>
      <trkpt lat="42.95002" lon="-0.33608">
        <ele>1584</ele>
        <time>2021-03-03T09:24:27.529Z</time>
      </trkpt>
      <trkpt lat="42.94999" lon="-0.33608">
        <ele>1584</ele>
        <time>2021-03-03T09:24:32.528Z</time>
      </trkpt>
      <trkpt lat="42.94997" lon="-0.33607">
        <ele>1584</ele>
        <time>2021-03-03T09:24:37.523Z</time>
      </trkpt>
      <trkpt lat="42.94993" lon="-0.33607">
        <ele>1584</ele>
        <time>2021-03-03T09:24:42.528Z</time>
      </trkpt>
      <trkpt lat="42.9499" lon="-0.33606">
        <ele>1584</ele>
        <time>2021-03-03T09:24:47.524Z</time>
      </trkpt>
      <trkpt lat="42.94987" lon="-0.33606">
        <ele>1584</ele>
        <time>2021-03-03T09:24:52.527Z</time>
      </trkpt>
      <trkpt lat="42.94985" lon="-0.33609">
        <ele>1592</ele>
        <time>2021-03-03T09:24:57.532Z</time>
      </trkpt>
      <trkpt lat="42.94984" lon="-0.33612">
        <ele>1592</ele>
        <time>2021-03-03T09:25:01.534Z</time>
      </trkpt>
      <trkpt lat="42.94984" lon="-0.33616">
        <ele>1592</ele>
        <time>2021-03-03T09:25:05.810Z</time>
      </trkpt>
      <trkpt lat="42.94984" lon="-0.33621">
        <ele>1592</ele>
        <time>2021-03-03T09:25:10.524Z</time>
      </trkpt>
      <trkpt lat="42.94985" lon="-0.33624">
        <ele>1592</ele>
        <time>2021-03-03T09:25:14.848Z</time>
      </trkpt>
      <trkpt lat="42.94987" lon="-0.3363">
        <ele>1588</ele>
        <time>2021-03-03T09:25:19.523Z</time>
      </trkpt>
      <trkpt lat="42.9499" lon="-0.33635">
        <ele>1588</ele>
        <time>2021-03-03T09:25:24.549Z</time>
      </trkpt>
      <trkpt lat="42.94992" lon="-0.33639">
        <ele>1588</ele>
        <time>2021-03-03T09:25:29.690Z</time>
      </trkpt>
      <trkpt lat="42.94993" lon="-0.33644">
        <ele>1588</ele>
        <time>2021-03-03T09:25:34.523Z</time>
      </trkpt>
      <trkpt lat="42.94994" lon="-0.33647">
        <ele>1588</ele>
        <time>2021-03-03T09:25:39.527Z</time>
      </trkpt>
      <trkpt lat="42.94994" lon="-0.33652">
        <ele>1588</ele>
        <time>2021-03-03T09:25:44.850Z</time>
      </trkpt>
      <trkpt lat="42.94994" lon="-0.33656">
        <ele>1593</ele>
        <time>2021-03-03T09:25:49.527Z</time>
      </trkpt>
      <trkpt lat="42.94996" lon="-0.3366">
        <ele>1593</ele>
        <time>2021-03-03T09:25:54.530Z</time>
      </trkpt>
      <trkpt lat="42.94997" lon="-0.33662">
        <ele>1593</ele>
        <time>2021-03-03T09:25:59.530Z</time>
      </trkpt>
      <trkpt lat="42.94997" lon="-0.33665">
        <ele>1593</ele>
        <time>2021-03-03T09:26:03.526Z</time>
      </trkpt>
      <trkpt lat="42.94998" lon="-0.33669">
        <ele>1593</ele>
        <time>2021-03-03T09:26:08.527Z</time>
      </trkpt>
      <trkpt lat="42.95" lon="-0.33672">
        <ele>1593</ele>
        <time>2021-03-03T09:26:12.785Z</time>
      </trkpt>
      <trkpt lat="42.95001" lon="-0.33676">
        <ele>1593</ele>
        <time>2021-03-03T09:26:17.528Z</time>
      </trkpt>
      <trkpt lat="42.95001" lon="-0.3368">
        <ele>1593</ele>
        <time>2021-03-03T09:26:22.532Z</time>
      </trkpt>
      <trkpt lat="42.95001" lon="-0.33684">
        <ele>1598</ele>
        <time>2021-03-03T09:26:27.532Z</time>
      </trkpt>
      <trkpt lat="42.95002" lon="-0.33686">
        <ele>1598</ele>
        <time>2021-03-03T09:26:32.531Z</time>
      </trkpt>
      <trkpt lat="42.95002" lon="-0.3369">
        <ele>1598</ele>
        <time>2021-03-03T09:26:37.527Z</time>
      </trkpt>
      <trkpt lat="42.95002" lon="-0.33693">
        <ele>1598</ele>
        <time>2021-03-03T09:26:41.528Z</time>
      </trkpt>
      <trkpt lat="42.95002" lon="-0.33698">
        <ele>1598</ele>
        <time>2021-03-03T09:26:46.530Z</time>
      </trkpt>
      <trkpt lat="42.95002" lon="-0.33701">
        <ele>1598</ele>
        <time>2021-03-03T09:26:51.526Z</time>
      </trkpt>
      <trkpt lat="42.95001" lon="-0.33705">
        <ele>1598</ele>
        <time>2021-03-03T09:26:56.529Z</time>
      </trkpt>
      <trkpt lat="42.94998" lon="-0.33707">
        <ele>1598</ele>
        <time>2021-03-03T09:27:01.530Z</time>
      </trkpt>
      <trkpt lat="42.94996" lon="-0.33706">
        <ele>1598</ele>
        <time>2021-03-03T09:27:05.530Z</time>
      </trkpt>
      <trkpt lat="42.94994" lon="-0.33707">
        <ele>1598</ele>
        <time>2021-03-03T09:27:10.530Z</time>
      </trkpt>
      <trkpt lat="42.94991" lon="-0.33707">
        <ele>1598</ele>
        <time>2021-03-03T09:27:15.527Z</time>
      </trkpt>
      <trkpt lat="42.94988" lon="-0.33706">
        <ele>1598</ele>
        <time>2021-03-03T09:27:20.524Z</time>
      </trkpt>
      <trkpt lat="42.94986" lon="-0.33707">
        <ele>1605</ele>
        <time>2021-03-03T09:27:25.531Z</time>
      </trkpt>
      <trkpt lat="42.94983" lon="-0.33707">
        <ele>1605</ele>
        <time>2021-03-03T09:27:30.527Z</time>
      </trkpt>
      <trkpt lat="42.9498" lon="-0.3371">
        <ele>1608</ele>
        <time>2021-03-03T09:27:35.529Z</time>
      </trkpt>
      <trkpt lat="42.94978" lon="-0.33713">
        <ele>1608</ele>
        <time>2021-03-03T09:27:40.549Z</time>
      </trkpt>
      <trkpt lat="42.94976" lon="-0.33716">
        <ele>1608</ele>
        <time>2021-03-03T09:27:45.529Z</time>
      </trkpt>
      <trkpt lat="42.94974" lon="-0.33718">
        <ele>1608</ele>
        <time>2021-03-03T09:27:50.529Z</time>
      </trkpt>
      <trkpt lat="42.94972" lon="-0.3372">
        <ele>1608</ele>
        <time>2021-03-03T09:27:55.533Z</time>
      </trkpt>
      <trkpt lat="42.94969" lon="-0.33722">
        <ele>1608</ele>
        <time>2021-03-03T09:28:00.538Z</time>
      </trkpt>
      <trkpt lat="42.94968" lon="-0.33726">
        <ele>1608</ele>
        <time>2021-03-03T09:28:05.528Z</time>
      </trkpt>
      <trkpt lat="42.94966" lon="-0.3373">
        <ele>1608</ele>
        <time>2021-03-03T09:28:10.528Z</time>
      </trkpt>
      <trkpt lat="42.94964" lon="-0.33732">
        <ele>1608</ele>
        <time>2021-03-03T09:28:14.552Z</time>
      </trkpt>
      <trkpt lat="42.94961" lon="-0.33736">
        <ele>1611</ele>
        <time>2021-03-03T09:28:19.530Z</time>
      </trkpt>
      <trkpt lat="42.94959" lon="-0.33741">
        <ele>1611</ele>
        <time>2021-03-03T09:28:24.530Z</time>
      </trkpt>
      <trkpt lat="42.94957" lon="-0.33744">
        <ele>1615</ele>
        <time>2021-03-03T09:28:29.529Z</time>
      </trkpt>
      <trkpt lat="42.94954" lon="-0.33748">
        <ele>1615</ele>
        <time>2021-03-03T09:28:34.527Z</time>
      </trkpt>
      <trkpt lat="42.94952" lon="-0.33751">
        <ele>1615</ele>
        <time>2021-03-03T09:28:39.527Z</time>
      </trkpt>
      <trkpt lat="42.94951" lon="-0.33754">
        <ele>1615</ele>
        <time>2021-03-03T09:28:44.529Z</time>
      </trkpt>
      <trkpt lat="42.94947" lon="-0.33758">
        <ele>1615</ele>
        <time>2021-03-03T09:28:49.530Z</time>
      </trkpt>
      <trkpt lat="42.94945" lon="-0.33762">
        <ele>1615</ele>
        <time>2021-03-03T09:28:54.533Z</time>
      </trkpt>
      <trkpt lat="42.94942" lon="-0.33766">
        <ele>1614</ele>
        <time>2021-03-03T09:28:59.531Z</time>
      </trkpt>
      <trkpt lat="42.94943" lon="-0.3377">
        <ele>1614</ele>
        <time>2021-03-03T09:29:04.527Z</time>
      </trkpt>
      <trkpt lat="42.94941" lon="-0.33775">
        <ele>1614</ele>
        <time>2021-03-03T09:29:09.528Z</time>
      </trkpt>
      <trkpt lat="42.94937" lon="-0.33778">
        <ele>1614</ele>
        <time>2021-03-03T09:29:14.526Z</time>
      </trkpt>
      <trkpt lat="42.94934" lon="-0.33781">
        <ele>1614</ele>
        <time>2021-03-03T09:29:18.559Z</time>
      </trkpt>
      <trkpt lat="42.94931" lon="-0.33783">
        <ele>1614</ele>
        <time>2021-03-03T09:29:23.529Z</time>
      </trkpt>
      <trkpt lat="42.94929" lon="-0.33785">
        <ele>1618</ele>
        <time>2021-03-03T09:29:28.528Z</time>
      </trkpt>
      <trkpt lat="42.94926" lon="-0.33786">
        <ele>1618</ele>
        <time>2021-03-03T09:29:33.530Z</time>
      </trkpt>
      <trkpt lat="42.94923" lon="-0.33789">
        <ele>1618</ele>
        <time>2021-03-03T09:29:38.531Z</time>
      </trkpt>
      <trkpt lat="42.9492" lon="-0.33791">
        <ele>1618</ele>
        <time>2021-03-03T09:29:42.528Z</time>
      </trkpt>
      <trkpt lat="42.94916" lon="-0.33794">
        <ele>1614</ele>
        <time>2021-03-03T09:29:47.525Z</time>
      </trkpt>
      <trkpt lat="42.94912" lon="-0.33799">
        <ele>1614</ele>
        <time>2021-03-03T09:29:52.528Z</time>
      </trkpt>
      <trkpt lat="42.94908" lon="-0.33801">
        <ele>1614</ele>
        <time>2021-03-03T09:29:57.528Z</time>
      </trkpt>
      <trkpt lat="42.94904" lon="-0.33805">
        <ele>1614</ele>
        <time>2021-03-03T09:30:02.529Z</time>
      </trkpt>
      <trkpt lat="42.94901" lon="-0.33808">
        <ele>1621</ele>
        <time>2021-03-03T09:30:07.528Z</time>
      </trkpt>
      <trkpt lat="42.94899" lon="-0.33809">
        <ele>1621</ele>
        <time>2021-03-03T09:30:11.526Z</time>
      </trkpt>
      <trkpt lat="42.94896" lon="-0.3381">
        <ele>1621</ele>
        <time>2021-03-03T09:30:16.528Z</time>
      </trkpt>
      <trkpt lat="42.94892" lon="-0.33811">
        <ele>1621</ele>
        <time>2021-03-03T09:30:21.526Z</time>
      </trkpt>
      <trkpt lat="42.94889" lon="-0.33812">
        <ele>1621</ele>
        <time>2021-03-03T09:30:26.529Z</time>
      </trkpt>
      <trkpt lat="42.94886" lon="-0.33812">
        <ele>1621</ele>
        <time>2021-03-03T09:30:31.722Z</time>
      </trkpt>
      <trkpt lat="42.94883" lon="-0.33811">
        <ele>1621</ele>
        <time>2021-03-03T09:30:36.526Z</time>
      </trkpt>
      <trkpt lat="42.94881" lon="-0.33811">
        <ele>1621</ele>
        <time>2021-03-03T09:30:41.530Z</time>
      </trkpt>
      <trkpt lat="42.94879" lon="-0.33813">
        <ele>1621</ele>
        <time>2021-03-03T09:30:46.524Z</time>
      </trkpt>
      <trkpt lat="42.94877" lon="-0.33813">
        <ele>1621</ele>
        <time>2021-03-03T09:30:51.527Z</time>
      </trkpt>
      <trkpt lat="42.94874" lon="-0.33813">
        <ele>1629</ele>
        <time>2021-03-03T09:30:56.527Z</time>
      </trkpt>
      <trkpt lat="42.94871" lon="-0.33817">
        <ele>1629</ele>
        <time>2021-03-03T09:31:01.525Z</time>
      </trkpt>
      <trkpt lat="42.94868" lon="-0.33818">
        <ele>1629</ele>
        <time>2021-03-03T09:31:06.526Z</time>
      </trkpt>
      <trkpt lat="42.94865" lon="-0.33819">
        <ele>1629</ele>
        <time>2021-03-03T09:31:11.533Z</time>
      </trkpt>
      <trkpt lat="42.94863" lon="-0.33822">
        <ele>1626</ele>
        <time>2021-03-03T09:31:16.525Z</time>
      </trkpt>
      <trkpt lat="42.94861" lon="-0.33825">
        <ele>1626</ele>
        <time>2021-03-03T09:31:21.524Z</time>
      </trkpt>
      <trkpt lat="42.9486" lon="-0.33827">
        <ele>1626</ele>
        <time>2021-03-03T09:31:26.526Z</time>
      </trkpt>
      <trkpt lat="42.94858" lon="-0.33829">
        <ele>1626</ele>
        <time>2021-03-03T09:31:31.531Z</time>
      </trkpt>
      <trkpt lat="42.94856" lon="-0.33829">
        <ele>1626</ele>
        <time>2021-03-03T09:31:35.689Z</time>
      </trkpt>
      <trkpt lat="42.94854" lon="-0.33831">
        <ele>1626</ele>
        <time>2021-03-03T09:31:40.525Z</time>
      </trkpt>
      <trkpt lat="42.94851" lon="-0.33834">
        <ele>1626</ele>
        <time>2021-03-03T09:31:45.555Z</time>
      </trkpt>
      <trkpt lat="42.94848" lon="-0.33835">
        <ele>1626</ele>
        <time>2021-03-03T09:31:50.827Z</time>
      </trkpt>
      <trkpt lat="42.94844" lon="-0.33835">
        <ele>1632</ele>
        <time>2021-03-03T09:31:55.526Z</time>
      </trkpt>
      <trkpt lat="42.94841" lon="-0.33833">
        <ele>1632</ele>
        <time>2021-03-03T09:32:00.522Z</time>
      </trkpt>
      <trkpt lat="42.94839" lon="-0.3383">
        <ele>1632</ele>
        <time>2021-03-03T09:32:05.526Z</time>
      </trkpt>
      <trkpt lat="42.94838" lon="-0.33828">
        <ele>1632</ele>
        <time>2021-03-03T09:32:09.801Z</time>
      </trkpt>
      <trkpt lat="42.94836" lon="-0.33825">
        <ele>1632</ele>
        <time>2021-03-03T09:32:14.528Z</time>
      </trkpt>
      <trkpt lat="42.94834" lon="-0.33824">
        <ele>1632</ele>
        <time>2021-03-03T09:32:19.527Z</time>
      </trkpt>
      <trkpt lat="42.94832" lon="-0.33822">
        <ele>1632</ele>
        <time>2021-03-03T09:32:24.523Z</time>
      </trkpt>
      <trkpt lat="42.94831" lon="-0.33822">
        <ele>1632</ele>
        <time>2021-03-03T09:32:29.529Z</time>
      </trkpt>
      <trkpt lat="42.94828" lon="-0.33821">
        <ele>1632</ele>
        <time>2021-03-03T09:32:33.748Z</time>
      </trkpt>
      <trkpt lat="42.94825" lon="-0.33822">
        <ele>1632</ele>
        <time>2021-03-03T09:32:38.522Z</time>
      </trkpt>
      <trkpt lat="42.94823" lon="-0.33825">
        <ele>1632</ele>
        <time>2021-03-03T09:32:43.525Z</time>
      </trkpt>
      <trkpt lat="42.9482" lon="-0.33827">
        <ele>1632</ele>
        <time>2021-03-03T09:32:48.527Z</time>
      </trkpt>
      <trkpt lat="42.94818" lon="-0.33829">
        <ele>1637</ele>
        <time>2021-03-03T09:32:53.525Z</time>
      </trkpt>
      <trkpt lat="42.94815" lon="-0.33832">
        <ele>1637</ele>
        <time>2021-03-03T09:32:58.527Z</time>
      </trkpt>
      <trkpt lat="42.94814" lon="-0.33835">
        <ele>1637</ele>
        <time>2021-03-03T09:33:03.528Z</time>
      </trkpt>
      <trkpt lat="42.94812" lon="-0.33839">
        <ele>1637</ele>
        <time>2021-03-03T09:33:08.530Z</time>
      </trkpt>
      <trkpt lat="42.9481" lon="-0.33844">
        <ele>1637</ele>
        <time>2021-03-03T09:33:18.697Z</time>
      </trkpt>
      <trkpt lat="42.9481" lon="-0.33847">
        <ele>1638</ele>
        <time>2021-03-03T09:33:23.527Z</time>
      </trkpt>
      <trkpt lat="42.94808" lon="-0.33849">
        <ele>1638</ele>
        <time>2021-03-03T09:33:28.527Z</time>
      </trkpt>
      <trkpt lat="42.94806" lon="-0.3385">
        <ele>1638</ele>
        <time>2021-03-03T09:33:33.527Z</time>
      </trkpt>
      <trkpt lat="42.94804" lon="-0.3385">
        <ele>1638</ele>
        <time>2021-03-03T09:33:37.553Z</time>
      </trkpt>
      <trkpt lat="42.94802" lon="-0.33848">
        <ele>1638</ele>
        <time>2021-03-03T09:33:42.527Z</time>
      </trkpt>
      <trkpt lat="42.94799" lon="-0.33846">
        <ele>1637</ele>
        <time>2021-03-03T09:33:47.528Z</time>
      </trkpt>
      <trkpt lat="42.94796" lon="-0.33843">
        <ele>1637</ele>
        <time>2021-03-03T09:33:52.527Z</time>
      </trkpt>
      <trkpt lat="42.94793" lon="-0.33841">
        <ele>1637</ele>
        <time>2021-03-03T09:33:57.527Z</time>
      </trkpt>
      <trkpt lat="42.9479" lon="-0.3384">
        <ele>1648</ele>
        <time>2021-03-03T09:34:02.527Z</time>
      </trkpt>
      <trkpt lat="42.94788" lon="-0.3384">
        <ele>1648</ele>
        <time>2021-03-03T09:34:06.556Z</time>
      </trkpt>
      <trkpt lat="42.94786" lon="-0.33839">
        <ele>1648</ele>
        <time>2021-03-03T09:34:11.528Z</time>
      </trkpt>
      <trkpt lat="42.94783" lon="-0.33839">
        <ele>1648</ele>
        <time>2021-03-03T09:34:16.533Z</time>
      </trkpt>
      <trkpt lat="42.9478" lon="-0.33839">
        <ele>1648</ele>
        <time>2021-03-03T09:34:21.530Z</time>
      </trkpt>
      <trkpt lat="42.94777" lon="-0.33841">
        <ele>1648</ele>
        <time>2021-03-03T09:34:26.530Z</time>
      </trkpt>
      <trkpt lat="42.94776" lon="-0.33842">
        <ele>1648</ele>
        <time>2021-03-03T09:34:30.551Z</time>
      </trkpt>
      <trkpt lat="42.94774" lon="-0.33845">
        <ele>1648</ele>
        <time>2021-03-03T09:34:35.528Z</time>
      </trkpt>
      <trkpt lat="42.94772" lon="-0.33848">
        <ele>1646</ele>
        <time>2021-03-03T09:34:40.527Z</time>
      </trkpt>
      <trkpt lat="42.9477" lon="-0.3385">
        <ele>1646</ele>
        <time>2021-03-03T09:34:45.529Z</time>
      </trkpt>
      <trkpt lat="42.94768" lon="-0.33853">
        <ele>1646</ele>
        <time>2021-03-03T09:34:50.529Z</time>
      </trkpt>
      <trkpt lat="42.94766" lon="-0.33856">
        <ele>1646</ele>
        <time>2021-03-03T09:34:55.531Z</time>
      </trkpt>
      <trkpt lat="42.94764" lon="-0.33858">
        <ele>1646</ele>
        <time>2021-03-03T09:35:00.531Z</time>
      </trkpt>
      <trkpt lat="42.94762" lon="-0.33859">
        <ele>1654</ele>
        <time>2021-03-03T09:35:05.526Z</time>
      </trkpt>
      <trkpt lat="42.94759" lon="-0.33861">
        <ele>1654</ele>
        <time>2021-03-03T09:35:10.528Z</time>
      </trkpt>
      <trkpt lat="42.94757" lon="-0.33864">
        <ele>1654</ele>
        <time>2021-03-03T09:35:15.529Z</time>
      </trkpt>
      <trkpt lat="42.94753" lon="-0.33864">
        <ele>1654</ele>
        <time>2021-03-03T09:35:20.526Z</time>
      </trkpt>
      <trkpt lat="42.9475" lon="-0.33864">
        <ele>1654</ele>
        <time>2021-03-03T09:35:25.529Z</time>
      </trkpt>
      <trkpt lat="42.94747" lon="-0.33863">
        <ele>1654</ele>
        <time>2021-03-03T09:35:30.531Z</time>
      </trkpt>
      <trkpt lat="42.94744" lon="-0.33865">
        <ele>1654</ele>
        <time>2021-03-03T09:35:39.527Z</time>
      </trkpt>
      <trkpt lat="42.94742" lon="-0.33867">
        <ele>1654</ele>
        <time>2021-03-03T09:35:44.530Z</time>
      </trkpt>
      <trkpt lat="42.9474" lon="-0.33869">
        <ele>1654</ele>
        <time>2021-03-03T09:35:49.528Z</time>
      </trkpt>
      <trkpt lat="42.94738" lon="-0.3387">
        <ele>1654</ele>
        <time>2021-03-03T09:35:54.529Z</time>
      </trkpt>
      <trkpt lat="42.94735" lon="-0.33868">
        <ele>1665</ele>
        <time>2021-03-03T09:35:59.528Z</time>
      </trkpt>
      <trkpt lat="42.94732" lon="-0.33868">
        <ele>1665</ele>
        <time>2021-03-03T09:36:04.529Z</time>
      </trkpt>
      <trkpt lat="42.94729" lon="-0.33866">
        <ele>1665</ele>
        <time>2021-03-03T09:36:09.527Z</time>
      </trkpt>
      <trkpt lat="42.94727" lon="-0.33863">
        <ele>1665</ele>
        <time>2021-03-03T09:36:14.560Z</time>
      </trkpt>
      <trkpt lat="42.94725" lon="-0.3386">
        <ele>1665</ele>
        <time>2021-03-03T09:36:19.531Z</time>
      </trkpt>
      <trkpt lat="42.94724" lon="-0.33855">
        <ele>1665</ele>
        <time>2021-03-03T09:36:24.530Z</time>
      </trkpt>
      <trkpt lat="42.94723" lon="-0.33851">
        <ele>1665</ele>
        <time>2021-03-03T09:36:29.530Z</time>
      </trkpt>
      <trkpt lat="42.94722" lon="-0.33848">
        <ele>1665</ele>
        <time>2021-03-03T09:36:34.528Z</time>
      </trkpt>
      <trkpt lat="42.94722" lon="-0.33845">
        <ele>1669</ele>
        <time>2021-03-03T09:36:39.531Z</time>
      </trkpt>
      <trkpt lat="42.9472" lon="-0.33842">
        <ele>1669</ele>
        <time>2021-03-03T09:36:44.532Z</time>
      </trkpt>
      <trkpt lat="42.9472" lon="-0.33839">
        <ele>1669</ele>
        <time>2021-03-03T09:36:49.532Z</time>
      </trkpt>
      <trkpt lat="42.9472" lon="-0.33833">
        <ele>1669</ele>
        <time>2021-03-03T09:36:59.532Z</time>
      </trkpt>
      <trkpt lat="42.94719" lon="-0.33832">
        <ele>1669</ele>
        <time>2021-03-03T09:37:04.526Z</time>
      </trkpt>
      <trkpt lat="42.94719" lon="-0.33831">
        <ele>1669</ele>
        <time>2021-03-03T09:37:09.733Z</time>
      </trkpt>
      <trkpt lat="42.94717" lon="-0.33827">
        <ele>1669</ele>
        <time>2021-03-03T09:37:14.527Z</time>
      </trkpt>
      <trkpt lat="42.94715" lon="-0.33823">
        <ele>1669</ele>
        <time>2021-03-03T09:37:19.550Z</time>
      </trkpt>
      <trkpt lat="42.94708" lon="-0.33816">
        <ele>1684</ele>
        <time>2021-03-03T09:38:16.527Z</time>
      </trkpt>
      <trkpt lat="42.94707" lon="-0.33819">
        <ele>1684</ele>
        <time>2021-03-03T09:38:21.528Z</time>
      </trkpt>
      <trkpt lat="42.94705" lon="-0.33823">
        <ele>1682</ele>
        <time>2021-03-03T09:38:26.531Z</time>
      </trkpt>
      <trkpt lat="42.94704" lon="-0.33828">
        <ele>1682</ele>
        <time>2021-03-03T09:38:31.525Z</time>
      </trkpt>
      <trkpt lat="42.94701" lon="-0.33831">
        <ele>1682</ele>
        <time>2021-03-03T09:38:35.559Z</time>
      </trkpt>
      <trkpt lat="42.94699" lon="-0.33833">
        <ele>1682</ele>
        <time>2021-03-03T09:38:40.532Z</time>
      </trkpt>
      <trkpt lat="42.94697" lon="-0.33836">
        <ele>1682</ele>
        <time>2021-03-03T09:38:45.816Z</time>
      </trkpt>
      <trkpt lat="42.94696" lon="-0.33839">
        <ele>1682</ele>
        <time>2021-03-03T09:38:50.527Z</time>
      </trkpt>
      <trkpt lat="42.94695" lon="-0.33841">
        <ele>1682</ele>
        <time>2021-03-03T09:38:55.530Z</time>
      </trkpt>
      <trkpt lat="42.94693" lon="-0.33843">
        <ele>1682</ele>
        <time>2021-03-03T09:39:00.528Z</time>
      </trkpt>
      <trkpt lat="42.94691" lon="-0.33844">
        <ele>1682</ele>
        <time>2021-03-03T09:39:04.694Z</time>
      </trkpt>
      <trkpt lat="42.9469" lon="-0.33848">
        <ele>1680</ele>
        <time>2021-03-03T09:39:09.529Z</time>
      </trkpt>
      <trkpt lat="42.94688" lon="-0.3385">
        <ele>1680</ele>
        <time>2021-03-03T09:39:14.533Z</time>
      </trkpt>
      <trkpt lat="42.94686" lon="-0.33853">
        <ele>1680</ele>
        <time>2021-03-03T09:39:19.525Z</time>
      </trkpt>
      <trkpt lat="42.94684" lon="-0.33855">
        <ele>1680</ele>
        <time>2021-03-03T09:39:23.812Z</time>
      </trkpt>
      <trkpt lat="42.94681" lon="-0.33858">
        <ele>1680</ele>
        <time>2021-03-03T09:39:43.532Z</time>
      </trkpt>
      <trkpt lat="42.9468" lon="-0.33853">
        <ele>1693</ele>
        <time>2021-03-03T09:39:48.527Z</time>
      </trkpt>
      <trkpt lat="42.94679" lon="-0.33849">
        <ele>1693</ele>
        <time>2021-03-03T09:39:53.528Z</time>
      </trkpt>
      <trkpt lat="42.94677" lon="-0.33846">
        <ele>1695</ele>
        <time>2021-03-03T09:39:58.760Z</time>
      </trkpt>
      <trkpt lat="42.94674" lon="-0.33847">
        <ele>1693</ele>
        <time>2021-03-03T09:40:03.534Z</time>
      </trkpt>
      <trkpt lat="42.94673" lon="-0.3385">
        <ele>1693</ele>
        <time>2021-03-03T09:40:07.715Z</time>
      </trkpt>
      <trkpt lat="42.94671" lon="-0.33854">
        <ele>1693</ele>
        <time>2021-03-03T09:40:12.526Z</time>
      </trkpt>
      <trkpt lat="42.94669" lon="-0.33857">
        <ele>1693</ele>
        <time>2021-03-03T09:40:17.529Z</time>
      </trkpt>
      <trkpt lat="42.94666" lon="-0.33861">
        <ele>1693</ele>
        <time>2021-03-03T09:40:22.530Z</time>
      </trkpt>
      <trkpt lat="42.94664" lon="-0.33863">
        <ele>1693</ele>
        <time>2021-03-03T09:40:27.526Z</time>
      </trkpt>
      <trkpt lat="42.94662" lon="-0.33867">
        <ele>1693</ele>
        <time>2021-03-03T09:40:32.526Z</time>
      </trkpt>
      <trkpt lat="42.9466" lon="-0.3387">
        <ele>1693</ele>
        <time>2021-03-03T09:40:37.526Z</time>
      </trkpt>
      <trkpt lat="42.94658" lon="-0.33871">
        <ele>1693</ele>
        <time>2021-03-03T09:40:42.526Z</time>
      </trkpt>
      <trkpt lat="42.94656" lon="-0.33873">
        <ele>1693</ele>
        <time>2021-03-03T09:40:47.528Z</time>
      </trkpt>
      <trkpt lat="42.94652" lon="-0.33877">
        <ele>1698</ele>
        <time>2021-03-03T09:40:56.532Z</time>
      </trkpt>
      <trkpt lat="42.94652" lon="-0.33877">
        <ele>1698</ele>
        <time>2021-03-03T09:41:00.756Z</time>
      </trkpt>
      <trkpt lat="42.9465" lon="-0.33877">
        <ele>1698</ele>
        <time>2021-03-03T09:41:05.531Z</time>
      </trkpt>
      <trkpt lat="42.94647" lon="-0.33877">
        <ele>1698</ele>
        <time>2021-03-03T09:41:10.531Z</time>
      </trkpt>
      <trkpt lat="42.94645" lon="-0.33877">
        <ele>1698</ele>
        <time>2021-03-03T09:41:15.527Z</time>
      </trkpt>
      <trkpt lat="42.94643" lon="-0.33879">
        <ele>1698</ele>
        <time>2021-03-03T09:41:20.794Z</time>
      </trkpt>
      <trkpt lat="42.94639" lon="-0.3388">
        <ele>1698</ele>
        <time>2021-03-03T09:41:25.530Z</time>
      </trkpt>
      <trkpt lat="42.94637" lon="-0.3388">
        <ele>1698</ele>
        <time>2021-03-03T09:41:30.527Z</time>
      </trkpt>
      <trkpt lat="42.94634" lon="-0.33882">
        <ele>1698</ele>
        <time>2021-03-03T09:41:35.731Z</time>
      </trkpt>
      <trkpt lat="42.94631" lon="-0.33884">
        <ele>1698</ele>
        <time>2021-03-03T09:41:40.533Z</time>
      </trkpt>
      <trkpt lat="42.94624" lon="-0.33887">
        <ele>1710</ele>
        <time>2021-03-03T09:41:50.525Z</time>
      </trkpt>
      <trkpt lat="42.94623" lon="-0.33887">
        <ele>1710</ele>
        <time>2021-03-03T09:41:55.532Z</time>
      </trkpt>
      <trkpt lat="42.94621" lon="-0.33887">
        <ele>1710</ele>
        <time>2021-03-03T09:42:00.527Z</time>
      </trkpt>
      <trkpt lat="42.94619" lon="-0.33887">
        <ele>1710</ele>
        <time>2021-03-03T09:42:05.523Z</time>
      </trkpt>
      <trkpt lat="42.94616" lon="-0.33888">
        <ele>1710</ele>
        <time>2021-03-03T09:42:09.736Z</time>
      </trkpt>
      <trkpt lat="42.94612" lon="-0.3389">
        <ele>1710</ele>
        <time>2021-03-03T09:42:14.527Z</time>
      </trkpt>
      <trkpt lat="42.94607" lon="-0.33892">
        <ele>1710</ele>
        <time>2021-03-03T09:42:19.531Z</time>
      </trkpt>
      <trkpt lat="42.94604" lon="-0.33893">
        <ele>1710</ele>
        <time>2021-03-03T09:42:24.531Z</time>
      </trkpt>
      <trkpt lat="42.94602" lon="-0.33893">
        <ele>1710</ele>
        <time>2021-03-03T09:42:28.558Z</time>
      </trkpt>
      <trkpt lat="42.94599" lon="-0.33895">
        <ele>1710</ele>
        <time>2021-03-03T09:42:43.526Z</time>
      </trkpt>
      <trkpt lat="42.94597" lon="-0.33897">
        <ele>1710</ele>
        <time>2021-03-03T09:42:48.621Z</time>
      </trkpt>
      <trkpt lat="42.94595" lon="-0.339">
        <ele>1720</ele>
        <time>2021-03-03T09:42:53.531Z</time>
      </trkpt>
      <trkpt lat="42.94593" lon="-0.33903">
        <ele>1715</ele>
        <time>2021-03-03T09:42:58.524Z</time>
      </trkpt>
      <trkpt lat="42.9459" lon="-0.33903">
        <ele>1715</ele>
        <time>2021-03-03T09:43:03.524Z</time>
      </trkpt>
      <trkpt lat="42.94587" lon="-0.33905">
        <ele>1715</ele>
        <time>2021-03-03T09:43:08.526Z</time>
      </trkpt>
      <trkpt lat="42.94585" lon="-0.33908">
        <ele>1715</ele>
        <time>2021-03-03T09:43:13.527Z</time>
      </trkpt>
      <trkpt lat="42.94582" lon="-0.33909">
        <ele>1715</ele>
        <time>2021-03-03T09:43:18.526Z</time>
      </trkpt>
      <trkpt lat="42.9458" lon="-0.3391">
        <ele>1715</ele>
        <time>2021-03-03T09:43:23.531Z</time>
      </trkpt>
      <trkpt lat="42.94578" lon="-0.33914">
        <ele>1715</ele>
        <time>2021-03-03T09:43:28.526Z</time>
      </trkpt>
      <trkpt lat="42.94576" lon="-0.33915">
        <ele>1715</ele>
        <time>2021-03-03T09:43:33.531Z</time>
      </trkpt>
      <trkpt lat="42.94574" lon="-0.33912">
        <ele>1715</ele>
        <time>2021-03-03T09:43:37.823Z</time>
      </trkpt>
      <trkpt lat="42.9457" lon="-0.3391">
        <ele>1715</ele>
        <time>2021-03-03T09:43:42.526Z</time>
      </trkpt>
      <trkpt lat="42.94568" lon="-0.33909">
        <ele>1721</ele>
        <time>2021-03-03T09:43:46.526Z</time>
      </trkpt>
      <trkpt lat="42.94564" lon="-0.33906">
        <ele>1721</ele>
        <time>2021-03-03T09:43:51.533Z</time>
      </trkpt>
      <trkpt lat="42.94562" lon="-0.33905">
        <ele>1721</ele>
        <time>2021-03-03T09:43:56.526Z</time>
      </trkpt>
      <trkpt lat="42.9456" lon="-0.33904">
        <ele>1721</ele>
        <time>2021-03-03T09:44:01.524Z</time>
      </trkpt>
      <trkpt lat="42.94556" lon="-0.33904">
        <ele>1721</ele>
        <time>2021-03-03T09:44:06.557Z</time>
      </trkpt>
      <trkpt lat="42.94554" lon="-0.33907">
        <ele>1721</ele>
        <time>2021-03-03T09:44:11.529Z</time>
      </trkpt>
      <trkpt lat="42.94552" lon="-0.3391">
        <ele>1721</ele>
        <time>2021-03-03T09:44:16.529Z</time>
      </trkpt>
      <trkpt lat="42.9455" lon="-0.33911">
        <ele>1721</ele>
        <time>2021-03-03T09:44:21.532Z</time>
      </trkpt>
      <trkpt lat="42.94548" lon="-0.33907">
        <ele>1721</ele>
        <time>2021-03-03T09:44:26.784Z</time>
      </trkpt>
      <trkpt lat="42.94546" lon="-0.33904">
        <ele>1721</ele>
        <time>2021-03-03T09:44:31.531Z</time>
      </trkpt>
      <trkpt lat="42.94544" lon="-0.33903">
        <ele>1721</ele>
        <time>2021-03-03T09:44:36.533Z</time>
      </trkpt>
      <trkpt lat="42.94542" lon="-0.33902">
        <ele>1725</ele>
        <time>2021-03-03T09:44:40.561Z</time>
      </trkpt>
      <trkpt lat="42.9454" lon="-0.33905">
        <ele>1731</ele>
        <time>2021-03-03T09:44:45.533Z</time>
      </trkpt>
      <trkpt lat="42.94538" lon="-0.33909">
        <ele>1731</ele>
        <time>2021-03-03T09:44:50.527Z</time>
      </trkpt>
      <trkpt lat="42.94535" lon="-0.33911">
        <ele>1731</ele>
        <time>2021-03-03T09:44:55.530Z</time>
      </trkpt>
      <trkpt lat="42.94533" lon="-0.33913">
        <ele>1731</ele>
        <time>2021-03-03T09:45:00.530Z</time>
      </trkpt>
      <trkpt lat="42.9453" lon="-0.33911">
        <ele>1731</ele>
        <time>2021-03-03T09:45:05.531Z</time>
      </trkpt>
      <trkpt lat="42.94528" lon="-0.33908">
        <ele>1731</ele>
        <time>2021-03-03T09:45:10.532Z</time>
      </trkpt>
      <trkpt lat="42.94526" lon="-0.33906">
        <ele>1731</ele>
        <time>2021-03-03T09:45:15.541Z</time>
      </trkpt>
      <trkpt lat="42.94524" lon="-0.33904">
        <ele>1731</ele>
        <time>2021-03-03T09:45:20.532Z</time>
      </trkpt>
      <trkpt lat="42.94522" lon="-0.33908">
        <ele>1731</ele>
        <time>2021-03-03T09:45:25.530Z</time>
      </trkpt>
      <trkpt lat="42.9452" lon="-0.3391">
        <ele>1731</ele>
        <time>2021-03-03T09:45:30.536Z</time>
      </trkpt>
      <trkpt lat="42.94517" lon="-0.3391">
        <ele>1731</ele>
        <time>2021-03-03T09:45:35.527Z</time>
      </trkpt>
      <trkpt lat="42.94513" lon="-0.33912">
        <ele>1737</ele>
        <time>2021-03-03T09:45:40.532Z</time>
      </trkpt>
      <trkpt lat="42.94511" lon="-0.33913">
        <ele>1737</ele>
        <time>2021-03-03T09:45:45.531Z</time>
      </trkpt>
      <trkpt lat="42.94508" lon="-0.33912">
        <ele>1737</ele>
        <time>2021-03-03T09:45:50.566Z</time>
      </trkpt>
      <trkpt lat="42.94505" lon="-0.33911">
        <ele>1737</ele>
        <time>2021-03-03T09:45:55.533Z</time>
      </trkpt>
      <trkpt lat="42.94503" lon="-0.33909">
        <ele>1737</ele>
        <time>2021-03-03T09:46:00.527Z</time>
      </trkpt>
      <trkpt lat="42.945" lon="-0.33908">
        <ele>1737</ele>
        <time>2021-03-03T09:46:05.530Z</time>
      </trkpt>
      <trkpt lat="42.94498" lon="-0.33907">
        <ele>1737</ele>
        <time>2021-03-03T09:46:10.532Z</time>
      </trkpt>
      <trkpt lat="42.94496" lon="-0.33907">
        <ele>1737</ele>
        <time>2021-03-03T09:46:15.527Z</time>
      </trkpt>
      <trkpt lat="42.94493" lon="-0.33909">
        <ele>1737</ele>
        <time>2021-03-03T09:46:20.526Z</time>
      </trkpt>
      <trkpt lat="42.94489" lon="-0.33912">
        <ele>1737</ele>
        <time>2021-03-03T09:46:25.530Z</time>
      </trkpt>
      <trkpt lat="42.94487" lon="-0.33914">
        <ele>1737</ele>
        <time>2021-03-03T09:46:30.532Z</time>
      </trkpt>
      <trkpt lat="42.94479" lon="-0.33908">
        <ele>1738</ele>
        <time>2021-03-03T09:46:49.534Z</time>
      </trkpt>
      <trkpt lat="42.94478" lon="-0.33909">
        <ele>1738</ele>
        <time>2021-03-03T09:46:54.529Z</time>
      </trkpt>
      <trkpt lat="42.94478" lon="-0.33909">
        <ele>1738</ele>
        <time>2021-03-03T09:46:59.524Z</time>
      </trkpt>
      <trkpt lat="42.94477" lon="-0.33908">
        <ele>1738</ele>
        <time>2021-03-03T09:47:04.525Z</time>
      </trkpt>
      <trkpt lat="42.94474" lon="-0.33909">
        <ele>1738</ele>
        <time>2021-03-03T09:47:09.534Z</time>
      </trkpt>
      <trkpt lat="42.9447" lon="-0.33908">
        <ele>1738</ele>
        <time>2021-03-03T09:47:14.532Z</time>
      </trkpt>
      <trkpt lat="42.94466" lon="-0.33908">
        <ele>1738</ele>
        <time>2021-03-03T09:47:19.526Z</time>
      </trkpt>
      <trkpt lat="42.94463" lon="-0.33907">
        <ele>1738</ele>
        <time>2021-03-03T09:47:24.527Z</time>
      </trkpt>
      <trkpt lat="42.94461" lon="-0.33909">
        <ele>1738</ele>
        <time>2021-03-03T09:47:29.529Z</time>
      </trkpt>
      <trkpt lat="42.94459" lon="-0.33909">
        <ele>1738</ele>
        <time>2021-03-03T09:47:34.525Z</time>
      </trkpt>
      <trkpt lat="42.94454" lon="-0.33909">
        <ele>1746</ele>
        <time>2021-03-03T09:47:44.525Z</time>
      </trkpt>
      <trkpt lat="42.94453" lon="-0.33909">
        <ele>1746</ele>
        <time>2021-03-03T09:47:48.689Z</time>
      </trkpt>
      <trkpt lat="42.94451" lon="-0.33907">
        <ele>1746</ele>
        <time>2021-03-03T09:47:53.529Z</time>
      </trkpt>
      <trkpt lat="42.94449" lon="-0.33904">
        <ele>1746</ele>
        <time>2021-03-03T09:47:58.533Z</time>
      </trkpt>
      <trkpt lat="42.94447" lon="-0.33902">
        <ele>1750</ele>
        <time>2021-03-03T09:48:03.525Z</time>
      </trkpt>
      <trkpt lat="42.9444" lon="-0.33895">
        <ele>1750</ele>
        <time>2021-03-03T09:48:18.527Z</time>
      </trkpt>
      <trkpt lat="42.9444" lon="-0.33895">
        <ele>1750</ele>
        <time>2021-03-03T09:48:23.524Z</time>
      </trkpt>
      <trkpt lat="42.9444" lon="-0.33895">
        <ele>1750</ele>
        <time>2021-03-03T09:48:28.524Z</time>
      </trkpt>
      <trkpt lat="42.94438" lon="-0.33895">
        <ele>1750</ele>
        <time>2021-03-03T09:48:32.649Z</time>
      </trkpt>
      <trkpt lat="42.94435" lon="-0.33895">
        <ele>1750</ele>
        <time>2021-03-03T09:48:37.525Z</time>
      </trkpt>
      <trkpt lat="42.94432" lon="-0.33895">
        <ele>1750</ele>
        <time>2021-03-03T09:48:41.553Z</time>
      </trkpt>
      <trkpt lat="42.94426" lon="-0.33894">
        <ele>1758</ele>
        <time>2021-03-03T09:48:46.523Z</time>
      </trkpt>
      <trkpt lat="42.94422" lon="-0.33896">
        <ele>1758</ele>
        <time>2021-03-03T09:48:51.530Z</time>
      </trkpt>
      <trkpt lat="42.94418" lon="-0.33896">
        <ele>1758</ele>
        <time>2021-03-03T09:48:56.529Z</time>
      </trkpt>
      <trkpt lat="42.94405" lon="-0.33898">
        <ele>1758</ele>
        <time>2021-03-03T09:50:47.531Z</time>
      </trkpt>
      <trkpt lat="42.94405" lon="-0.33897">
        <ele>1758</ele>
        <time>2021-03-03T09:50:52.649Z</time>
      </trkpt>
      <trkpt lat="42.94405" lon="-0.33896">
        <ele>1758</ele>
        <time>2021-03-03T09:50:57.527Z</time>
      </trkpt>
      <trkpt lat="42.94405" lon="-0.33896">
        <ele>1758</ele>
        <time>2021-03-03T09:51:02.527Z</time>
      </trkpt>
      <trkpt lat="42.94405" lon="-0.33896">
        <ele>1758</ele>
        <time>2021-03-03T09:51:07.524Z</time>
      </trkpt>
      <trkpt lat="42.94404" lon="-0.33894">
        <ele>1758</ele>
        <time>2021-03-03T09:53:59.524Z</time>
      </trkpt>
      <trkpt lat="42.94402" lon="-0.33894">
        <ele>1765</ele>
        <time>2021-03-03T09:54:04.528Z</time>
      </trkpt>
      <trkpt lat="42.94399" lon="-0.33894">
        <ele>1765</ele>
        <time>2021-03-03T09:54:08.527Z</time>
      </trkpt>
      <trkpt lat="42.94398" lon="-0.33898">
        <ele>1765</ele>
        <time>2021-03-03T09:54:13.529Z</time>
      </trkpt>
      <trkpt lat="42.94396" lon="-0.33902">
        <ele>1765</ele>
        <time>2021-03-03T09:54:18.529Z</time>
      </trkpt>
      <trkpt lat="42.94395" lon="-0.33905">
        <ele>1761</ele>
        <time>2021-03-03T09:54:22.743Z</time>
      </trkpt>
      <trkpt lat="42.94394" lon="-0.33908">
        <ele>1761</ele>
        <time>2021-03-03T09:54:27.527Z</time>
      </trkpt>
      <trkpt lat="42.94393" lon="-0.33912">
        <ele>1761</ele>
        <time>2021-03-03T09:54:32.529Z</time>
      </trkpt>
      <trkpt lat="42.94392" lon="-0.33915">
        <ele>1761</ele>
        <time>2021-03-03T09:54:37.528Z</time>
      </trkpt>
      <trkpt lat="42.9439" lon="-0.33918">
        <ele>1761</ele>
        <time>2021-03-03T09:54:42.529Z</time>
      </trkpt>
      <trkpt lat="42.94385" lon="-0.33928">
        <ele>1761</ele>
        <time>2021-03-03T09:54:57.524Z</time>
      </trkpt>
      <trkpt lat="42.94383" lon="-0.33929">
        <ele>1761</ele>
        <time>2021-03-03T09:55:02.557Z</time>
      </trkpt>
      <trkpt lat="42.94381" lon="-0.33929">
        <ele>1761</ele>
        <time>2021-03-03T09:55:07.528Z</time>
      </trkpt>
      <trkpt lat="42.9438" lon="-0.33925">
        <ele>1761</ele>
        <time>2021-03-03T09:55:12.664Z</time>
      </trkpt>
      <trkpt lat="42.94378" lon="-0.33922">
        <ele>1761</ele>
        <time>2021-03-03T09:55:17.527Z</time>
      </trkpt>
      <trkpt lat="42.94377" lon="-0.33919">
        <ele>1761</ele>
        <time>2021-03-03T09:55:22.529Z</time>
      </trkpt>
      <trkpt lat="42.94376" lon="-0.33917">
        <ele>1761</ele>
        <time>2021-03-03T09:55:27.529Z</time>
      </trkpt>
      <trkpt lat="42.94375" lon="-0.33915">
        <ele>1775</ele>
        <time>2021-03-03T09:55:32.526Z</time>
      </trkpt>
      <trkpt lat="42.94373" lon="-0.33911">
        <ele>1775</ele>
        <time>2021-03-03T09:55:37.527Z</time>
      </trkpt>
      <trkpt lat="42.94371" lon="-0.33909">
        <ele>1775</ele>
        <time>2021-03-03T09:55:42.525Z</time>
      </trkpt>
      <trkpt lat="42.94368" lon="-0.33904">
        <ele>1775</ele>
        <time>2021-03-03T09:55:56.815Z</time>
      </trkpt>
      <trkpt lat="42.94367" lon="-0.33903">
        <ele>1775</ele>
        <time>2021-03-03T09:56:01.528Z</time>
      </trkpt>
      <trkpt lat="42.94366" lon="-0.33901">
        <ele>1776</ele>
        <time>2021-03-03T09:56:06.582Z</time>
      </trkpt>
      <trkpt lat="42.94364" lon="-0.33898">
        <ele>1776</ele>
        <time>2021-03-03T09:56:11.527Z</time>
      </trkpt>
      <trkpt lat="42.94363" lon="-0.33895">
        <ele>1776</ele>
        <time>2021-03-03T09:56:16.527Z</time>
      </trkpt>
      <trkpt lat="42.94362" lon="-0.33892">
        <ele>1776</ele>
        <time>2021-03-03T09:56:21.527Z</time>
      </trkpt>
      <trkpt lat="42.94361" lon="-0.3389">
        <ele>1776</ele>
        <time>2021-03-03T09:56:25.555Z</time>
      </trkpt>
      <trkpt lat="42.94359" lon="-0.33892">
        <ele>1776</ele>
        <time>2021-03-03T09:56:30.528Z</time>
      </trkpt>
      <trkpt lat="42.94356" lon="-0.33897">
        <ele>1776</ele>
        <time>2021-03-03T09:56:35.527Z</time>
      </trkpt>
      <trkpt lat="42.94355" lon="-0.339">
        <ele>1776</ele>
        <time>2021-03-03T09:56:40.534Z</time>
      </trkpt>
      <trkpt lat="42.9435" lon="-0.33904">
        <ele>1775</ele>
        <time>2021-03-03T09:56:50.530Z</time>
      </trkpt>
      <trkpt lat="42.94349" lon="-0.33906">
        <ele>1775</ele>
        <time>2021-03-03T09:56:54.525Z</time>
      </trkpt>
      <trkpt lat="42.94347" lon="-0.33908">
        <ele>1788</ele>
        <time>2021-03-03T09:56:59.531Z</time>
      </trkpt>
      <trkpt lat="42.94346" lon="-0.3391">
        <ele>1788</ele>
        <time>2021-03-03T09:57:04.529Z</time>
      </trkpt>
      <trkpt lat="42.94347" lon="-0.33911">
        <ele>1788</ele>
        <time>2021-03-03T09:57:09.527Z</time>
      </trkpt>
      <trkpt lat="42.94345" lon="-0.33914">
        <ele>1788</ele>
        <time>2021-03-03T09:57:13.553Z</time>
      </trkpt>
      <trkpt lat="42.94343" lon="-0.33917">
        <ele>1788</ele>
        <time>2021-03-03T09:57:18.534Z</time>
      </trkpt>
      <trkpt lat="42.94342" lon="-0.3392">
        <ele>1788</ele>
        <time>2021-03-03T09:57:23.529Z</time>
      </trkpt>
      <trkpt lat="42.9434" lon="-0.33922">
        <ele>1788</ele>
        <time>2021-03-03T09:57:28.525Z</time>
      </trkpt>
      <trkpt lat="42.94339" lon="-0.33924">
        <ele>1788</ele>
        <time>2021-03-03T09:57:33.532Z</time>
      </trkpt>
      <trkpt lat="42.94337" lon="-0.33927">
        <ele>1788</ele>
        <time>2021-03-03T09:57:52.527Z</time>
      </trkpt>
      <trkpt lat="42.94337" lon="-0.33923">
        <ele>1788</ele>
        <time>2021-03-03T09:57:57.530Z</time>
      </trkpt>
      <trkpt lat="42.94336" lon="-0.33921">
        <ele>1788</ele>
        <time>2021-03-03T09:58:01.545Z</time>
      </trkpt>
      <trkpt lat="42.94335" lon="-0.33918">
        <ele>1788</ele>
        <time>2021-03-03T09:58:06.525Z</time>
      </trkpt>
      <trkpt lat="42.94332" lon="-0.33917">
        <ele>1788</ele>
        <time>2021-03-03T09:58:11.530Z</time>
      </trkpt>
      <trkpt lat="42.94331" lon="-0.33917">
        <ele>1788</ele>
        <time>2021-03-03T09:58:15.701Z</time>
      </trkpt>
      <trkpt lat="42.9433" lon="-0.33915">
        <ele>1788</ele>
        <time>2021-03-03T09:58:20.534Z</time>
      </trkpt>
      <trkpt lat="42.94329" lon="-0.33912">
        <ele>1788</ele>
        <time>2021-03-03T09:58:25.527Z</time>
      </trkpt>
      <trkpt lat="42.94326" lon="-0.33909">
        <ele>1788</ele>
        <time>2021-03-03T09:58:30.805Z</time>
      </trkpt>
      <trkpt lat="42.94325" lon="-0.33906">
        <ele>1788</ele>
        <time>2021-03-03T09:58:35.529Z</time>
      </trkpt>
      <trkpt lat="42.94322" lon="-0.33905">
        <ele>1788</ele>
        <time>2021-03-03T09:58:44.523Z</time>
      </trkpt>
      <trkpt lat="42.94319" lon="-0.33903">
        <ele>1799</ele>
        <time>2021-03-03T09:58:49.556Z</time>
      </trkpt>
      <trkpt lat="42.94318" lon="-0.33906">
        <ele>1799</ele>
        <time>2021-03-03T09:58:54.718Z</time>
      </trkpt>
      <trkpt lat="42.94316" lon="-0.33909">
        <ele>1799</ele>
        <time>2021-03-03T09:58:59.529Z</time>
      </trkpt>
      <trkpt lat="42.94314" lon="-0.33912">
        <ele>1799</ele>
        <time>2021-03-03T09:59:04.527Z</time>
      </trkpt>
      <trkpt lat="42.94312" lon="-0.33916">
        <ele>1799</ele>
        <time>2021-03-03T09:59:13.527Z</time>
      </trkpt>
      <trkpt lat="42.94311" lon="-0.33918">
        <ele>1799</ele>
        <time>2021-03-03T09:59:17.551Z</time>
      </trkpt>
      <trkpt lat="42.94309" lon="-0.3392">
        <ele>1799</ele>
        <time>2021-03-03T09:59:22.530Z</time>
      </trkpt>
      <trkpt lat="42.94308" lon="-0.33923">
        <ele>1799</ele>
        <time>2021-03-03T09:59:26.785Z</time>
      </trkpt>
      <trkpt lat="42.94308" lon="-0.33925">
        <ele>1799</ele>
        <time>2021-03-03T09:59:31.524Z</time>
      </trkpt>
      <trkpt lat="42.94307" lon="-0.33927">
        <ele>1799</ele>
        <time>2021-03-03T09:59:36.528Z</time>
      </trkpt>
      <trkpt lat="42.94305" lon="-0.3393">
        <ele>1799</ele>
        <time>2021-03-03T09:59:41.527Z</time>
      </trkpt>
      <trkpt lat="42.94304" lon="-0.33932">
        <ele>1795</ele>
        <time>2021-03-03T09:59:46.529Z</time>
      </trkpt>
      <trkpt lat="42.94303" lon="-0.33934">
        <ele>1795</ele>
        <time>2021-03-03T09:59:51.738Z</time>
      </trkpt>
      <trkpt lat="42.94301" lon="-0.33937">
        <ele>1795</ele>
        <time>2021-03-03T09:59:56.532Z</time>
      </trkpt>
      <trkpt lat="42.94297" lon="-0.33941">
        <ele>1795</ele>
        <time>2021-03-03T10:00:06.527Z</time>
      </trkpt>
      <trkpt lat="42.94295" lon="-0.33943">
        <ele>1795</ele>
        <time>2021-03-03T10:00:11.539Z</time>
      </trkpt>
      <trkpt lat="42.94293" lon="-0.33945">
        <ele>1795</ele>
        <time>2021-03-03T10:00:16.531Z</time>
      </trkpt>
      <trkpt lat="42.94292" lon="-0.33944">
        <ele>1795</ele>
        <time>2021-03-03T10:00:20.778Z</time>
      </trkpt>
      <trkpt lat="42.9429" lon="-0.33943">
        <ele>1808</ele>
        <time>2021-03-03T10:00:25.525Z</time>
      </trkpt>
      <trkpt lat="42.94287" lon="-0.3394">
        <ele>1808</ele>
        <time>2021-03-03T10:00:35.735Z</time>
      </trkpt>
      <trkpt lat="42.94286" lon="-0.33938">
        <ele>1808</ele>
        <time>2021-03-03T10:00:40.528Z</time>
      </trkpt>
      <trkpt lat="42.94285" lon="-0.33936">
        <ele>1808</ele>
        <time>2021-03-03T10:00:45.698Z</time>
      </trkpt>
      <trkpt lat="42.94283" lon="-0.33933">
        <ele>1808</ele>
        <time>2021-03-03T10:00:50.531Z</time>
      </trkpt>
      <trkpt lat="42.94282" lon="-0.33931">
        <ele>1808</ele>
        <time>2021-03-03T10:00:55.533Z</time>
      </trkpt>
      <trkpt lat="42.9428" lon="-0.33929">
        <ele>1808</ele>
        <time>2021-03-03T10:01:00.808Z</time>
      </trkpt>
      <trkpt lat="42.94278" lon="-0.33929">
        <ele>1808</ele>
        <time>2021-03-03T10:01:05.526Z</time>
      </trkpt>
      <trkpt lat="42.94276" lon="-0.33927">
        <ele>1808</ele>
        <time>2021-03-03T10:01:10.530Z</time>
      </trkpt>
      <trkpt lat="42.94274" lon="-0.33925">
        <ele>1808</ele>
        <time>2021-03-03T10:01:15.536Z</time>
      </trkpt>
      <trkpt lat="42.94271" lon="-0.33925">
        <ele>1808</ele>
        <time>2021-03-03T10:01:20.525Z</time>
      </trkpt>
      <trkpt lat="42.94266" lon="-0.33928">
        <ele>1808</ele>
        <time>2021-03-03T10:01:30.527Z</time>
      </trkpt>
      <trkpt lat="42.94264" lon="-0.3393">
        <ele>1808</ele>
        <time>2021-03-03T10:01:35.707Z</time>
      </trkpt>
      <trkpt lat="42.94263" lon="-0.33931">
        <ele>1819</ele>
        <time>2021-03-03T10:01:40.525Z</time>
      </trkpt>
      <trkpt lat="42.94262" lon="-0.33933">
        <ele>1819</ele>
        <time>2021-03-03T10:01:45.525Z</time>
      </trkpt>
      <trkpt lat="42.9426" lon="-0.33936">
        <ele>1819</ele>
        <time>2021-03-03T10:01:50.526Z</time>
      </trkpt>
      <trkpt lat="42.94255" lon="-0.33939">
        <ele>1819</ele>
        <time>2021-03-03T10:01:59.525Z</time>
      </trkpt>
      <trkpt lat="42.94254" lon="-0.33942">
        <ele>1819</ele>
        <time>2021-03-03T10:02:04.525Z</time>
      </trkpt>
      <trkpt lat="42.94251" lon="-0.33943">
        <ele>1819</ele>
        <time>2021-03-03T10:02:09.524Z</time>
      </trkpt>
      <trkpt lat="42.94249" lon="-0.33943">
        <ele>1819</ele>
        <time>2021-03-03T10:02:14.525Z</time>
      </trkpt>
      <trkpt lat="42.94248" lon="-0.33943">
        <ele>1819</ele>
        <time>2021-03-03T10:02:18.810Z</time>
      </trkpt>
      <trkpt lat="42.94246" lon="-0.3394">
        <ele>1819</ele>
        <time>2021-03-03T10:02:28.531Z</time>
      </trkpt>
      <trkpt lat="42.94244" lon="-0.33938">
        <ele>1819</ele>
        <time>2021-03-03T10:02:33.525Z</time>
      </trkpt>
      <trkpt lat="42.94243" lon="-0.33936">
        <ele>1819</ele>
        <time>2021-03-03T10:02:38.531Z</time>
      </trkpt>
      <trkpt lat="42.94241" lon="-0.33935">
        <ele>1819</ele>
        <time>2021-03-03T10:02:42.770Z</time>
      </trkpt>
      <trkpt lat="42.9424" lon="-0.33933">
        <ele>1819</ele>
        <time>2021-03-03T10:02:47.526Z</time>
      </trkpt>
      <trkpt lat="42.94235" lon="-0.33931">
        <ele>1827</ele>
        <time>2021-03-03T10:02:57.524Z</time>
      </trkpt>
      <trkpt lat="42.94233" lon="-0.33929">
        <ele>1827</ele>
        <time>2021-03-03T10:03:02.527Z</time>
      </trkpt>
      <trkpt lat="42.94231" lon="-0.33927">
        <ele>1827</ele>
        <time>2021-03-03T10:03:07.526Z</time>
      </trkpt>
      <trkpt lat="42.9423" lon="-0.33927">
        <ele>1827</ele>
        <time>2021-03-03T10:03:12.530Z</time>
      </trkpt>
      <trkpt lat="42.94227" lon="-0.33926">
        <ele>1827</ele>
        <time>2021-03-03T10:03:17.533Z</time>
      </trkpt>
      <trkpt lat="42.94223" lon="-0.33923">
        <ele>1827</ele>
        <time>2021-03-03T10:03:27.530Z</time>
      </trkpt>
      <trkpt lat="42.94223" lon="-0.33923">
        <ele>1827</ele>
        <time>2021-03-03T10:03:31.527Z</time>
      </trkpt>
      <trkpt lat="42.94221" lon="-0.33921">
        <ele>1827</ele>
        <time>2021-03-03T10:03:35.583Z</time>
      </trkpt>
      <trkpt lat="42.9422" lon="-0.33918">
        <ele>1827</ele>
        <time>2021-03-03T10:03:40.528Z</time>
      </trkpt>
      <trkpt lat="42.94218" lon="-0.33916">
        <ele>1827</ele>
        <time>2021-03-03T10:03:45.527Z</time>
      </trkpt>
      <trkpt lat="42.94215" lon="-0.33914">
        <ele>1827</ele>
        <time>2021-03-03T10:03:55.524Z</time>
      </trkpt>
      <trkpt lat="42.94212" lon="-0.33914">
        <ele>1827</ele>
        <time>2021-03-03T10:04:00.532Z</time>
      </trkpt>
      <trkpt lat="42.94209" lon="-0.33916">
        <ele>1827</ele>
        <time>2021-03-03T10:04:05.530Z</time>
      </trkpt>
      <trkpt lat="42.94207" lon="-0.33918">
        <ele>1834</ele>
        <time>2021-03-03T10:04:10.529Z</time>
      </trkpt>
      <trkpt lat="42.94205" lon="-0.3392">
        <ele>1834</ele>
        <time>2021-03-03T10:04:15.530Z</time>
      </trkpt>
      <trkpt lat="42.94204" lon="-0.33922">
        <ele>1834</ele>
        <time>2021-03-03T10:04:19.529Z</time>
      </trkpt>
      <trkpt lat="42.94202" lon="-0.33925">
        <ele>1834</ele>
        <time>2021-03-03T10:04:24.531Z</time>
      </trkpt>
      <trkpt lat="42.942" lon="-0.33926">
        <ele>1834</ele>
        <time>2021-03-03T10:04:29.526Z</time>
      </trkpt>
      <trkpt lat="42.94198" lon="-0.33927">
        <ele>1834</ele>
        <time>2021-03-03T10:04:34.525Z</time>
      </trkpt>
      <trkpt lat="42.94196" lon="-0.3393">
        <ele>1834</ele>
        <time>2021-03-03T10:04:39.528Z</time>
      </trkpt>
      <trkpt lat="42.94194" lon="-0.33932">
        <ele>1834</ele>
        <time>2021-03-03T10:04:44.528Z</time>
      </trkpt>
      <trkpt lat="42.94192" lon="-0.33937">
        <ele>1834</ele>
        <time>2021-03-03T10:04:49.548Z</time>
      </trkpt>
      <trkpt lat="42.9419" lon="-0.33939">
        <ele>1834</ele>
        <time>2021-03-03T10:04:54.531Z</time>
      </trkpt>
      <trkpt lat="42.94188" lon="-0.33942">
        <ele>1834</ele>
        <time>2021-03-03T10:04:59.716Z</time>
      </trkpt>
      <trkpt lat="42.94185" lon="-0.33946">
        <ele>1834</ele>
        <time>2021-03-03T10:05:09.531Z</time>
      </trkpt>
      <trkpt lat="42.94184" lon="-0.33947">
        <ele>1834</ele>
        <time>2021-03-03T10:05:13.764Z</time>
      </trkpt>
      <trkpt lat="42.94183" lon="-0.3395">
        <ele>1834</ele>
        <time>2021-03-03T10:05:18.526Z</time>
      </trkpt>
      <trkpt lat="42.94181" lon="-0.33951">
        <ele>1834</ele>
        <time>2021-03-03T10:05:23.529Z</time>
      </trkpt>
      <trkpt lat="42.94178" lon="-0.33953">
        <ele>1849</ele>
        <time>2021-03-03T10:05:28.532Z</time>
      </trkpt>
      <trkpt lat="42.94175" lon="-0.33948">
        <ele>1849</ele>
        <time>2021-03-03T10:05:47.531Z</time>
      </trkpt>
      <trkpt lat="42.94173" lon="-0.33947">
        <ele>1849</ele>
        <time>2021-03-03T10:05:52.525Z</time>
      </trkpt>
      <trkpt lat="42.94171" lon="-0.33946">
        <ele>1849</ele>
        <time>2021-03-03T10:05:57.533Z</time>
      </trkpt>
      <trkpt lat="42.94169" lon="-0.33944">
        <ele>1849</ele>
        <time>2021-03-03T10:06:02.531Z</time>
      </trkpt>
      <trkpt lat="42.94168" lon="-0.33943">
        <ele>1849</ele>
        <time>2021-03-03T10:06:06.558Z</time>
      </trkpt>
      <trkpt lat="42.94167" lon="-0.33945">
        <ele>1849</ele>
        <time>2021-03-03T10:06:11.527Z</time>
      </trkpt>
      <trkpt lat="42.94165" lon="-0.33941">
        <ele>1849</ele>
        <time>2021-03-03T10:06:16.528Z</time>
      </trkpt>
      <trkpt lat="42.94165" lon="-0.33939">
        <ele>1849</ele>
        <time>2021-03-03T10:06:21.530Z</time>
      </trkpt>
      <trkpt lat="42.94163" lon="-0.33937">
        <ele>1849</ele>
        <time>2021-03-03T10:06:26.531Z</time>
      </trkpt>
      <trkpt lat="42.94161" lon="-0.33933">
        <ele>1849</ele>
        <time>2021-03-03T10:06:31.527Z</time>
      </trkpt>
      <trkpt lat="42.94158" lon="-0.33932">
        <ele>1849</ele>
        <time>2021-03-03T10:06:35.557Z</time>
      </trkpt>
      <trkpt lat="42.94156" lon="-0.33933">
        <ele>1849</ele>
        <time>2021-03-03T10:06:40.528Z</time>
      </trkpt>
      <trkpt lat="42.94153" lon="-0.33934">
        <ele>1849</ele>
        <time>2021-03-03T10:06:45.527Z</time>
      </trkpt>
      <trkpt lat="42.94151" lon="-0.33935">
        <ele>1860</ele>
        <time>2021-03-03T10:06:50.528Z</time>
      </trkpt>
      <trkpt lat="42.94149" lon="-0.33937">
        <ele>1860</ele>
        <time>2021-03-03T10:06:55.534Z</time>
      </trkpt>
      <trkpt lat="42.94146" lon="-0.33941">
        <ele>1860</ele>
        <time>2021-03-03T10:07:05.528Z</time>
      </trkpt>
      <trkpt lat="42.94144" lon="-0.33943">
        <ele>1860</ele>
        <time>2021-03-03T10:07:10.533Z</time>
      </trkpt>
      <trkpt lat="42.94143" lon="-0.33944">
        <ele>1860</ele>
        <time>2021-03-03T10:07:15.528Z</time>
      </trkpt>
      <trkpt lat="42.94142" lon="-0.33945">
        <ele>1860</ele>
        <time>2021-03-03T10:07:20.526Z</time>
      </trkpt>
      <trkpt lat="42.9414" lon="-0.33947">
        <ele>1860</ele>
        <time>2021-03-03T10:07:25.525Z</time>
      </trkpt>
      <trkpt lat="42.94138" lon="-0.33949">
        <ele>1860</ele>
        <time>2021-03-03T10:07:30.524Z</time>
      </trkpt>
      <trkpt lat="42.94136" lon="-0.33952">
        <ele>1860</ele>
        <time>2021-03-03T10:07:34.562Z</time>
      </trkpt>
      <trkpt lat="42.94134" lon="-0.33954">
        <ele>1860</ele>
        <time>2021-03-03T10:07:39.525Z</time>
      </trkpt>
      <trkpt lat="42.94133" lon="-0.33956">
        <ele>1860</ele>
        <time>2021-03-03T10:07:43.816Z</time>
      </trkpt>
      <trkpt lat="42.94131" lon="-0.33958">
        <ele>1860</ele>
        <time>2021-03-03T10:07:48.524Z</time>
      </trkpt>
      <trkpt lat="42.9413" lon="-0.33961">
        <ele>1854</ele>
        <time>2021-03-03T10:07:58.731Z</time>
      </trkpt>
      <trkpt lat="42.94128" lon="-0.33964">
        <ele>1854</ele>
        <time>2021-03-03T10:08:03.528Z</time>
      </trkpt>
      <trkpt lat="42.94128" lon="-0.33966">
        <ele>1854</ele>
        <time>2021-03-03T10:08:07.687Z</time>
      </trkpt>
      <trkpt lat="42.94127" lon="-0.33967">
        <ele>1854</ele>
        <time>2021-03-03T10:08:12.526Z</time>
      </trkpt>
      <trkpt lat="42.94127" lon="-0.3397">
        <ele>1854</ele>
        <time>2021-03-03T10:08:17.530Z</time>
      </trkpt>
      <trkpt lat="42.94126" lon="-0.33973">
        <ele>1854</ele>
        <time>2021-03-03T10:08:22.527Z</time>
      </trkpt>
      <trkpt lat="42.94125" lon="-0.33975">
        <ele>1854</ele>
        <time>2021-03-03T10:08:27.679Z</time>
      </trkpt>
      <trkpt lat="42.94123" lon="-0.33978">
        <ele>1868</ele>
        <time>2021-03-03T10:08:32.531Z</time>
      </trkpt>
      <trkpt lat="42.94121" lon="-0.3398">
        <ele>1868</ele>
        <time>2021-03-03T10:08:37.531Z</time>
      </trkpt>
      <trkpt lat="42.94119" lon="-0.33982">
        <ele>1868</ele>
        <time>2021-03-03T10:08:42.524Z</time>
      </trkpt>
      <trkpt lat="42.94114" lon="-0.33988">
        <ele>1870</ele>
        <time>2021-03-03T10:09:01.526Z</time>
      </trkpt>
      <trkpt lat="42.94113" lon="-0.33986">
        <ele>1870</ele>
        <time>2021-03-03T10:09:06.534Z</time>
      </trkpt>
      <trkpt lat="42.94112" lon="-0.33984">
        <ele>1868</ele>
        <time>2021-03-03T10:09:11.717Z</time>
      </trkpt>
      <trkpt lat="42.94111" lon="-0.33984">
        <ele>1868</ele>
        <time>2021-03-03T10:09:16.526Z</time>
      </trkpt>
      <trkpt lat="42.9411" lon="-0.33982">
        <ele>1868</ele>
        <time>2021-03-03T10:09:21.532Z</time>
      </trkpt>
      <trkpt lat="42.94106" lon="-0.33979">
        <ele>1868</ele>
        <time>2021-03-03T10:09:34.556Z</time>
      </trkpt>
      <trkpt lat="42.94104" lon="-0.33978">
        <ele>1868</ele>
        <time>2021-03-03T10:09:39.532Z</time>
      </trkpt>
      <trkpt lat="42.94102" lon="-0.33976">
        <ele>1868</ele>
        <time>2021-03-03T10:09:44.528Z</time>
      </trkpt>
      <trkpt lat="42.941" lon="-0.33975">
        <ele>1868</ele>
        <time>2021-03-03T10:09:49.531Z</time>
      </trkpt>
      <trkpt lat="42.94099" lon="-0.33973">
        <ele>1868</ele>
        <time>2021-03-03T10:09:54.531Z</time>
      </trkpt>
      <trkpt lat="42.94097" lon="-0.3397">
        <ele>1880</ele>
        <time>2021-03-03T10:09:59.536Z</time>
      </trkpt>
      <trkpt lat="42.94095" lon="-0.33968">
        <ele>1880</ele>
        <time>2021-03-03T10:10:03.530Z</time>
      </trkpt>
      <trkpt lat="42.94093" lon="-0.33966">
        <ele>1880</ele>
        <time>2021-03-03T10:10:08.529Z</time>
      </trkpt>
      <trkpt lat="42.9409" lon="-0.33965">
        <ele>1880</ele>
        <time>2021-03-03T10:10:13.528Z</time>
      </trkpt>
      <trkpt lat="42.94087" lon="-0.33967">
        <ele>1880</ele>
        <time>2021-03-03T10:10:18.536Z</time>
      </trkpt>
      <trkpt lat="42.9408" lon="-0.33972">
        <ele>1880</ele>
        <time>2021-03-03T10:10:58.528Z</time>
      </trkpt>
      <trkpt lat="42.94078" lon="-0.33972">
        <ele>1880</ele>
        <time>2021-03-03T10:11:03.553Z</time>
      </trkpt>
      <trkpt lat="42.94076" lon="-0.33972">
        <ele>1880</ele>
        <time>2021-03-03T10:11:08.528Z</time>
      </trkpt>
      <trkpt lat="42.94075" lon="-0.33971">
        <ele>1880</ele>
        <time>2021-03-03T10:11:13.534Z</time>
      </trkpt>
      <trkpt lat="42.94074" lon="-0.33968">
        <ele>1880</ele>
        <time>2021-03-03T10:11:18.530Z</time>
      </trkpt>
      <trkpt lat="42.94073" lon="-0.33964">
        <ele>1880</ele>
        <time>2021-03-03T10:11:23.532Z</time>
      </trkpt>
      <trkpt lat="42.94071" lon="-0.33961">
        <ele>1880</ele>
        <time>2021-03-03T10:11:28.529Z</time>
      </trkpt>
      <trkpt lat="42.94071" lon="-0.33958">
        <ele>1882</ele>
        <time>2021-03-03T10:11:33.528Z</time>
      </trkpt>
      <trkpt lat="42.94069" lon="-0.33956">
        <ele>1892</ele>
        <time>2021-03-03T10:11:38.534Z</time>
      </trkpt>
      <trkpt lat="42.94067" lon="-0.33954">
        <ele>1892</ele>
        <time>2021-03-03T10:11:43.527Z</time>
      </trkpt>
      <trkpt lat="42.94064" lon="-0.33948">
        <ele>1892</ele>
        <time>2021-03-03T10:12:03.559Z</time>
      </trkpt>
      <trkpt lat="42.94063" lon="-0.33949">
        <ele>1892</ele>
        <time>2021-03-03T10:12:08.530Z</time>
      </trkpt>
      <trkpt lat="42.94061" lon="-0.33949">
        <ele>1892</ele>
        <time>2021-03-03T10:12:13.529Z</time>
      </trkpt>
      <trkpt lat="42.94059" lon="-0.3395">
        <ele>1892</ele>
        <time>2021-03-03T10:12:18.528Z</time>
      </trkpt>
      <trkpt lat="42.94056" lon="-0.33952">
        <ele>1892</ele>
        <time>2021-03-03T10:12:23.529Z</time>
      </trkpt>
      <trkpt lat="42.94054" lon="-0.33956">
        <ele>1892</ele>
        <time>2021-03-03T10:12:28.532Z</time>
      </trkpt>
      <trkpt lat="42.94054" lon="-0.3396">
        <ele>1890</ele>
        <time>2021-03-03T10:12:33.560Z</time>
      </trkpt>
      <trkpt lat="42.94053" lon="-0.33963">
        <ele>1890</ele>
        <time>2021-03-03T10:12:38.532Z</time>
      </trkpt>
      <trkpt lat="42.94052" lon="-0.33966">
        <ele>1890</ele>
        <time>2021-03-03T10:12:43.532Z</time>
      </trkpt>
      <trkpt lat="42.9405" lon="-0.33969">
        <ele>1890</ele>
        <time>2021-03-03T10:12:48.531Z</time>
      </trkpt>
      <trkpt lat="42.94048" lon="-0.33972">
        <ele>1890</ele>
        <time>2021-03-03T10:12:53.530Z</time>
      </trkpt>
      <trkpt lat="42.94048" lon="-0.33975">
        <ele>1890</ele>
        <time>2021-03-03T10:12:58.820Z</time>
      </trkpt>
      <trkpt lat="42.94047" lon="-0.33978">
        <ele>1890</ele>
        <time>2021-03-03T10:13:03.526Z</time>
      </trkpt>
      <trkpt lat="42.94046" lon="-0.33981">
        <ele>1890</ele>
        <time>2021-03-03T10:13:08.525Z</time>
      </trkpt>
      <trkpt lat="42.94044" lon="-0.33984">
        <ele>1890</ele>
        <time>2021-03-03T10:13:13.527Z</time>
      </trkpt>
      <trkpt lat="42.94042" lon="-0.33983">
        <ele>1910</ele>
        <time>2021-03-03T10:13:28.523Z</time>
      </trkpt>
      <trkpt lat="42.94041" lon="-0.33981">
        <ele>1910</ele>
        <time>2021-03-03T10:13:33.533Z</time>
      </trkpt>
      <trkpt lat="42.94042" lon="-0.33979">
        <ele>1890</ele>
        <time>2021-03-03T10:13:37.526Z</time>
      </trkpt>
      <trkpt lat="42.9404" lon="-0.33977">
        <ele>1910</ele>
        <time>2021-03-03T10:13:42.530Z</time>
      </trkpt>
      <trkpt lat="42.94037" lon="-0.33975">
        <ele>1910</ele>
        <time>2021-03-03T10:13:47.525Z</time>
      </trkpt>
      <trkpt lat="42.94034" lon="-0.33972">
        <ele>1910</ele>
        <time>2021-03-03T10:13:56.525Z</time>
      </trkpt>
      <trkpt lat="42.94032" lon="-0.33971">
        <ele>1910</ele>
        <time>2021-03-03T10:14:01.528Z</time>
      </trkpt>
      <trkpt lat="42.94031" lon="-0.3397">
        <ele>1910</ele>
        <time>2021-03-03T10:14:05.636Z</time>
      </trkpt>
      <trkpt lat="42.94029" lon="-0.33968">
        <ele>1910</ele>
        <time>2021-03-03T10:14:10.528Z</time>
      </trkpt>
      <trkpt lat="42.94028" lon="-0.33966">
        <ele>1910</ele>
        <time>2021-03-03T10:14:15.529Z</time>
      </trkpt>
      <trkpt lat="42.94025" lon="-0.33961">
        <ele>1910</ele>
        <time>2021-03-03T10:14:29.576Z</time>
      </trkpt>
      <trkpt lat="42.94024" lon="-0.3396">
        <ele>1910</ele>
        <time>2021-03-03T10:14:34.525Z</time>
      </trkpt>
      <trkpt lat="42.94022" lon="-0.33963">
        <ele>1910</ele>
        <time>2021-03-03T10:14:39.729Z</time>
      </trkpt>
      <trkpt lat="42.94019" lon="-0.33965">
        <ele>1910</ele>
        <time>2021-03-03T10:14:44.525Z</time>
      </trkpt>
      <trkpt lat="42.94017" lon="-0.33967">
        <ele>1910</ele>
        <time>2021-03-03T10:14:49.530Z</time>
      </trkpt>
      <trkpt lat="42.94015" lon="-0.33969">
        <ele>1910</ele>
        <time>2021-03-03T10:14:54.769Z</time>
      </trkpt>
      <trkpt lat="42.94013" lon="-0.33972">
        <ele>1924</ele>
        <time>2021-03-03T10:14:59.525Z</time>
      </trkpt>
      <trkpt lat="42.94011" lon="-0.33974">
        <ele>1924</ele>
        <time>2021-03-03T10:15:04.531Z</time>
      </trkpt>
      <trkpt lat="42.9401" lon="-0.33976">
        <ele>1924</ele>
        <time>2021-03-03T10:15:09.524Z</time>
      </trkpt>
      <trkpt lat="42.9401" lon="-0.33979">
        <ele>1924</ele>
        <time>2021-03-03T10:15:14.525Z</time>
      </trkpt>
      <trkpt lat="42.94009" lon="-0.33982">
        <ele>1924</ele>
        <time>2021-03-03T10:15:19.525Z</time>
      </trkpt>
      <trkpt lat="42.94009" lon="-0.33986">
        <ele>1924</ele>
        <time>2021-03-03T10:15:24.523Z</time>
      </trkpt>
      <trkpt lat="42.94008" lon="-0.33987">
        <ele>1918</ele>
        <time>2021-03-03T10:15:29.550Z</time>
      </trkpt>
      <trkpt lat="42.94007" lon="-0.3399">
        <ele>1918</ele>
        <time>2021-03-03T10:15:34.530Z</time>
      </trkpt>
      <trkpt lat="42.94005" lon="-0.33993">
        <ele>1918</ele>
        <time>2021-03-03T10:15:39.525Z</time>
      </trkpt>
      <trkpt lat="42.94001" lon="-0.33998">
        <ele>1918</ele>
        <time>2021-03-03T10:15:49.528Z</time>
      </trkpt>
      <trkpt lat="42.93999" lon="-0.34001">
        <ele>1918</ele>
        <time>2021-03-03T10:15:54.530Z</time>
      </trkpt>
      <trkpt lat="42.93998" lon="-0.34003">
        <ele>1918</ele>
        <time>2021-03-03T10:15:59.528Z</time>
      </trkpt>
      <trkpt lat="42.93998" lon="-0.34005">
        <ele>1918</ele>
        <time>2021-03-03T10:16:04.528Z</time>
      </trkpt>
      <trkpt lat="42.93997" lon="-0.34007">
        <ele>1918</ele>
        <time>2021-03-03T10:16:09.533Z</time>
      </trkpt>
      <trkpt lat="42.93996" lon="-0.34009">
        <ele>1918</ele>
        <time>2021-03-03T10:18:42.529Z</time>
      </trkpt>
      <trkpt lat="42.93994" lon="-0.34007">
        <ele>1918</ele>
        <time>2021-03-03T10:18:46.527Z</time>
      </trkpt>
      <trkpt lat="42.93991" lon="-0.34004">
        <ele>1918</ele>
        <time>2021-03-03T10:18:51.527Z</time>
      </trkpt>
      <trkpt lat="42.93989" lon="-0.34003">
        <ele>1918</ele>
        <time>2021-03-03T10:18:56.527Z</time>
      </trkpt>
      <trkpt lat="42.93986" lon="-0.34001">
        <ele>1918</ele>
        <time>2021-03-03T10:19:01.526Z</time>
      </trkpt>
      <trkpt lat="42.93984" lon="-0.33999">
        <ele>1928</ele>
        <time>2021-03-03T10:19:06.528Z</time>
      </trkpt>
      <trkpt lat="42.93982" lon="-0.33997">
        <ele>1928</ele>
        <time>2021-03-03T10:19:11.532Z</time>
      </trkpt>
      <trkpt lat="42.9398" lon="-0.33996">
        <ele>1928</ele>
        <time>2021-03-03T10:19:16.662Z</time>
      </trkpt>
      <trkpt lat="42.93978" lon="-0.33994">
        <ele>1928</ele>
        <time>2021-03-03T10:19:21.530Z</time>
      </trkpt>
      <trkpt lat="42.93976" lon="-0.33991">
        <ele>1928</ele>
        <time>2021-03-03T10:19:26.528Z</time>
      </trkpt>
      <trkpt lat="42.93966" lon="-0.33987">
        <ele>1928</ele>
        <time>2021-03-03T10:20:05.548Z</time>
      </trkpt>
      <trkpt lat="42.93966" lon="-0.33987">
        <ele>1928</ele>
        <time>2021-03-03T10:20:10.521Z</time>
      </trkpt>
      <trkpt lat="42.93965" lon="-0.33988">
        <ele>1928</ele>
        <time>2021-03-03T10:20:14.527Z</time>
      </trkpt>
      <trkpt lat="42.93965" lon="-0.3399">
        <ele>1928</ele>
        <time>2021-03-03T10:20:18.559Z</time>
      </trkpt>
      <trkpt lat="42.93964" lon="-0.3399">
        <ele>1928</ele>
        <time>2021-03-03T10:20:23.555Z</time>
      </trkpt>
      <trkpt lat="42.93964" lon="-0.33995">
        <ele>1928</ele>
        <time>2021-03-03T10:20:46.566Z</time>
      </trkpt>
      <trkpt lat="42.93963" lon="-0.33996">
        <ele>1928</ele>
        <time>2021-03-03T10:20:51.522Z</time>
      </trkpt>
      <trkpt lat="42.93962" lon="-0.33997">
        <ele>1928</ele>
        <time>2021-03-03T10:20:55.560Z</time>
      </trkpt>
      <trkpt lat="42.93961" lon="-0.33999">
        <ele>1928</ele>
        <time>2021-03-03T10:21:00.561Z</time>
      </trkpt>
      <trkpt lat="42.9396" lon="-0.34001">
        <ele>1928</ele>
        <time>2021-03-03T10:21:05.520Z</time>
      </trkpt>
      <trkpt lat="42.93956" lon="-0.34009">
        <ele>1937</ele>
        <time>2021-03-03T10:21:18.522Z</time>
      </trkpt>
      <trkpt lat="42.93955" lon="-0.34011">
        <ele>1937</ele>
        <time>2021-03-03T10:21:22.559Z</time>
      </trkpt>
      <trkpt lat="42.93954" lon="-0.34012">
        <ele>1937</ele>
        <time>2021-03-03T10:21:26.563Z</time>
      </trkpt>
      <trkpt lat="42.93955" lon="-0.34015">
        <ele>1939</ele>
        <time>2021-03-03T10:21:30.574Z</time>
      </trkpt>
      <trkpt lat="42.93954" lon="-0.34018">
        <ele>1939</ele>
        <time>2021-03-03T10:21:35.532Z</time>
      </trkpt>
      <trkpt lat="42.93952" lon="-0.34025">
        <ele>1939</ele>
        <time>2021-03-03T10:22:00.530Z</time>
      </trkpt>
      <trkpt lat="42.93951" lon="-0.34025">
        <ele>1939</ele>
        <time>2021-03-03T10:22:04.529Z</time>
      </trkpt>
      <trkpt lat="42.9395" lon="-0.34027">
        <ele>1939</ele>
        <time>2021-03-03T10:22:09.533Z</time>
      </trkpt>
      <trkpt lat="42.93949" lon="-0.34028">
        <ele>1939</ele>
        <time>2021-03-03T10:22:14.533Z</time>
      </trkpt>
      <trkpt lat="42.93949" lon="-0.34031">
        <ele>1939</ele>
        <time>2021-03-03T10:22:19.529Z</time>
      </trkpt>
      <trkpt lat="42.93945" lon="-0.34035">
        <ele>1939</ele>
        <time>2021-03-03T10:22:32.533Z</time>
      </trkpt>
      <trkpt lat="42.93944" lon="-0.34037">
        <ele>1939</ele>
        <time>2021-03-03T10:22:37.528Z</time>
      </trkpt>
      <trkpt lat="42.93942" lon="-0.34039">
        <ele>1939</ele>
        <time>2021-03-03T10:22:42.529Z</time>
      </trkpt>
      <trkpt lat="42.93941" lon="-0.3404">
        <ele>1939</ele>
        <time>2021-03-03T10:22:46.564Z</time>
      </trkpt>
      <trkpt lat="42.9394" lon="-0.34042">
        <ele>1941</ele>
        <time>2021-03-03T10:22:51.534Z</time>
      </trkpt>
      <trkpt lat="42.93939" lon="-0.34045">
        <ele>1941</ele>
        <time>2021-03-03T10:23:01.528Z</time>
      </trkpt>
      <trkpt lat="42.93937" lon="-0.34046">
        <ele>1941</ele>
        <time>2021-03-03T10:23:06.533Z</time>
      </trkpt>
      <trkpt lat="42.93937" lon="-0.34049">
        <ele>1941</ele>
        <time>2021-03-03T10:23:11.530Z</time>
      </trkpt>
      <trkpt lat="42.93937" lon="-0.34052">
        <ele>1941</ele>
        <time>2021-03-03T10:23:16.528Z</time>
      </trkpt>
      <trkpt lat="42.93935" lon="-0.34055">
        <ele>1941</ele>
        <time>2021-03-03T10:23:21.533Z</time>
      </trkpt>
      <trkpt lat="42.93932" lon="-0.34058">
        <ele>1941</ele>
        <time>2021-03-03T10:23:31.526Z</time>
      </trkpt>
      <trkpt lat="42.93932" lon="-0.3406">
        <ele>1941</ele>
        <time>2021-03-03T10:23:35.572Z</time>
      </trkpt>
      <trkpt lat="42.9393" lon="-0.34063">
        <ele>1960</ele>
        <time>2021-03-03T10:23:40.569Z</time>
      </trkpt>
      <trkpt lat="42.93929" lon="-0.34066">
        <ele>1960</ele>
        <time>2021-03-03T10:23:45.562Z</time>
      </trkpt>
      <trkpt lat="42.93929" lon="-0.34068">
        <ele>1960</ele>
        <time>2021-03-03T10:23:50.564Z</time>
      </trkpt>
      <trkpt lat="42.93928" lon="-0.34071">
        <ele>1963</ele>
        <time>2021-03-03T10:24:15.560Z</time>
      </trkpt>
      <trkpt lat="42.93927" lon="-0.34073">
        <ele>1963</ele>
        <time>2021-03-03T10:24:20.534Z</time>
      </trkpt>
      <trkpt lat="42.93926" lon="-0.34076">
        <ele>1963</ele>
        <time>2021-03-03T10:24:25.534Z</time>
      </trkpt>
      <trkpt lat="42.93925" lon="-0.34078">
        <ele>1963</ele>
        <time>2021-03-03T10:24:30.531Z</time>
      </trkpt>
      <trkpt lat="42.93924" lon="-0.34081">
        <ele>1963</ele>
        <time>2021-03-03T10:24:35.560Z</time>
      </trkpt>
      <trkpt lat="42.93922" lon="-0.34086">
        <ele>1963</ele>
        <time>2021-03-03T10:24:44.559Z</time>
      </trkpt>
      <trkpt lat="42.93922" lon="-0.34089">
        <ele>1963</ele>
        <time>2021-03-03T10:24:49.563Z</time>
      </trkpt>
      <trkpt lat="42.93921" lon="-0.34091">
        <ele>1963</ele>
        <time>2021-03-03T10:24:54.533Z</time>
      </trkpt>
      <trkpt lat="42.9392" lon="-0.34094">
        <ele>1963</ele>
        <time>2021-03-03T10:24:58.567Z</time>
      </trkpt>
      <trkpt lat="42.9392" lon="-0.34096">
        <ele>1963</ele>
        <time>2021-03-03T10:25:03.534Z</time>
      </trkpt>
      <trkpt lat="42.93918" lon="-0.34098">
        <ele>1968</ele>
        <time>2021-03-03T10:25:08.557Z</time>
      </trkpt>
      <trkpt lat="42.93917" lon="-0.34102">
        <ele>1968</ele>
        <time>2021-03-03T10:25:13.531Z</time>
      </trkpt>
      <trkpt lat="42.93916" lon="-0.34104">
        <ele>1968</ele>
        <time>2021-03-03T10:25:18.533Z</time>
      </trkpt>
      <trkpt lat="42.93915" lon="-0.34107">
        <ele>1968</ele>
        <time>2021-03-03T10:25:23.532Z</time>
      </trkpt>
      <trkpt lat="42.93914" lon="-0.3411">
        <ele>1968</ele>
        <time>2021-03-03T10:25:28.536Z</time>
      </trkpt>
      <trkpt lat="42.9391" lon="-0.34119">
        <ele>1968</ele>
        <time>2021-03-03T10:25:52.531Z</time>
      </trkpt>
      <trkpt lat="42.93911" lon="-0.34119">
        <ele>1968</ele>
        <time>2021-03-03T10:25:57.531Z</time>
      </trkpt>
      <trkpt lat="42.9391" lon="-0.3412">
        <ele>1968</ele>
        <time>2021-03-03T10:26:01.552Z</time>
      </trkpt>
      <trkpt lat="42.9391" lon="-0.34121">
        <ele>1968</ele>
        <time>2021-03-03T10:26:05.586Z</time>
      </trkpt>
      <trkpt lat="42.93909" lon="-0.34123">
        <ele>1968</ele>
        <time>2021-03-03T10:26:10.563Z</time>
      </trkpt>
      <trkpt lat="42.93906" lon="-0.34126">
        <ele>1973</ele>
        <time>2021-03-03T10:26:27.533Z</time>
      </trkpt>
      <trkpt lat="42.93904" lon="-0.34123">
        <ele>1968</ele>
        <time>2021-03-03T10:26:32.532Z</time>
      </trkpt>
      <trkpt lat="42.93903" lon="-0.34121">
        <ele>1981</ele>
        <time>2021-03-03T10:26:37.531Z</time>
      </trkpt>
      <trkpt lat="42.93901" lon="-0.34119">
        <ele>1981</ele>
        <time>2021-03-03T10:26:41.531Z</time>
      </trkpt>
      <trkpt lat="42.939" lon="-0.34117">
        <ele>1981</ele>
        <time>2021-03-03T10:26:46.530Z</time>
      </trkpt>
      <trkpt lat="42.93896" lon="-0.34112">
        <ele>1981</ele>
        <time>2021-03-03T10:26:56.529Z</time>
      </trkpt>
      <trkpt lat="42.93894" lon="-0.3411">
        <ele>1981</ele>
        <time>2021-03-03T10:27:01.529Z</time>
      </trkpt>
      <trkpt lat="42.93893" lon="-0.34109">
        <ele>1981</ele>
        <time>2021-03-03T10:27:06.531Z</time>
      </trkpt>
      <trkpt lat="42.93892" lon="-0.34108">
        <ele>1981</ele>
        <time>2021-03-03T10:27:10.576Z</time>
      </trkpt>
      <trkpt lat="42.9389" lon="-0.34106">
        <ele>1981</ele>
        <time>2021-03-03T10:27:15.529Z</time>
      </trkpt>
      <trkpt lat="42.93889" lon="-0.34104">
        <ele>1981</ele>
        <time>2021-03-03T10:27:19.556Z</time>
      </trkpt>
      <trkpt lat="42.93887" lon="-0.34103">
        <ele>1981</ele>
        <time>2021-03-03T10:27:23.568Z</time>
      </trkpt>
      <trkpt lat="42.93886" lon="-0.34101">
        <ele>1981</ele>
        <time>2021-03-03T10:27:28.520Z</time>
      </trkpt>
      <trkpt lat="42.93885" lon="-0.34098">
        <ele>1981</ele>
        <time>2021-03-03T10:27:33.534Z</time>
      </trkpt>
      <trkpt lat="42.93883" lon="-0.34095">
        <ele>1978</ele>
        <time>2021-03-03T10:27:38.529Z</time>
      </trkpt>
      <trkpt lat="42.93874" lon="-0.341">
        <ele>1992</ele>
        <time>2021-03-03T10:28:11.531Z</time>
      </trkpt>
      <trkpt lat="42.93874" lon="-0.34101">
        <ele>1992</ele>
        <time>2021-03-03T10:28:16.531Z</time>
      </trkpt>
      <trkpt lat="42.93873" lon="-0.34103">
        <ele>1992</ele>
        <time>2021-03-03T10:28:20.528Z</time>
      </trkpt>
      <trkpt lat="42.93872" lon="-0.34105">
        <ele>1992</ele>
        <time>2021-03-03T10:28:24.527Z</time>
      </trkpt>
      <trkpt lat="42.93871" lon="-0.34108">
        <ele>1992</ele>
        <time>2021-03-03T10:28:29.529Z</time>
      </trkpt>
      <trkpt lat="42.93869" lon="-0.34113">
        <ele>1992</ele>
        <time>2021-03-03T10:28:39.531Z</time>
      </trkpt>
      <trkpt lat="42.93868" lon="-0.34116">
        <ele>1992</ele>
        <time>2021-03-03T10:28:43.568Z</time>
      </trkpt>
      <trkpt lat="42.93866" lon="-0.34119">
        <ele>1992</ele>
        <time>2021-03-03T10:28:48.532Z</time>
      </trkpt>
      <trkpt lat="42.93866" lon="-0.34121">
        <ele>1992</ele>
        <time>2021-03-03T10:28:52.567Z</time>
      </trkpt>
      <trkpt lat="42.93865" lon="-0.34124">
        <ele>1992</ele>
        <time>2021-03-03T10:28:57.536Z</time>
      </trkpt>
      <trkpt lat="42.93863" lon="-0.34126">
        <ele>1995</ele>
        <time>2021-03-03T10:29:02.534Z</time>
      </trkpt>
      <trkpt lat="42.93862" lon="-0.34128">
        <ele>1995</ele>
        <time>2021-03-03T10:29:06.529Z</time>
      </trkpt>
      <trkpt lat="42.93861" lon="-0.3413">
        <ele>1995</ele>
        <time>2021-03-03T10:29:11.537Z</time>
      </trkpt>
      <trkpt lat="42.93859" lon="-0.34133">
        <ele>1995</ele>
        <time>2021-03-03T10:29:16.527Z</time>
      </trkpt>
      <trkpt lat="42.93857" lon="-0.34137">
        <ele>1995</ele>
        <time>2021-03-03T10:29:21.531Z</time>
      </trkpt>
      <trkpt lat="42.93852" lon="-0.34147">
        <ele>1995</ele>
        <time>2021-03-03T10:30:15.534Z</time>
      </trkpt>
      <trkpt lat="42.93851" lon="-0.34149">
        <ele>1995</ele>
        <time>2021-03-03T10:30:20.571Z</time>
      </trkpt>
      <trkpt lat="42.9385" lon="-0.3415">
        <ele>1995</ele>
        <time>2021-03-03T10:30:25.537Z</time>
      </trkpt>
      <trkpt lat="42.93849" lon="-0.34152">
        <ele>1995</ele>
        <time>2021-03-03T10:30:30.535Z</time>
      </trkpt>
      <trkpt lat="42.93848" lon="-0.34153">
        <ele>1996</ele>
        <time>2021-03-03T10:30:34.528Z</time>
      </trkpt>
      <trkpt lat="42.93846" lon="-0.34155">
        <ele>2008</ele>
        <time>2021-03-03T10:30:39.576Z</time>
      </trkpt>
      <trkpt lat="42.93843" lon="-0.34153">
        <ele>2008</ele>
        <time>2021-03-03T10:30:44.532Z</time>
      </trkpt>
      <trkpt lat="42.93841" lon="-0.34152">
        <ele>2006</ele>
        <time>2021-03-03T10:30:48.531Z</time>
      </trkpt>
      <trkpt lat="42.93839" lon="-0.3415">
        <ele>2006</ele>
        <time>2021-03-03T10:30:53.534Z</time>
      </trkpt>
      <trkpt lat="42.93836" lon="-0.34149">
        <ele>2006</ele>
        <time>2021-03-03T10:30:57.560Z</time>
      </trkpt>
      <trkpt lat="42.93832" lon="-0.3415">
        <ele>2006</ele>
        <time>2021-03-03T10:31:07.535Z</time>
      </trkpt>
      <trkpt lat="42.93831" lon="-0.34151">
        <ele>2006</ele>
        <time>2021-03-03T10:31:12.539Z</time>
      </trkpt>
      <trkpt lat="42.93829" lon="-0.34152">
        <ele>2006</ele>
        <time>2021-03-03T10:31:16.560Z</time>
      </trkpt>
      <trkpt lat="42.93827" lon="-0.34154">
        <ele>2008</ele>
        <time>2021-03-03T10:31:20.569Z</time>
      </trkpt>
      <trkpt lat="42.93825" lon="-0.34155">
        <ele>2008</ele>
        <time>2021-03-03T10:31:24.574Z</time>
      </trkpt>
      <trkpt lat="42.93822" lon="-0.34158">
        <ele>2008</ele>
        <time>2021-03-03T10:31:29.533Z</time>
      </trkpt>
      <trkpt lat="42.93819" lon="-0.34161">
        <ele>2014</ele>
        <time>2021-03-03T10:31:34.537Z</time>
      </trkpt>
      <trkpt lat="42.93816" lon="-0.34164">
        <ele>2014</ele>
        <time>2021-03-03T10:31:39.528Z</time>
      </trkpt>
      <trkpt lat="42.93815" lon="-0.34167">
        <ele>2014</ele>
        <time>2021-03-03T10:31:44.537Z</time>
      </trkpt>
      <trkpt lat="42.93813" lon="-0.3417">
        <ele>2014</ele>
        <time>2021-03-03T10:31:49.567Z</time>
      </trkpt>
      <trkpt lat="42.93812" lon="-0.34172">
        <ele>2014</ele>
        <time>2021-03-03T10:31:54.530Z</time>
      </trkpt>
      <trkpt lat="42.93811" lon="-0.34174">
        <ele>2014</ele>
        <time>2021-03-03T10:31:59.529Z</time>
      </trkpt>
      <trkpt lat="42.93808" lon="-0.34175">
        <ele>2014</ele>
        <time>2021-03-03T10:32:04.536Z</time>
      </trkpt>
      <trkpt lat="42.93806" lon="-0.34178">
        <ele>2014</ele>
        <time>2021-03-03T10:32:09.534Z</time>
      </trkpt>
      <trkpt lat="42.93805" lon="-0.34182">
        <ele>2014</ele>
        <time>2021-03-03T10:33:22.531Z</time>
      </trkpt>
      <trkpt lat="42.93804" lon="-0.34185">
        <ele>2014</ele>
        <time>2021-03-03T10:33:27.537Z</time>
      </trkpt>
      <trkpt lat="42.93804" lon="-0.34187">
        <ele>2014</ele>
        <time>2021-03-03T10:33:32.538Z</time>
      </trkpt>
      <trkpt lat="42.93803" lon="-0.3419">
        <ele>2014</ele>
        <time>2021-03-03T10:33:37.528Z</time>
      </trkpt>
      <trkpt lat="42.93802" lon="-0.34194">
        <ele>2014</ele>
        <time>2021-03-03T10:33:42.532Z</time>
      </trkpt>
      <trkpt lat="42.938" lon="-0.34202">
        <ele>2014</ele>
        <time>2021-03-03T10:33:52.530Z</time>
      </trkpt>
      <trkpt lat="42.93799" lon="-0.34204">
        <ele>2014</ele>
        <time>2021-03-03T10:33:57.535Z</time>
      </trkpt>
      <trkpt lat="42.93799" lon="-0.34205">
        <ele>2014</ele>
        <time>2021-03-03T10:34:01.563Z</time>
      </trkpt>
      <trkpt lat="42.93798" lon="-0.34208">
        <ele>2014</ele>
        <time>2021-03-03T10:34:06.535Z</time>
      </trkpt>
      <trkpt lat="42.93797" lon="-0.34211">
        <ele>2014</ele>
        <time>2021-03-03T10:34:11.530Z</time>
      </trkpt>
      <trkpt lat="42.93796" lon="-0.34214">
        <ele>2014</ele>
        <time>2021-03-03T10:34:16.537Z</time>
      </trkpt>
      <trkpt lat="42.93796" lon="-0.34217">
        <ele>2014</ele>
        <time>2021-03-03T10:34:21.530Z</time>
      </trkpt>
      <trkpt lat="42.93795" lon="-0.3422">
        <ele>2014</ele>
        <time>2021-03-03T10:34:26.537Z</time>
      </trkpt>
      <trkpt lat="42.93794" lon="-0.34224">
        <ele>2014</ele>
        <time>2021-03-03T10:34:31.531Z</time>
      </trkpt>
      <trkpt lat="42.93794" lon="-0.34227">
        <ele>2014</ele>
        <time>2021-03-03T10:34:36.529Z</time>
      </trkpt>
      <trkpt lat="42.93793" lon="-0.34231">
        <ele>2014</ele>
        <time>2021-03-03T10:34:40.566Z</time>
      </trkpt>
      <trkpt lat="42.93793" lon="-0.34235">
        <ele>2014</ele>
        <time>2021-03-03T10:34:45.611Z</time>
      </trkpt>
      <trkpt lat="42.93794" lon="-0.34238">
        <ele>2017</ele>
        <time>2021-03-03T10:34:50.529Z</time>
      </trkpt>
      <trkpt lat="42.93794" lon="-0.34242">
        <ele>2017</ele>
        <time>2021-03-03T10:34:55.532Z</time>
      </trkpt>
      <trkpt lat="42.93795" lon="-0.34247">
        <ele>2017</ele>
        <time>2021-03-03T10:35:00.531Z</time>
      </trkpt>
      <trkpt lat="42.93792" lon="-0.34254">
        <ele>2017</ele>
        <time>2021-03-03T10:35:10.534Z</time>
      </trkpt>
      <trkpt lat="42.93791" lon="-0.34256">
        <ele>2027</ele>
        <time>2021-03-03T10:35:14.532Z</time>
      </trkpt>
      <trkpt lat="42.93791" lon="-0.34259">
        <ele>2027</ele>
        <time>2021-03-03T10:35:19.532Z</time>
      </trkpt>
      <trkpt lat="42.93792" lon="-0.34262">
        <ele>2017</ele>
        <time>2021-03-03T10:35:24.533Z</time>
      </trkpt>
      <trkpt lat="42.93792" lon="-0.34266">
        <ele>2013</ele>
        <time>2021-03-03T10:35:29.532Z</time>
      </trkpt>
      <trkpt lat="42.93791" lon="-0.34272">
        <ele>2032</ele>
        <time>2021-03-03T10:35:39.535Z</time>
      </trkpt>
      <trkpt lat="42.93789" lon="-0.34274">
        <ele>2032</ele>
        <time>2021-03-03T10:35:44.530Z</time>
      </trkpt>
      <trkpt lat="42.93786" lon="-0.34275">
        <ele>2032</ele>
        <time>2021-03-03T10:35:49.535Z</time>
      </trkpt>
      <trkpt lat="42.93785" lon="-0.34277">
        <ele>2032</ele>
        <time>2021-03-03T10:35:53.534Z</time>
      </trkpt>
      <trkpt lat="42.93785" lon="-0.3428">
        <ele>2032</ele>
        <time>2021-03-03T10:35:58.534Z</time>
      </trkpt>
      <trkpt lat="42.93781" lon="-0.34293">
        <ele>2034</ele>
        <time>2021-03-03T10:36:41.535Z</time>
      </trkpt>
      <trkpt lat="42.93781" lon="-0.34293">
        <ele>2034</ele>
        <time>2021-03-03T10:36:46.534Z</time>
      </trkpt>
      <trkpt lat="42.93781" lon="-0.34293">
        <ele>2034</ele>
        <time>2021-03-03T10:36:51.532Z</time>
      </trkpt>
      <trkpt lat="42.93779" lon="-0.34295">
        <ele>2034</ele>
        <time>2021-03-03T10:36:55.531Z</time>
      </trkpt>
      <trkpt lat="42.93777" lon="-0.34297">
        <ele>2034</ele>
        <time>2021-03-03T10:37:00.531Z</time>
      </trkpt>
      <trkpt lat="42.93774" lon="-0.34302">
        <ele>2034</ele>
        <time>2021-03-03T10:37:10.539Z</time>
      </trkpt>
      <trkpt lat="42.93773" lon="-0.34304">
        <ele>2034</ele>
        <time>2021-03-03T10:37:15.530Z</time>
      </trkpt>
      <trkpt lat="42.93773" lon="-0.34305">
        <ele>2034</ele>
        <time>2021-03-03T10:37:20.535Z</time>
      </trkpt>
      <trkpt lat="42.93772" lon="-0.34307">
        <ele>2034</ele>
        <time>2021-03-03T10:37:24.528Z</time>
      </trkpt>
      <trkpt lat="42.9377" lon="-0.34311">
        <ele>2034</ele>
        <time>2021-03-03T10:37:29.532Z</time>
      </trkpt>
      <trkpt lat="42.93767" lon="-0.34315">
        <ele>2034</ele>
        <time>2021-03-03T10:37:34.528Z</time>
      </trkpt>
      <trkpt lat="42.93765" lon="-0.34318">
        <ele>2034</ele>
        <time>2021-03-03T10:37:39.531Z</time>
      </trkpt>
      <trkpt lat="42.93762" lon="-0.34322">
        <ele>2050</ele>
        <time>2021-03-03T10:37:44.533Z</time>
      </trkpt>
      <trkpt lat="42.93761" lon="-0.34325">
        <ele>2050</ele>
        <time>2021-03-03T10:37:49.570Z</time>
      </trkpt>
      <trkpt lat="42.93762" lon="-0.34325">
        <ele>2050</ele>
        <time>2021-03-03T10:39:56.534Z</time>
      </trkpt>
      <trkpt lat="42.9376" lon="-0.34329">
        <ele>2050</ele>
        <time>2021-03-03T10:40:01.529Z</time>
      </trkpt>
      <trkpt lat="42.93758" lon="-0.34333">
        <ele>2050</ele>
        <time>2021-03-03T10:40:06.533Z</time>
      </trkpt>
      <trkpt lat="42.93757" lon="-0.34336">
        <ele>2050</ele>
        <time>2021-03-03T10:40:11.528Z</time>
      </trkpt>
      <trkpt lat="42.93755" lon="-0.34339">
        <ele>2050</ele>
        <time>2021-03-03T10:40:15.537Z</time>
      </trkpt>
      <trkpt lat="42.93753" lon="-0.34343">
        <ele>2050</ele>
        <time>2021-03-03T10:40:20.533Z</time>
      </trkpt>
      <trkpt lat="42.93751" lon="-0.34346">
        <ele>2050</ele>
        <time>2021-03-03T10:40:25.533Z</time>
      </trkpt>
      <trkpt lat="42.9375" lon="-0.3435">
        <ele>2049</ele>
        <time>2021-03-03T10:40:30.532Z</time>
      </trkpt>
      <trkpt lat="42.93748" lon="-0.34354">
        <ele>2049</ele>
        <time>2021-03-03T10:40:35.532Z</time>
      </trkpt>
      <trkpt lat="42.93745" lon="-0.34362">
        <ele>2049</ele>
        <time>2021-03-03T10:40:45.531Z</time>
      </trkpt>
      <trkpt lat="42.93744" lon="-0.34365">
        <ele>2049</ele>
        <time>2021-03-03T10:40:49.528Z</time>
      </trkpt>
      <trkpt lat="42.93744" lon="-0.34366">
        <ele>2049</ele>
        <time>2021-03-03T10:40:54.527Z</time>
      </trkpt>
      <trkpt lat="42.93743" lon="-0.34367">
        <ele>2049</ele>
        <time>2021-03-03T10:40:59.532Z</time>
      </trkpt>
      <trkpt lat="42.9374" lon="-0.34371">
        <ele>2049</ele>
        <time>2021-03-03T10:41:04.529Z</time>
      </trkpt>
      <trkpt lat="42.93738" lon="-0.34375">
        <ele>2049</ele>
        <time>2021-03-03T10:41:09.530Z</time>
      </trkpt>
      <trkpt lat="42.93737" lon="-0.34378">
        <ele>2049</ele>
        <time>2021-03-03T10:41:14.559Z</time>
      </trkpt>
      <trkpt lat="42.93735" lon="-0.34381">
        <ele>2058</ele>
        <time>2021-03-03T10:41:18.568Z</time>
      </trkpt>
      <trkpt lat="42.93733" lon="-0.34385">
        <ele>2058</ele>
        <time>2021-03-03T10:41:23.560Z</time>
      </trkpt>
      <trkpt lat="42.93731" lon="-0.34388">
        <ele>2058</ele>
        <time>2021-03-03T10:41:28.530Z</time>
      </trkpt>
      <trkpt lat="42.93731" lon="-0.34388">
        <ele>2058</ele>
        <time>2021-03-03T10:41:37.532Z</time>
      </trkpt>
      <trkpt lat="42.9373" lon="-0.34391">
        <ele>2058</ele>
        <time>2021-03-03T10:41:42.534Z</time>
      </trkpt>
      <trkpt lat="42.93728" lon="-0.34394">
        <ele>2058</ele>
        <time>2021-03-03T10:41:46.564Z</time>
      </trkpt>
      <trkpt lat="42.93727" lon="-0.34397">
        <ele>2058</ele>
        <time>2021-03-03T10:41:51.535Z</time>
      </trkpt>
      <trkpt lat="42.93725" lon="-0.34398">
        <ele>2058</ele>
        <time>2021-03-03T10:41:56.538Z</time>
      </trkpt>
      <trkpt lat="42.93721" lon="-0.34406">
        <ele>2060</ele>
        <time>2021-03-03T10:42:06.536Z</time>
      </trkpt>
      <trkpt lat="42.93719" lon="-0.34409">
        <ele>2060</ele>
        <time>2021-03-03T10:42:11.531Z</time>
      </trkpt>
      <trkpt lat="42.93719" lon="-0.3441">
        <ele>2060</ele>
        <time>2021-03-03T10:42:16.531Z</time>
      </trkpt>
      <trkpt lat="42.93719" lon="-0.3441">
        <ele>2060</ele>
        <time>2021-03-03T10:42:20.562Z</time>
      </trkpt>
      <trkpt lat="42.93717" lon="-0.34412">
        <ele>2060</ele>
        <time>2021-03-03T10:42:25.536Z</time>
      </trkpt>
      <trkpt lat="42.93712" lon="-0.34417">
        <ele>2060</ele>
        <time>2021-03-03T10:42:34.565Z</time>
      </trkpt>
      <trkpt lat="42.93709" lon="-0.3442">
        <ele>2060</ele>
        <time>2021-03-03T10:42:39.571Z</time>
      </trkpt>
      <trkpt lat="42.93709" lon="-0.34421">
        <ele>2060</ele>
        <time>2021-03-03T10:42:44.538Z</time>
      </trkpt>
      <trkpt lat="42.93708" lon="-0.34423">
        <ele>2068</ele>
        <time>2021-03-03T10:42:48.596Z</time>
      </trkpt>
      <trkpt lat="42.93706" lon="-0.34425">
        <ele>2068</ele>
        <time>2021-03-03T10:42:53.536Z</time>
      </trkpt>
      <trkpt lat="42.93703" lon="-0.34427">
        <ele>2068</ele>
        <time>2021-03-03T10:42:58.537Z</time>
      </trkpt>
      <trkpt lat="42.937" lon="-0.34428">
        <ele>2068</ele>
        <time>2021-03-03T10:43:03.536Z</time>
      </trkpt>
      <trkpt lat="42.93696" lon="-0.34428">
        <ele>2068</ele>
        <time>2021-03-03T10:43:08.532Z</time>
      </trkpt>
      <trkpt lat="42.93691" lon="-0.34429">
        <ele>2068</ele>
        <time>2021-03-03T10:43:13.539Z</time>
      </trkpt>
      <trkpt lat="42.93675" lon="-0.34428">
        <ele>2074</ele>
        <time>2021-03-03T10:45:08.538Z</time>
      </trkpt>
      <trkpt lat="42.93675" lon="-0.34428">
        <ele>2074</ele>
        <time>2021-03-03T10:45:13.532Z</time>
      </trkpt>
      <trkpt lat="42.93675" lon="-0.34428">
        <ele>2074</ele>
        <time>2021-03-03T10:45:17.554Z</time>
      </trkpt>
      <trkpt lat="42.93675" lon="-0.34427">
        <ele>2074</ele>
        <time>2021-03-03T10:45:22.536Z</time>
      </trkpt>
      <trkpt lat="42.93675" lon="-0.34428">
        <ele>2074</ele>
        <time>2021-03-03T10:45:26.639Z</time>
      </trkpt>
      <trkpt lat="42.93674" lon="-0.34428">
        <ele>2074</ele>
        <time>2021-03-03T10:51:36.530Z</time>
      </trkpt>
      <trkpt lat="42.93673" lon="-0.34427">
        <ele>2074</ele>
        <time>2021-03-03T10:51:40.563Z</time>
      </trkpt>
      <trkpt lat="42.9367" lon="-0.34425">
        <ele>2074</ele>
        <time>2021-03-03T10:51:45.587Z</time>
      </trkpt>
      <trkpt lat="42.93667" lon="-0.34424">
        <ele>2074</ele>
        <time>2021-03-03T10:51:50.560Z</time>
      </trkpt>
      <trkpt lat="42.93664" lon="-0.34424">
        <ele>2074</ele>
        <time>2021-03-03T10:51:55.568Z</time>
      </trkpt>
      <trkpt lat="42.93659" lon="-0.34421">
        <ele>2074</ele>
        <time>2021-03-03T10:52:05.538Z</time>
      </trkpt>
      <trkpt lat="42.93657" lon="-0.34421">
        <ele>2074</ele>
        <time>2021-03-03T10:52:09.566Z</time>
      </trkpt>
      <trkpt lat="42.93655" lon="-0.3442">
        <ele>2074</ele>
        <time>2021-03-03T10:52:13.607Z</time>
      </trkpt>
      <trkpt lat="42.93653" lon="-0.3442">
        <ele>2077</ele>
        <time>2021-03-03T10:52:18.562Z</time>
      </trkpt>
      <trkpt lat="42.93649" lon="-0.34418">
        <ele>2077</ele>
        <time>2021-03-03T10:52:23.534Z</time>
      </trkpt>
      <trkpt lat="42.93646" lon="-0.34416">
        <ele>2077</ele>
        <time>2021-03-03T10:52:28.590Z</time>
      </trkpt>
      <trkpt lat="42.93642" lon="-0.34413">
        <ele>2077</ele>
        <time>2021-03-03T10:52:33.565Z</time>
      </trkpt>
      <trkpt lat="42.93638" lon="-0.3441">
        <ele>2077</ele>
        <time>2021-03-03T10:52:38.567Z</time>
      </trkpt>
      <trkpt lat="42.93635" lon="-0.34408">
        <ele>2077</ele>
        <time>2021-03-03T10:52:43.580Z</time>
      </trkpt>
      <trkpt lat="42.93632" lon="-0.34406">
        <ele>2077</ele>
        <time>2021-03-03T10:52:48.532Z</time>
      </trkpt>
      <trkpt lat="42.93628" lon="-0.34403">
        <ele>2077</ele>
        <time>2021-03-03T10:52:53.535Z</time>
      </trkpt>
      <trkpt lat="42.93625" lon="-0.34401">
        <ele>2080</ele>
        <time>2021-03-03T10:52:58.537Z</time>
      </trkpt>
      <trkpt lat="42.93624" lon="-0.34399">
        <ele>2083</ele>
        <time>2021-03-03T10:53:02.531Z</time>
      </trkpt>
      <trkpt lat="42.93621" lon="-0.34395">
        <ele>2083</ele>
        <time>2021-03-03T10:53:07.533Z</time>
      </trkpt>
      <trkpt lat="42.93617" lon="-0.3439">
        <ele>2083</ele>
        <time>2021-03-03T10:53:12.534Z</time>
      </trkpt>
      <trkpt lat="42.93615" lon="-0.34387">
        <ele>2083</ele>
        <time>2021-03-03T10:53:16.567Z</time>
      </trkpt>
      <trkpt lat="42.93612" lon="-0.34384">
        <ele>2083</ele>
        <time>2021-03-03T10:53:21.533Z</time>
      </trkpt>
      <trkpt lat="42.93611" lon="-0.34382">
        <ele>2083</ele>
        <time>2021-03-03T10:53:25.562Z</time>
      </trkpt>
      <trkpt lat="42.93609" lon="-0.3438">
        <ele>2083</ele>
        <time>2021-03-03T10:53:30.533Z</time>
      </trkpt>
      <trkpt lat="42.93606" lon="-0.34378">
        <ele>2083</ele>
        <time>2021-03-03T10:53:35.530Z</time>
      </trkpt>
      <trkpt lat="42.93603" lon="-0.34377">
        <ele>2083</ele>
        <time>2021-03-03T10:53:40.530Z</time>
      </trkpt>
      <trkpt lat="42.93598" lon="-0.34375">
        <ele>2083</ele>
        <time>2021-03-03T10:53:49.565Z</time>
      </trkpt>
      <trkpt lat="42.93596" lon="-0.34375">
        <ele>2088</ele>
        <time>2021-03-03T10:53:54.528Z</time>
      </trkpt>
      <trkpt lat="42.93594" lon="-0.34374">
        <ele>2092</ele>
        <time>2021-03-03T10:53:58.552Z</time>
      </trkpt>
      <trkpt lat="42.93591" lon="-0.34375">
        <ele>2092</ele>
        <time>2021-03-03T10:54:02.560Z</time>
      </trkpt>
      <trkpt lat="42.93589" lon="-0.34375">
        <ele>2092</ele>
        <time>2021-03-03T10:54:07.565Z</time>
      </trkpt>
      <trkpt lat="42.93586" lon="-0.34375">
        <ele>2088</ele>
        <time>2021-03-03T10:54:12.526Z</time>
      </trkpt>
      <trkpt lat="42.93583" lon="-0.34375">
        <ele>2088</ele>
        <time>2021-03-03T10:54:17.565Z</time>
      </trkpt>
      <trkpt lat="42.9358" lon="-0.34377">
        <ele>2088</ele>
        <time>2021-03-03T10:54:22.537Z</time>
      </trkpt>
      <trkpt lat="42.93578" lon="-0.34376">
        <ele>2088</ele>
        <time>2021-03-03T10:54:26.571Z</time>
      </trkpt>
      <trkpt lat="42.93576" lon="-0.34374">
        <ele>2092</ele>
        <time>2021-03-03T10:54:31.563Z</time>
      </trkpt>
      <trkpt lat="42.93577" lon="-0.34366">
        <ele>2092</ele>
        <time>2021-03-03T10:54:46.531Z</time>
      </trkpt>
      <trkpt lat="42.93577" lon="-0.34364">
        <ele>2092</ele>
        <time>2021-03-03T10:54:50.637Z</time>
      </trkpt>
      <trkpt lat="42.93577" lon="-0.34362">
        <ele>2092</ele>
        <time>2021-03-03T10:54:55.530Z</time>
      </trkpt>
      <trkpt lat="42.93577" lon="-0.34361">
        <ele>2092</ele>
        <time>2021-03-03T10:55:00.527Z</time>
      </trkpt>
      <trkpt lat="42.93577" lon="-0.34358">
        <ele>2092</ele>
        <time>2021-03-03T10:55:05.529Z</time>
      </trkpt>
      <trkpt lat="42.93577" lon="-0.34356">
        <ele>2092</ele>
        <time>2021-03-03T10:55:10.536Z</time>
      </trkpt>
      <trkpt lat="42.93577" lon="-0.34352">
        <ele>2092</ele>
        <time>2021-03-03T10:55:15.582Z</time>
      </trkpt>
      <trkpt lat="42.93575" lon="-0.34349">
        <ele>2092</ele>
        <time>2021-03-03T10:55:20.530Z</time>
      </trkpt>
      <trkpt lat="42.93572" lon="-0.34349">
        <ele>2092</ele>
        <time>2021-03-03T10:55:25.530Z</time>
      </trkpt>
      <trkpt lat="42.93569" lon="-0.34351">
        <ele>2101</ele>
        <time>2021-03-03T10:55:30.535Z</time>
      </trkpt>
      <trkpt lat="42.93566" lon="-0.34352">
        <ele>2101</ele>
        <time>2021-03-03T10:55:34.560Z</time>
      </trkpt>
      <trkpt lat="42.93564" lon="-0.34354">
        <ele>2101</ele>
        <time>2021-03-03T10:55:39.563Z</time>
      </trkpt>
      <trkpt lat="42.93563" lon="-0.34354">
        <ele>2101</ele>
        <time>2021-03-03T10:55:44.534Z</time>
      </trkpt>
      <trkpt lat="42.93559" lon="-0.34355">
        <ele>2101</ele>
        <time>2021-03-03T10:55:49.533Z</time>
      </trkpt>
      <trkpt lat="42.93556" lon="-0.34356">
        <ele>2101</ele>
        <time>2021-03-03T10:55:54.529Z</time>
      </trkpt>
      <trkpt lat="42.93553" lon="-0.34357">
        <ele>2101</ele>
        <time>2021-03-03T10:55:59.535Z</time>
      </trkpt>
      <trkpt lat="42.93551" lon="-0.34358">
        <ele>2101</ele>
        <time>2021-03-03T10:56:04.531Z</time>
      </trkpt>
      <trkpt lat="42.93549" lon="-0.34358">
        <ele>2101</ele>
        <time>2021-03-03T10:56:09.532Z</time>
      </trkpt>
      <trkpt lat="42.93547" lon="-0.34359">
        <ele>2101</ele>
        <time>2021-03-03T10:56:14.530Z</time>
      </trkpt>
      <trkpt lat="42.93544" lon="-0.34359">
        <ele>2101</ele>
        <time>2021-03-03T10:56:19.538Z</time>
      </trkpt>
      <trkpt lat="42.93541" lon="-0.34359">
        <ele>2104</ele>
        <time>2021-03-03T10:56:24.532Z</time>
      </trkpt>
      <trkpt lat="42.93539" lon="-0.34356">
        <ele>2104</ele>
        <time>2021-03-03T10:56:29.532Z</time>
      </trkpt>
      <trkpt lat="42.9354" lon="-0.34352">
        <ele>2104</ele>
        <time>2021-03-03T10:56:34.556Z</time>
      </trkpt>
      <trkpt lat="42.93542" lon="-0.34349">
        <ele>2104</ele>
        <time>2021-03-03T10:56:39.531Z</time>
      </trkpt>
      <trkpt lat="42.93543" lon="-0.34346">
        <ele>2110</ele>
        <time>2021-03-03T10:56:44.532Z</time>
      </trkpt>
      <trkpt lat="42.93541" lon="-0.34339">
        <ele>2112</ele>
        <time>2021-03-03T10:57:04.558Z</time>
      </trkpt>
      <trkpt lat="42.93538" lon="-0.3434">
        <ele>2112</ele>
        <time>2021-03-03T10:57:09.529Z</time>
      </trkpt>
      <trkpt lat="42.93535" lon="-0.34339">
        <ele>2112</ele>
        <time>2021-03-03T10:57:14.531Z</time>
      </trkpt>
      <trkpt lat="42.93531" lon="-0.3434">
        <ele>2112</ele>
        <time>2021-03-03T10:57:19.530Z</time>
      </trkpt>
      <trkpt lat="42.93528" lon="-0.34341">
        <ele>2112</ele>
        <time>2021-03-03T10:57:24.529Z</time>
      </trkpt>
      <trkpt lat="42.93519" lon="-0.34337">
        <ele>2112</ele>
        <time>2021-03-03T10:57:51.801Z</time>
      </trkpt>
      <trkpt lat="42.93521" lon="-0.34332">
        <ele>2112</ele>
        <time>2021-03-03T10:57:56.531Z</time>
      </trkpt>
      <trkpt lat="42.93522" lon="-0.3433">
        <ele>2112</ele>
        <time>2021-03-03T10:58:01.533Z</time>
      </trkpt>
      <trkpt lat="42.93523" lon="-0.34328">
        <ele>2112</ele>
        <time>2021-03-03T10:58:05.532Z</time>
      </trkpt>
      <trkpt lat="42.93525" lon="-0.34326">
        <ele>2112</ele>
        <time>2021-03-03T10:58:10.536Z</time>
      </trkpt>
      <trkpt lat="42.93525" lon="-0.34324">
        <ele>2112</ele>
        <time>2021-03-03T10:58:15.531Z</time>
      </trkpt>
      <trkpt lat="42.93526" lon="-0.34321">
        <ele>2112</ele>
        <time>2021-03-03T10:58:20.534Z</time>
      </trkpt>
      <trkpt lat="42.93527" lon="-0.34318">
        <ele>2123</ele>
        <time>2021-03-03T10:58:25.533Z</time>
      </trkpt>
      <trkpt lat="42.93528" lon="-0.34315">
        <ele>2123</ele>
        <time>2021-03-03T10:58:30.531Z</time>
      </trkpt>
      <trkpt lat="42.93529" lon="-0.34312">
        <ele>2123</ele>
        <time>2021-03-03T10:58:35.534Z</time>
      </trkpt>
      <trkpt lat="42.93532" lon="-0.34306">
        <ele>2123</ele>
        <time>2021-03-03T10:58:49.529Z</time>
      </trkpt>
      <trkpt lat="42.93532" lon="-0.34304">
        <ele>2123</ele>
        <time>2021-03-03T10:58:53.556Z</time>
      </trkpt>
      <trkpt lat="42.93529" lon="-0.34301">
        <ele>2123</ele>
        <time>2021-03-03T10:58:58.531Z</time>
      </trkpt>
      <trkpt lat="42.93526" lon="-0.34301">
        <ele>2123</ele>
        <time>2021-03-03T10:59:02.560Z</time>
      </trkpt>
      <trkpt lat="42.93524" lon="-0.34302">
        <ele>2123</ele>
        <time>2021-03-03T10:59:06.733Z</time>
      </trkpt>
      <trkpt lat="42.93521" lon="-0.34304">
        <ele>2123</ele>
        <time>2021-03-03T10:59:11.528Z</time>
      </trkpt>
      <trkpt lat="42.93518" lon="-0.34304">
        <ele>2123</ele>
        <time>2021-03-03T10:59:16.644Z</time>
      </trkpt>
      <trkpt lat="42.93516" lon="-0.34306">
        <ele>2123</ele>
        <time>2021-03-03T10:59:21.805Z</time>
      </trkpt>
      <trkpt lat="42.93514" lon="-0.34308">
        <ele>2123</ele>
        <time>2021-03-03T10:59:26.532Z</time>
      </trkpt>
      <trkpt lat="42.93512" lon="-0.34308">
        <ele>2132</ele>
        <time>2021-03-03T10:59:31.528Z</time>
      </trkpt>
      <trkpt lat="42.93508" lon="-0.34311">
        <ele>2132</ele>
        <time>2021-03-03T10:59:41.534Z</time>
      </trkpt>
      <trkpt lat="42.93505" lon="-0.34312">
        <ele>2132</ele>
        <time>2021-03-03T10:59:46.531Z</time>
      </trkpt>
      <trkpt lat="42.93504" lon="-0.34313">
        <ele>2132</ele>
        <time>2021-03-03T10:59:51.534Z</time>
      </trkpt>
      <trkpt lat="42.93503" lon="-0.34314">
        <ele>2132</ele>
        <time>2021-03-03T10:59:56.532Z</time>
      </trkpt>
      <trkpt lat="42.93502" lon="-0.34315">
        <ele>2132</ele>
        <time>2021-03-03T11:00:00.529Z</time>
      </trkpt>
      <trkpt lat="42.93497" lon="-0.34318">
        <ele>2132</ele>
        <time>2021-03-03T11:00:10.530Z</time>
      </trkpt>
      <trkpt lat="42.93495" lon="-0.34318">
        <ele>2132</ele>
        <time>2021-03-03T11:00:15.529Z</time>
      </trkpt>
      <trkpt lat="42.93493" lon="-0.34319">
        <ele>2132</ele>
        <time>2021-03-03T11:00:20.531Z</time>
      </trkpt>
      <trkpt lat="42.93491" lon="-0.34319">
        <ele>2132</ele>
        <time>2021-03-03T11:00:25.529Z</time>
      </trkpt>
      <trkpt lat="42.93489" lon="-0.34319">
        <ele>2122</ele>
        <time>2021-03-03T11:00:30.534Z</time>
      </trkpt>
      <trkpt lat="42.93485" lon="-0.34322">
        <ele>2130</ele>
        <time>2021-03-03T11:00:40.535Z</time>
      </trkpt>
      <trkpt lat="42.93483" lon="-0.34324">
        <ele>2130</ele>
        <time>2021-03-03T11:00:44.559Z</time>
      </trkpt>
      <trkpt lat="42.93481" lon="-0.34325">
        <ele>2130</ele>
        <time>2021-03-03T11:00:49.529Z</time>
      </trkpt>
      <trkpt lat="42.93479" lon="-0.34326">
        <ele>2130</ele>
        <time>2021-03-03T11:00:54.530Z</time>
      </trkpt>
      <trkpt lat="42.93477" lon="-0.34327">
        <ele>2130</ele>
        <time>2021-03-03T11:00:59.528Z</time>
      </trkpt>
      <trkpt lat="42.93473" lon="-0.34329">
        <ele>2130</ele>
        <time>2021-03-03T11:01:09.534Z</time>
      </trkpt>
      <trkpt lat="42.93471" lon="-0.34329">
        <ele>2130</ele>
        <time>2021-03-03T11:01:14.632Z</time>
      </trkpt>
      <trkpt lat="42.93469" lon="-0.3433">
        <ele>2130</ele>
        <time>2021-03-03T11:01:19.529Z</time>
      </trkpt>
      <trkpt lat="42.93468" lon="-0.34332">
        <ele>2130</ele>
        <time>2021-03-03T11:01:24.532Z</time>
      </trkpt>
      <trkpt lat="42.93466" lon="-0.34334">
        <ele>2130</ele>
        <time>2021-03-03T11:01:29.527Z</time>
      </trkpt>
      <trkpt lat="42.93457" lon="-0.34332">
        <ele>2144</ele>
        <time>2021-03-03T11:02:41.537Z</time>
      </trkpt>
      <trkpt lat="42.93458" lon="-0.3433">
        <ele>2144</ele>
        <time>2021-03-03T11:02:46.535Z</time>
      </trkpt>
      <trkpt lat="42.93458" lon="-0.34326">
        <ele>2144</ele>
        <time>2021-03-03T11:02:51.538Z</time>
      </trkpt>
      <trkpt lat="42.93458" lon="-0.34323">
        <ele>2144</ele>
        <time>2021-03-03T11:02:55.531Z</time>
      </trkpt>
      <trkpt lat="42.93459" lon="-0.34319">
        <ele>2142</ele>
        <time>2021-03-03T11:03:00.532Z</time>
      </trkpt>
      <trkpt lat="42.93459" lon="-0.34315">
        <ele>2142</ele>
        <time>2021-03-03T11:03:05.536Z</time>
      </trkpt>
      <trkpt lat="42.9346" lon="-0.34312">
        <ele>2142</ele>
        <time>2021-03-03T11:03:10.537Z</time>
      </trkpt>
      <trkpt lat="42.9346" lon="-0.34308">
        <ele>2142</ele>
        <time>2021-03-03T11:03:15.547Z</time>
      </trkpt>
      <trkpt lat="42.9346" lon="-0.34304">
        <ele>2142</ele>
        <time>2021-03-03T11:03:20.535Z</time>
      </trkpt>
      <trkpt lat="42.93459" lon="-0.34301">
        <ele>2142</ele>
        <time>2021-03-03T11:03:25.641Z</time>
      </trkpt>
      <trkpt lat="42.93456" lon="-0.34296">
        <ele>2153</ele>
        <time>2021-03-03T11:04:05.529Z</time>
      </trkpt>
      <trkpt lat="42.93454" lon="-0.34298">
        <ele>2153</ele>
        <time>2021-03-03T11:04:10.535Z</time>
      </trkpt>
      <trkpt lat="42.93451" lon="-0.34298">
        <ele>2153</ele>
        <time>2021-03-03T11:04:15.534Z</time>
      </trkpt>
      <trkpt lat="42.93449" lon="-0.343">
        <ele>2153</ele>
        <time>2021-03-03T11:04:20.535Z</time>
      </trkpt>
      <trkpt lat="42.93447" lon="-0.34301">
        <ele>2153</ele>
        <time>2021-03-03T11:04:24.533Z</time>
      </trkpt>
      <trkpt lat="42.93445" lon="-0.34302">
        <ele>2153</ele>
        <time>2021-03-03T11:04:28.794Z</time>
      </trkpt>
      <trkpt lat="42.93442" lon="-0.34303">
        <ele>2153</ele>
        <time>2021-03-03T11:04:33.530Z</time>
      </trkpt>
      <trkpt lat="42.93439" lon="-0.34303">
        <ele>2153</ele>
        <time>2021-03-03T11:04:38.529Z</time>
      </trkpt>
      <trkpt lat="42.93437" lon="-0.34304">
        <ele>2153</ele>
        <time>2021-03-03T11:04:43.532Z</time>
      </trkpt>
      <trkpt lat="42.93435" lon="-0.34305">
        <ele>2153</ele>
        <time>2021-03-03T11:04:47.725Z</time>
      </trkpt>
      <trkpt lat="42.93432" lon="-0.34304">
        <ele>2153</ele>
        <time>2021-03-03T11:04:52.536Z</time>
      </trkpt>
      <trkpt lat="42.93429" lon="-0.34306">
        <ele>2162</ele>
        <time>2021-03-03T11:04:57.532Z</time>
      </trkpt>
      <trkpt lat="42.93427" lon="-0.34308">
        <ele>2162</ele>
        <time>2021-03-03T11:05:02.534Z</time>
      </trkpt>
      <trkpt lat="42.93424" lon="-0.34309">
        <ele>2162</ele>
        <time>2021-03-03T11:05:07.533Z</time>
      </trkpt>
      <trkpt lat="42.93421" lon="-0.34309">
        <ele>2162</ele>
        <time>2021-03-03T11:05:11.529Z</time>
      </trkpt>
      <trkpt lat="42.93415" lon="-0.34307">
        <ele>2162</ele>
        <time>2021-03-03T11:05:26.531Z</time>
      </trkpt>
      <trkpt lat="42.93414" lon="-0.34308">
        <ele>2162</ele>
        <time>2021-03-03T11:05:31.530Z</time>
      </trkpt>
      <trkpt lat="42.93413" lon="-0.34308">
        <ele>2162</ele>
        <time>2021-03-03T11:05:36.530Z</time>
      </trkpt>
      <trkpt lat="42.93411" lon="-0.34307">
        <ele>2162</ele>
        <time>2021-03-03T11:05:40.528Z</time>
      </trkpt>
      <trkpt lat="42.93409" lon="-0.34305">
        <ele>2162</ele>
        <time>2021-03-03T11:05:45.534Z</time>
      </trkpt>
      <trkpt lat="42.93401" lon="-0.34295">
        <ele>2169</ele>
        <time>2021-03-03T11:07:55.530Z</time>
      </trkpt>
      <trkpt lat="42.934" lon="-0.34295">
        <ele>2169</ele>
        <time>2021-03-03T11:08:00.532Z</time>
      </trkpt>
      <trkpt lat="42.934" lon="-0.34295">
        <ele>2169</ele>
        <time>2021-03-03T11:08:05.539Z</time>
      </trkpt>
      <trkpt lat="42.934" lon="-0.34295">
        <ele>2169</ele>
        <time>2021-03-03T11:08:10.534Z</time>
      </trkpt>
      <trkpt lat="42.934" lon="-0.34294">
        <ele>2169</ele>
        <time>2021-03-03T11:08:14.555Z</time>
      </trkpt>
      <trkpt lat="42.934" lon="-0.34296">
        <ele>2169</ele>
        <time>2021-03-03T11:09:08.534Z</time>
      </trkpt>
      <trkpt lat="42.93398" lon="-0.34293">
        <ele>2169</ele>
        <time>2021-03-03T11:09:12.559Z</time>
      </trkpt>
      <trkpt lat="42.93394" lon="-0.3429">
        <ele>2173</ele>
        <time>2021-03-03T11:09:17.534Z</time>
      </trkpt>
      <trkpt lat="42.93391" lon="-0.34289">
        <ele>2173</ele>
        <time>2021-03-03T11:09:22.533Z</time>
      </trkpt>
      <trkpt lat="42.93387" lon="-0.34286">
        <ele>2173</ele>
        <time>2021-03-03T11:09:27.534Z</time>
      </trkpt>
      <trkpt lat="42.93383" lon="-0.34284">
        <ele>2173</ele>
        <time>2021-03-03T11:09:32.530Z</time>
      </trkpt>
      <trkpt lat="42.9338" lon="-0.34283">
        <ele>2173</ele>
        <time>2021-03-03T11:09:37.532Z</time>
      </trkpt>
      <trkpt lat="42.93376" lon="-0.34283">
        <ele>2173</ele>
        <time>2021-03-03T11:09:41.570Z</time>
      </trkpt>
      <trkpt lat="42.93373" lon="-0.34284">
        <ele>2180</ele>
        <time>2021-03-03T11:09:46.534Z</time>
      </trkpt>
      <trkpt lat="42.93353" lon="-0.34288">
        <ele>2180</ele>
        <time>2021-03-03T11:12:28.534Z</time>
      </trkpt>
      <trkpt lat="42.93352" lon="-0.34289">
        <ele>2180</ele>
        <time>2021-03-03T11:12:33.533Z</time>
      </trkpt>
      <trkpt lat="42.9335" lon="-0.34291">
        <ele>2180</ele>
        <time>2021-03-03T11:12:38.532Z</time>
      </trkpt>
      <trkpt lat="42.93348" lon="-0.34293">
        <ele>2175</ele>
        <time>2021-03-03T11:12:43.533Z</time>
      </trkpt>
      <trkpt lat="42.93346" lon="-0.34294">
        <ele>2185</ele>
        <time>2021-03-03T11:12:48.537Z</time>
      </trkpt>
      <trkpt lat="42.93339" lon="-0.34296">
        <ele>2185</ele>
        <time>2021-03-03T11:13:07.534Z</time>
      </trkpt>
      <trkpt lat="42.93337" lon="-0.34294">
        <ele>2185</ele>
        <time>2021-03-03T11:13:12.536Z</time>
      </trkpt>
      <trkpt lat="42.93336" lon="-0.34292">
        <ele>2185</ele>
        <time>2021-03-03T11:13:17.664Z</time>
      </trkpt>
      <trkpt lat="42.93335" lon="-0.34288">
        <ele>2189</ele>
        <time>2021-03-03T11:13:22.535Z</time>
      </trkpt>
      <trkpt lat="42.93335" lon="-0.34286">
        <ele>2189</ele>
        <time>2021-03-03T11:13:26.562Z</time>
      </trkpt>
      <trkpt lat="42.93334" lon="-0.34284">
        <ele>2189</ele>
        <time>2021-03-03T11:13:31.534Z</time>
      </trkpt>
      <trkpt lat="42.93333" lon="-0.34281">
        <ele>2189</ele>
        <time>2021-03-03T11:13:36.529Z</time>
      </trkpt>
      <trkpt lat="42.93331" lon="-0.34279">
        <ele>2189</ele>
        <time>2021-03-03T11:13:41.773Z</time>
      </trkpt>
      <trkpt lat="42.9333" lon="-0.34276">
        <ele>2189</ele>
        <time>2021-03-03T11:13:46.529Z</time>
      </trkpt>
      <trkpt lat="42.93329" lon="-0.34272">
        <ele>2189</ele>
        <time>2021-03-03T11:13:51.532Z</time>
      </trkpt>
      <trkpt lat="42.93326" lon="-0.34268">
        <ele>2189</ele>
        <time>2021-03-03T11:14:01.528Z</time>
      </trkpt>
      <trkpt lat="42.93325" lon="-0.3427">
        <ele>2189</ele>
        <time>2021-03-03T11:14:05.526Z</time>
      </trkpt>
      <trkpt lat="42.93323" lon="-0.34272">
        <ele>2189</ele>
        <time>2021-03-03T11:14:10.533Z</time>
      </trkpt>
      <trkpt lat="42.93321" lon="-0.34275">
        <ele>2189</ele>
        <time>2021-03-03T11:14:15.537Z</time>
      </trkpt>
      <trkpt lat="42.93319" lon="-0.34277">
        <ele>2196</ele>
        <time>2021-03-03T11:14:20.532Z</time>
      </trkpt>
      <trkpt lat="42.93317" lon="-0.34279">
        <ele>2196</ele>
        <time>2021-03-03T11:14:25.534Z</time>
      </trkpt>
      <trkpt lat="42.93315" lon="-0.34281">
        <ele>2196</ele>
        <time>2021-03-03T11:14:30.530Z</time>
      </trkpt>
      <trkpt lat="42.93314" lon="-0.34283">
        <ele>2196</ele>
        <time>2021-03-03T11:14:35.556Z</time>
      </trkpt>
      <trkpt lat="42.93312" lon="-0.34285">
        <ele>2196</ele>
        <time>2021-03-03T11:14:39.768Z</time>
      </trkpt>
      <trkpt lat="42.9331" lon="-0.34287">
        <ele>2196</ele>
        <time>2021-03-03T11:14:44.529Z</time>
      </trkpt>
      <trkpt lat="42.93308" lon="-0.34289">
        <ele>2196</ele>
        <time>2021-03-03T11:14:49.536Z</time>
      </trkpt>
      <trkpt lat="42.93306" lon="-0.34291">
        <ele>2196</ele>
        <time>2021-03-03T11:14:53.530Z</time>
      </trkpt>
      <trkpt lat="42.93304" lon="-0.34293">
        <ele>2196</ele>
        <time>2021-03-03T11:14:57.785Z</time>
      </trkpt>
      <trkpt lat="42.93302" lon="-0.34295">
        <ele>2196</ele>
        <time>2021-03-03T11:15:02.528Z</time>
      </trkpt>
      <trkpt lat="42.93301" lon="-0.34297">
        <ele>2196</ele>
        <time>2021-03-03T11:15:07.720Z</time>
      </trkpt>
      <trkpt lat="42.93297" lon="-0.34301">
        <ele>2196</ele>
        <time>2021-03-03T11:15:17.532Z</time>
      </trkpt>
      <trkpt lat="42.93296" lon="-0.34303">
        <ele>2196</ele>
        <time>2021-03-03T11:15:22.784Z</time>
      </trkpt>
      <trkpt lat="42.93294" lon="-0.34305">
        <ele>2196</ele>
        <time>2021-03-03T11:15:27.528Z</time>
      </trkpt>
      <trkpt lat="42.93292" lon="-0.34307">
        <ele>2196</ele>
        <time>2021-03-03T11:15:32.531Z</time>
      </trkpt>
      <trkpt lat="42.93291" lon="-0.34309">
        <ele>2201</ele>
        <time>2021-03-03T11:15:37.531Z</time>
      </trkpt>
      <trkpt lat="42.93288" lon="-0.34314">
        <ele>2201</ele>
        <time>2021-03-03T11:15:47.533Z</time>
      </trkpt>
      <trkpt lat="42.93288" lon="-0.34317">
        <ele>2201</ele>
        <time>2021-03-03T11:15:52.694Z</time>
      </trkpt>
      <trkpt lat="42.93286" lon="-0.3432">
        <ele>2205</ele>
        <time>2021-03-03T11:15:57.768Z</time>
      </trkpt>
      <trkpt lat="42.93286" lon="-0.34322">
        <ele>2205</ele>
        <time>2021-03-03T11:16:02.530Z</time>
      </trkpt>
      <trkpt lat="42.93284" lon="-0.34323">
        <ele>2205</ele>
        <time>2021-03-03T11:16:06.750Z</time>
      </trkpt>
      <trkpt lat="42.93283" lon="-0.34327">
        <ele>2205</ele>
        <time>2021-03-03T11:16:16.533Z</time>
      </trkpt>
      <trkpt lat="42.93282" lon="-0.3433">
        <ele>2205</ele>
        <time>2021-03-03T11:16:21.529Z</time>
      </trkpt>
      <trkpt lat="42.93281" lon="-0.34333">
        <ele>2205</ele>
        <time>2021-03-03T11:16:25.721Z</time>
      </trkpt>
      <trkpt lat="42.9328" lon="-0.34336">
        <ele>2205</ele>
        <time>2021-03-03T11:16:30.529Z</time>
      </trkpt>
      <trkpt lat="42.93278" lon="-0.34339">
        <ele>2205</ele>
        <time>2021-03-03T11:16:35.532Z</time>
      </trkpt>
      <trkpt lat="42.93276" lon="-0.34344">
        <ele>2205</ele>
        <time>2021-03-03T11:16:44.532Z</time>
      </trkpt>
      <trkpt lat="42.93276" lon="-0.34347">
        <ele>2206</ele>
        <time>2021-03-03T11:16:49.532Z</time>
      </trkpt>
      <trkpt lat="42.93275" lon="-0.34349">
        <ele>2206</ele>
        <time>2021-03-03T11:16:54.536Z</time>
      </trkpt>
      <trkpt lat="42.93274" lon="-0.34352">
        <ele>2206</ele>
        <time>2021-03-03T11:16:59.534Z</time>
      </trkpt>
      <trkpt lat="42.93273" lon="-0.34354">
        <ele>2206</ele>
        <time>2021-03-03T11:17:04.535Z</time>
      </trkpt>
      <trkpt lat="42.93272" lon="-0.34356">
        <ele>2206</ele>
        <time>2021-03-03T11:17:08.634Z</time>
      </trkpt>
      <trkpt lat="42.93272" lon="-0.34359">
        <ele>2206</ele>
        <time>2021-03-03T11:17:13.536Z</time>
      </trkpt>
      <trkpt lat="42.93271" lon="-0.34362">
        <ele>2206</ele>
        <time>2021-03-03T11:17:18.535Z</time>
      </trkpt>
      <trkpt lat="42.93271" lon="-0.34365">
        <ele>2206</ele>
        <time>2021-03-03T11:17:23.533Z</time>
      </trkpt>
      <trkpt lat="42.9327" lon="-0.34368">
        <ele>2206</ele>
        <time>2021-03-03T11:17:28.531Z</time>
      </trkpt>
      <trkpt lat="42.93269" lon="-0.34371">
        <ele>2206</ele>
        <time>2021-03-03T11:17:32.846Z</time>
      </trkpt>
      <trkpt lat="42.93268" lon="-0.34375">
        <ele>2206</ele>
        <time>2021-03-03T11:17:37.530Z</time>
      </trkpt>
      <trkpt lat="42.93267" lon="-0.34378">
        <ele>2207</ele>
        <time>2021-03-03T11:17:42.532Z</time>
      </trkpt>
      <trkpt lat="42.93265" lon="-0.34381">
        <ele>2207</ele>
        <time>2021-03-03T11:17:47.530Z</time>
      </trkpt>
      <trkpt lat="42.93265" lon="-0.34383">
        <ele>2207</ele>
        <time>2021-03-03T11:17:51.703Z</time>
      </trkpt>
      <trkpt lat="42.93264" lon="-0.34385">
        <ele>2220</ele>
        <time>2021-03-03T11:17:56.531Z</time>
      </trkpt>
      <trkpt lat="42.93263" lon="-0.34388">
        <ele>2220</ele>
        <time>2021-03-03T11:18:01.560Z</time>
      </trkpt>
      <trkpt lat="42.93261" lon="-0.34391">
        <ele>2220</ele>
        <time>2021-03-03T11:18:06.532Z</time>
      </trkpt>
      <trkpt lat="42.93261" lon="-0.34395">
        <ele>2220</ele>
        <time>2021-03-03T11:18:11.534Z</time>
      </trkpt>
      <trkpt lat="42.9326" lon="-0.34398">
        <ele>2220</ele>
        <time>2021-03-03T11:18:16.531Z</time>
      </trkpt>
      <trkpt lat="42.9326" lon="-0.34402">
        <ele>2220</ele>
        <time>2021-03-03T11:18:20.769Z</time>
      </trkpt>
      <trkpt lat="42.9326" lon="-0.34406">
        <ele>2218</ele>
        <time>2021-03-03T11:18:25.768Z</time>
      </trkpt>
      <trkpt lat="42.93259" lon="-0.3441">
        <ele>2218</ele>
        <time>2021-03-03T11:18:30.528Z</time>
      </trkpt>
      <trkpt lat="42.93259" lon="-0.34414">
        <ele>2218</ele>
        <time>2021-03-03T11:18:35.533Z</time>
      </trkpt>
      <trkpt lat="42.93258" lon="-0.34417">
        <ele>2218</ele>
        <time>2021-03-03T11:18:40.535Z</time>
      </trkpt>
      <trkpt lat="42.93258" lon="-0.34421">
        <ele>2218</ele>
        <time>2021-03-03T11:18:45.675Z</time>
      </trkpt>
      <trkpt lat="42.93258" lon="-0.34425">
        <ele>2218</ele>
        <time>2021-03-03T11:18:50.531Z</time>
      </trkpt>
      <trkpt lat="42.93258" lon="-0.34428">
        <ele>2218</ele>
        <time>2021-03-03T11:18:55.534Z</time>
      </trkpt>
      <trkpt lat="42.93257" lon="-0.34432">
        <ele>2220</ele>
        <time>2021-03-03T11:19:00.532Z</time>
      </trkpt>
      <trkpt lat="42.93257" lon="-0.34438">
        <ele>2220</ele>
        <time>2021-03-03T11:19:09.531Z</time>
      </trkpt>
      <trkpt lat="42.93257" lon="-0.3444">
        <ele>2220</ele>
        <time>2021-03-03T11:19:14.533Z</time>
      </trkpt>
      <trkpt lat="42.93258" lon="-0.34443">
        <ele>2220</ele>
        <time>2021-03-03T11:19:19.534Z</time>
      </trkpt>
      <trkpt lat="42.93257" lon="-0.34445">
        <ele>2220</ele>
        <time>2021-03-03T11:19:24.696Z</time>
      </trkpt>
      <trkpt lat="42.93257" lon="-0.34448">
        <ele>2220</ele>
        <time>2021-03-03T11:19:29.529Z</time>
      </trkpt>
      <trkpt lat="42.93256" lon="-0.34451">
        <ele>2220</ele>
        <time>2021-03-03T11:19:34.537Z</time>
      </trkpt>
      <trkpt lat="42.93256" lon="-0.34453">
        <ele>2220</ele>
        <time>2021-03-03T11:19:39.533Z</time>
      </trkpt>
      <trkpt lat="42.93255" lon="-0.34456">
        <ele>2220</ele>
        <time>2021-03-03T11:19:44.538Z</time>
      </trkpt>
      <trkpt lat="42.93255" lon="-0.3446">
        <ele>2220</ele>
        <time>2021-03-03T11:19:49.530Z</time>
      </trkpt>
      <trkpt lat="42.93254" lon="-0.34463">
        <ele>2220</ele>
        <time>2021-03-03T11:19:54.535Z</time>
      </trkpt>
      <trkpt lat="42.93254" lon="-0.34471">
        <ele>2220</ele>
        <time>2021-03-03T11:20:14.527Z</time>
      </trkpt>
      <trkpt lat="42.93253" lon="-0.34474">
        <ele>2220</ele>
        <time>2021-03-03T11:20:19.537Z</time>
      </trkpt>
      <trkpt lat="42.93252" lon="-0.34477">
        <ele>2220</ele>
        <time>2021-03-03T11:20:23.531Z</time>
      </trkpt>
      <trkpt lat="42.93251" lon="-0.3448">
        <ele>2220</ele>
        <time>2021-03-03T11:20:28.533Z</time>
      </trkpt>
      <trkpt lat="42.9325" lon="-0.34484">
        <ele>2220</ele>
        <time>2021-03-03T11:20:33.534Z</time>
      </trkpt>
      <trkpt lat="42.93249" lon="-0.34487">
        <ele>2222</ele>
        <time>2021-03-03T11:20:38.534Z</time>
      </trkpt>
      <trkpt lat="42.93248" lon="-0.34491">
        <ele>2222</ele>
        <time>2021-03-03T11:20:43.530Z</time>
      </trkpt>
      <trkpt lat="42.93248" lon="-0.34495">
        <ele>2222</ele>
        <time>2021-03-03T11:20:48.536Z</time>
      </trkpt>
      <trkpt lat="42.93247" lon="-0.34498">
        <ele>2222</ele>
        <time>2021-03-03T11:20:53.534Z</time>
      </trkpt>
      <trkpt lat="42.93246" lon="-0.34501">
        <ele>2222</ele>
        <time>2021-03-03T11:20:57.562Z</time>
      </trkpt>
      <trkpt lat="42.93243" lon="-0.34511">
        <ele>2222</ele>
        <time>2021-03-03T11:21:12.536Z</time>
      </trkpt>
      <trkpt lat="42.93242" lon="-0.34514">
        <ele>2222</ele>
        <time>2021-03-03T11:21:16.536Z</time>
      </trkpt>
      <trkpt lat="42.93242" lon="-0.34516">
        <ele>2223</ele>
        <time>2021-03-03T11:21:21.532Z</time>
      </trkpt>
      <trkpt lat="42.93241" lon="-0.34516">
        <ele>2223</ele>
        <time>2021-03-03T11:21:25.532Z</time>
      </trkpt>
      <trkpt lat="42.93241" lon="-0.34516">
        <ele>2223</ele>
        <time>2021-03-03T11:21:30.529Z</time>
      </trkpt>
      <trkpt lat="42.93241" lon="-0.34519">
        <ele>2223</ele>
        <time>2021-03-03T11:21:35.535Z</time>
      </trkpt>
      <trkpt lat="42.9324" lon="-0.34523">
        <ele>2223</ele>
        <time>2021-03-03T11:21:40.536Z</time>
      </trkpt>
      <trkpt lat="42.9324" lon="-0.34527">
        <ele>2223</ele>
        <time>2021-03-03T11:21:45.536Z</time>
      </trkpt>
      <trkpt lat="42.93239" lon="-0.34532">
        <ele>2223</ele>
        <time>2021-03-03T11:21:50.537Z</time>
      </trkpt>
      <trkpt lat="42.93239" lon="-0.34535">
        <ele>2223</ele>
        <time>2021-03-03T11:21:55.562Z</time>
      </trkpt>
      <trkpt lat="42.93238" lon="-0.34537">
        <ele>2223</ele>
        <time>2021-03-03T11:22:00.541Z</time>
      </trkpt>
      <trkpt lat="42.93238" lon="-0.3454">
        <ele>2223</ele>
        <time>2021-03-03T11:22:05.534Z</time>
      </trkpt>
      <trkpt lat="42.93237" lon="-0.34543">
        <ele>2226</ele>
        <time>2021-03-03T11:22:10.535Z</time>
      </trkpt>
      <trkpt lat="42.93236" lon="-0.34547">
        <ele>2226</ele>
        <time>2021-03-03T11:22:15.533Z</time>
      </trkpt>
      <trkpt lat="42.93235" lon="-0.34549">
        <ele>2234</ele>
        <time>2021-03-03T11:22:20.531Z</time>
      </trkpt>
      <trkpt lat="42.93234" lon="-0.3455">
        <ele>2234</ele>
        <time>2021-03-03T11:22:25.535Z</time>
      </trkpt>
      <trkpt lat="42.93233" lon="-0.34555">
        <ele>2234</ele>
        <time>2021-03-03T11:22:30.530Z</time>
      </trkpt>
      <trkpt lat="42.93232" lon="-0.34557">
        <ele>2234</ele>
        <time>2021-03-03T11:22:35.532Z</time>
      </trkpt>
      <trkpt lat="42.9323" lon="-0.34561">
        <ele>2234</ele>
        <time>2021-03-03T11:22:40.531Z</time>
      </trkpt>
      <trkpt lat="42.93228" lon="-0.34565">
        <ele>2234</ele>
        <time>2021-03-03T11:22:45.536Z</time>
      </trkpt>
      <trkpt lat="42.93227" lon="-0.34568">
        <ele>2234</ele>
        <time>2021-03-03T11:22:50.537Z</time>
      </trkpt>
      <trkpt lat="42.93225" lon="-0.34572">
        <ele>2233</ele>
        <time>2021-03-03T11:22:55.534Z</time>
      </trkpt>
      <trkpt lat="42.93223" lon="-0.34576">
        <ele>2233</ele>
        <time>2021-03-03T11:23:00.531Z</time>
      </trkpt>
      <trkpt lat="42.93221" lon="-0.3458">
        <ele>2233</ele>
        <time>2021-03-03T11:23:05.560Z</time>
      </trkpt>
      <trkpt lat="42.9322" lon="-0.34584">
        <ele>2233</ele>
        <time>2021-03-03T11:23:10.534Z</time>
      </trkpt>
      <trkpt lat="42.93218" lon="-0.34588">
        <ele>2233</ele>
        <time>2021-03-03T11:23:15.537Z</time>
      </trkpt>
      <trkpt lat="42.93216" lon="-0.34593">
        <ele>2233</ele>
        <time>2021-03-03T11:23:20.538Z</time>
      </trkpt>
      <trkpt lat="42.93214" lon="-0.34598">
        <ele>2231</ele>
        <time>2021-03-03T11:23:25.536Z</time>
      </trkpt>
      <trkpt lat="42.93213" lon="-0.34603">
        <ele>2231</ele>
        <time>2021-03-03T11:23:30.532Z</time>
      </trkpt>
      <trkpt lat="42.93212" lon="-0.34607">
        <ele>2231</ele>
        <time>2021-03-03T11:23:34.565Z</time>
      </trkpt>
      <trkpt lat="42.9321" lon="-0.34612">
        <ele>2231</ele>
        <time>2021-03-03T11:23:39.533Z</time>
      </trkpt>
      <trkpt lat="42.93208" lon="-0.34617">
        <ele>2236</ele>
        <time>2021-03-03T11:23:44.536Z</time>
      </trkpt>
      <trkpt lat="42.93206" lon="-0.34623">
        <ele>2236</ele>
        <time>2021-03-03T11:23:49.536Z</time>
      </trkpt>
      <trkpt lat="42.93205" lon="-0.34629">
        <ele>2234</ele>
        <time>2021-03-03T11:23:54.535Z</time>
      </trkpt>
      <trkpt lat="42.93204" lon="-0.34635">
        <ele>2234</ele>
        <time>2021-03-03T11:23:59.558Z</time>
      </trkpt>
      <trkpt lat="42.93203" lon="-0.3464">
        <ele>2234</ele>
        <time>2021-03-03T11:24:04.533Z</time>
      </trkpt>
      <trkpt lat="42.93203" lon="-0.34645">
        <ele>2234</ele>
        <time>2021-03-03T11:24:09.561Z</time>
      </trkpt>
      <trkpt lat="42.93203" lon="-0.3465">
        <ele>2234</ele>
        <time>2021-03-03T11:24:14.561Z</time>
      </trkpt>
      <trkpt lat="42.93203" lon="-0.34656">
        <ele>2235</ele>
        <time>2021-03-03T11:24:19.537Z</time>
      </trkpt>
      <trkpt lat="42.93202" lon="-0.34665">
        <ele>2235</ele>
        <time>2021-03-03T11:24:44.528Z</time>
      </trkpt>
      <trkpt lat="42.93201" lon="-0.34666">
        <ele>2235</ele>
        <time>2021-03-03T11:24:49.541Z</time>
      </trkpt>
      <trkpt lat="42.932" lon="-0.34669">
        <ele>2235</ele>
        <time>2021-03-03T11:24:54.534Z</time>
      </trkpt>
      <trkpt lat="42.93198" lon="-0.34672">
        <ele>2235</ele>
        <time>2021-03-03T11:24:58.538Z</time>
      </trkpt>
      <trkpt lat="42.93196" lon="-0.34674">
        <ele>2235</ele>
        <time>2021-03-03T11:25:02.531Z</time>
      </trkpt>
      <trkpt lat="42.93194" lon="-0.34675">
        <ele>2235</ele>
        <time>2021-03-03T11:25:07.541Z</time>
      </trkpt>
      <trkpt lat="42.93193" lon="-0.34676">
        <ele>2235</ele>
        <time>2021-03-03T11:25:11.809Z</time>
      </trkpt>
      <trkpt lat="42.9319" lon="-0.34677">
        <ele>2235</ele>
        <time>2021-03-03T11:25:16.531Z</time>
      </trkpt>
      <trkpt lat="42.93187" lon="-0.34679">
        <ele>2235</ele>
        <time>2021-03-03T11:25:21.529Z</time>
      </trkpt>
      <trkpt lat="42.93184" lon="-0.34681">
        <ele>2240</ele>
        <time>2021-03-03T11:25:26.533Z</time>
      </trkpt>
      <trkpt lat="42.93182" lon="-0.34683">
        <ele>2240</ele>
        <time>2021-03-03T11:25:31.530Z</time>
      </trkpt>
      <trkpt lat="42.93179" lon="-0.34685">
        <ele>2238</ele>
        <time>2021-03-03T11:25:36.533Z</time>
      </trkpt>
      <trkpt lat="42.93176" lon="-0.34686">
        <ele>2238</ele>
        <time>2021-03-03T11:25:41.584Z</time>
      </trkpt>
      <trkpt lat="42.93174" lon="-0.34687">
        <ele>2238</ele>
        <time>2021-03-03T11:25:46.533Z</time>
      </trkpt>
      <trkpt lat="42.93171" lon="-0.34689">
        <ele>2238</ele>
        <time>2021-03-03T11:25:51.579Z</time>
      </trkpt>
      <trkpt lat="42.93168" lon="-0.3469">
        <ele>2238</ele>
        <time>2021-03-03T11:25:55.749Z</time>
      </trkpt>
      <trkpt lat="42.93166" lon="-0.34693">
        <ele>2238</ele>
        <time>2021-03-03T11:26:00.527Z</time>
      </trkpt>
      <trkpt lat="42.93164" lon="-0.34696">
        <ele>2238</ele>
        <time>2021-03-03T11:26:05.533Z</time>
      </trkpt>
      <trkpt lat="42.93163" lon="-0.34699">
        <ele>2238</ele>
        <time>2021-03-03T11:26:09.906Z</time>
      </trkpt>
      <trkpt lat="42.93162" lon="-0.34702">
        <ele>2238</ele>
        <time>2021-03-03T11:26:14.534Z</time>
      </trkpt>
      <trkpt lat="42.93165" lon="-0.34707">
        <ele>2238</ele>
        <time>2021-03-03T11:26:42.534Z</time>
      </trkpt>
      <trkpt lat="42.93164" lon="-0.34709">
        <ele>2243</ele>
        <time>2021-03-03T11:26:46.817Z</time>
      </trkpt>
      <trkpt lat="42.93162" lon="-0.3471">
        <ele>2243</ele>
        <time>2021-03-03T11:26:51.527Z</time>
      </trkpt>
      <trkpt lat="42.93161" lon="-0.3471">
        <ele>2243</ele>
        <time>2021-03-03T11:26:56.536Z</time>
      </trkpt>
      <trkpt lat="42.9316" lon="-0.34712">
        <ele>2243</ele>
        <time>2021-03-03T11:27:00.527Z</time>
      </trkpt>
      <trkpt lat="42.9316" lon="-0.34715">
        <ele>2243</ele>
        <time>2021-03-03T11:27:05.530Z</time>
      </trkpt>
      <trkpt lat="42.93159" lon="-0.34717">
        <ele>2243</ele>
        <time>2021-03-03T11:27:10.535Z</time>
      </trkpt>
      <trkpt lat="42.93157" lon="-0.34719">
        <ele>2243</ele>
        <time>2021-03-03T11:27:15.709Z</time>
      </trkpt>
      <trkpt lat="42.93157" lon="-0.3472">
        <ele>2243</ele>
        <time>2021-03-03T11:27:20.536Z</time>
      </trkpt>
      <trkpt lat="42.93154" lon="-0.34725">
        <ele>2243</ele>
        <time>2021-03-03T11:27:25.758Z</time>
      </trkpt>
      <trkpt lat="42.93152" lon="-0.34732">
        <ele>2241</ele>
        <time>2021-03-03T11:27:34.742Z</time>
      </trkpt>
      <trkpt lat="42.93153" lon="-0.34735">
        <ele>2241</ele>
        <time>2021-03-03T11:27:39.535Z</time>
      </trkpt>
      <trkpt lat="42.93152" lon="-0.34737">
        <ele>2247</ele>
        <time>2021-03-03T11:27:44.534Z</time>
      </trkpt>
      <trkpt lat="42.93152" lon="-0.34739">
        <ele>2247</ele>
        <time>2021-03-03T11:27:48.728Z</time>
      </trkpt>
      <trkpt lat="42.9315" lon="-0.34742">
        <ele>2247</ele>
        <time>2021-03-03T11:27:53.529Z</time>
      </trkpt>
      <trkpt lat="42.93149" lon="-0.34745">
        <ele>2247</ele>
        <time>2021-03-03T11:27:58.534Z</time>
      </trkpt>
      <trkpt lat="42.93149" lon="-0.34747">
        <ele>2247</ele>
        <time>2021-03-03T11:28:03.535Z</time>
      </trkpt>
      <trkpt lat="42.93148" lon="-0.3475">
        <ele>2247</ele>
        <time>2021-03-03T11:28:07.818Z</time>
      </trkpt>
      <trkpt lat="42.93146" lon="-0.34755">
        <ele>2247</ele>
        <time>2021-03-03T11:28:12.528Z</time>
      </trkpt>
      <trkpt lat="42.93145" lon="-0.34759">
        <ele>2247</ele>
        <time>2021-03-03T11:28:16.704Z</time>
      </trkpt>
      <trkpt lat="42.93145" lon="-0.34763">
        <ele>2247</ele>
        <time>2021-03-03T11:28:21.535Z</time>
      </trkpt>
      <trkpt lat="42.93144" lon="-0.34769">
        <ele>2252</ele>
        <time>2021-03-03T11:28:26.535Z</time>
      </trkpt>
      <trkpt lat="42.93141" lon="-0.34775">
        <ele>2252</ele>
        <time>2021-03-03T11:28:31.533Z</time>
      </trkpt>
      <trkpt lat="42.93139" lon="-0.34779">
        <ele>2252</ele>
        <time>2021-03-03T11:28:35.734Z</time>
      </trkpt>
      <trkpt lat="42.93136" lon="-0.34783">
        <ele>2252</ele>
        <time>2021-03-03T11:28:40.531Z</time>
      </trkpt>
      <trkpt lat="42.93133" lon="-0.34788">
        <ele>2252</ele>
        <time>2021-03-03T11:28:45.537Z</time>
      </trkpt>
      <trkpt lat="42.93131" lon="-0.34791">
        <ele>2252</ele>
        <time>2021-03-03T11:28:50.538Z</time>
      </trkpt>
      <trkpt lat="42.93127" lon="-0.34796">
        <ele>2255</ele>
        <time>2021-03-03T11:28:55.562Z</time>
      </trkpt>
      <trkpt lat="42.93123" lon="-0.34801">
        <ele>2252</ele>
        <time>2021-03-03T11:29:00.539Z</time>
      </trkpt>
      <trkpt lat="42.93119" lon="-0.34805">
        <ele>2252</ele>
        <time>2021-03-03T11:29:05.740Z</time>
      </trkpt>
      <trkpt lat="42.93115" lon="-0.34808">
        <ele>2252</ele>
        <time>2021-03-03T11:29:10.535Z</time>
      </trkpt>
      <trkpt lat="42.93111" lon="-0.34813">
        <ele>2252</ele>
        <time>2021-03-03T11:29:15.536Z</time>
      </trkpt>
      <trkpt lat="42.93109" lon="-0.34814">
        <ele>2252</ele>
        <time>2021-03-03T11:29:20.536Z</time>
      </trkpt>
      <trkpt lat="42.93106" lon="-0.34816">
        <ele>2252</ele>
        <time>2021-03-03T11:29:25.532Z</time>
      </trkpt>
      <trkpt lat="42.93103" lon="-0.34818">
        <ele>2252</ele>
        <time>2021-03-03T11:29:30.535Z</time>
      </trkpt>
      <trkpt lat="42.931" lon="-0.34821">
        <ele>2257</ele>
        <time>2021-03-03T11:29:35.537Z</time>
      </trkpt>
      <trkpt lat="42.931" lon="-0.34821">
        <ele>2257</ele>
        <time>2021-03-03T11:29:45.533Z</time>
      </trkpt>
      <trkpt lat="42.93101" lon="-0.3482">
        <ele>2257</ele>
        <time>2021-03-03T11:29:50.530Z</time>
      </trkpt>
      <trkpt lat="42.93101" lon="-0.3482">
        <ele>2257</ele>
        <time>2021-03-03T11:29:55.536Z</time>
      </trkpt>
      <trkpt lat="42.93103" lon="-0.34818">
        <ele>2252</ele>
        <time>2021-03-03T11:30:00.535Z</time>
      </trkpt>
      <trkpt lat="42.93106" lon="-0.34815">
        <ele>2252</ele>
        <time>2021-03-03T11:30:05.530Z</time>
      </trkpt>
      <trkpt lat="42.93104" lon="-0.34823">
        <ele>2257</ele>
        <time>2021-03-03T11:34:02.561Z</time>
      </trkpt>
      <trkpt lat="42.93103" lon="-0.34824">
        <ele>2257</ele>
        <time>2021-03-03T11:34:07.534Z</time>
      </trkpt>
      <trkpt lat="42.93098" lon="-0.34828">
        <ele>2257</ele>
        <time>2021-03-03T11:34:12.537Z</time>
      </trkpt>
      <trkpt lat="42.93094" lon="-0.34831">
        <ele>2254</ele>
        <time>2021-03-03T11:34:17.533Z</time>
      </trkpt>
      <trkpt lat="42.9309" lon="-0.34833">
        <ele>2254</ele>
        <time>2021-03-03T11:34:22.538Z</time>
      </trkpt>
      <trkpt lat="42.93088" lon="-0.34834">
        <ele>2254</ele>
        <time>2021-03-03T11:34:26.564Z</time>
      </trkpt>
      <trkpt lat="42.93084" lon="-0.34837">
        <ele>2254</ele>
        <time>2021-03-03T11:34:31.535Z</time>
      </trkpt>
      <trkpt lat="42.93081" lon="-0.3484">
        <ele>2254</ele>
        <time>2021-03-03T11:34:36.531Z</time>
      </trkpt>
      <trkpt lat="42.93077" lon="-0.34842">
        <ele>2254</ele>
        <time>2021-03-03T11:34:41.536Z</time>
      </trkpt>
      <trkpt lat="42.93072" lon="-0.34845">
        <ele>2254</ele>
        <time>2021-03-03T11:34:46.533Z</time>
      </trkpt>
      <trkpt lat="42.93069" lon="-0.34847">
        <ele>2251</ele>
        <time>2021-03-03T11:34:51.542Z</time>
      </trkpt>
      <trkpt lat="42.93066" lon="-0.34849">
        <ele>2264</ele>
        <time>2021-03-03T11:34:56.798Z</time>
      </trkpt>
      <trkpt lat="42.93063" lon="-0.34851">
        <ele>2264</ele>
        <time>2021-03-03T11:35:01.534Z</time>
      </trkpt>
      <trkpt lat="42.93061" lon="-0.34852">
        <ele>2264</ele>
        <time>2021-03-03T11:35:06.541Z</time>
      </trkpt>
      <trkpt lat="42.93058" lon="-0.34854">
        <ele>2264</ele>
        <time>2021-03-03T11:35:11.538Z</time>
      </trkpt>
      <trkpt lat="42.93054" lon="-0.34856">
        <ele>2264</ele>
        <time>2021-03-03T11:35:16.539Z</time>
      </trkpt>
      <trkpt lat="42.93052" lon="-0.34858">
        <ele>2264</ele>
        <time>2021-03-03T11:35:20.568Z</time>
      </trkpt>
      <trkpt lat="42.93048" lon="-0.3486">
        <ele>2264</ele>
        <time>2021-03-03T11:35:25.533Z</time>
      </trkpt>
      <trkpt lat="42.93045" lon="-0.34862">
        <ele>2264</ele>
        <time>2021-03-03T11:35:30.538Z</time>
      </trkpt>
      <trkpt lat="42.93043" lon="-0.34864">
        <ele>2264</ele>
        <time>2021-03-03T11:35:35.535Z</time>
      </trkpt>
      <trkpt lat="42.9304" lon="-0.34866">
        <ele>2261</ele>
        <time>2021-03-03T11:35:40.539Z</time>
      </trkpt>
      <trkpt lat="42.93037" lon="-0.34867">
        <ele>2261</ele>
        <time>2021-03-03T11:35:45.539Z</time>
      </trkpt>
      <trkpt lat="42.93034" lon="-0.34869">
        <ele>2261</ele>
        <time>2021-03-03T11:35:50.533Z</time>
      </trkpt>
      <trkpt lat="42.93031" lon="-0.34871">
        <ele>2261</ele>
        <time>2021-03-03T11:35:55.555Z</time>
      </trkpt>
      <trkpt lat="42.93029" lon="-0.34872">
        <ele>2261</ele>
        <time>2021-03-03T11:36:00.532Z</time>
      </trkpt>
      <trkpt lat="42.93026" lon="-0.34874">
        <ele>2261</ele>
        <time>2021-03-03T11:36:05.534Z</time>
      </trkpt>
      <trkpt lat="42.93023" lon="-0.34875">
        <ele>2282</ele>
        <time>2021-03-03T11:36:10.536Z</time>
      </trkpt>
      <trkpt lat="42.93021" lon="-0.34875">
        <ele>2282</ele>
        <time>2021-03-03T11:36:15.533Z</time>
      </trkpt>
      <trkpt lat="42.9302" lon="-0.34876">
        <ele>2282</ele>
        <time>2021-03-03T11:36:19.533Z</time>
      </trkpt>
      <trkpt lat="42.93017" lon="-0.34877">
        <ele>2282</ele>
        <time>2021-03-03T11:36:24.533Z</time>
      </trkpt>
      <trkpt lat="42.93014" lon="-0.34878">
        <ele>2276</ele>
        <time>2021-03-03T11:36:29.539Z</time>
      </trkpt>
      <trkpt lat="42.93008" lon="-0.34879">
        <ele>2276</ele>
        <time>2021-03-03T11:36:34.534Z</time>
      </trkpt>
      <trkpt lat="42.93004" lon="-0.34881">
        <ele>2276</ele>
        <time>2021-03-03T11:36:39.532Z</time>
      </trkpt>
      <trkpt lat="42.93001" lon="-0.34882">
        <ele>2276</ele>
        <time>2021-03-03T11:36:43.595Z</time>
      </trkpt>
      <trkpt lat="42.92999" lon="-0.34883">
        <ele>2276</ele>
        <time>2021-03-03T11:36:47.663Z</time>
      </trkpt>
      <trkpt lat="42.92995" lon="-0.34885">
        <ele>2276</ele>
        <time>2021-03-03T11:36:57.535Z</time>
      </trkpt>
      <trkpt lat="42.92993" lon="-0.34886">
        <ele>2276</ele>
        <time>2021-03-03T11:37:02.539Z</time>
      </trkpt>
      <trkpt lat="42.92991" lon="-0.34887">
        <ele>2276</ele>
        <time>2021-03-03T11:37:07.535Z</time>
      </trkpt>
      <trkpt lat="42.92989" lon="-0.34888">
        <ele>2276</ele>
        <time>2021-03-03T11:37:11.563Z</time>
      </trkpt>
      <trkpt lat="42.92987" lon="-0.34889">
        <ele>2276</ele>
        <time>2021-03-03T11:37:16.537Z</time>
      </trkpt>
      <trkpt lat="42.92984" lon="-0.3489">
        <ele>2268</ele>
        <time>2021-03-03T11:37:21.539Z</time>
      </trkpt>
      <trkpt lat="42.92981" lon="-0.34892">
        <ele>2268</ele>
        <time>2021-03-03T11:37:26.534Z</time>
      </trkpt>
      <trkpt lat="42.92978" lon="-0.34894">
        <ele>2268</ele>
        <time>2021-03-03T11:37:30.580Z</time>
      </trkpt>
      <trkpt lat="42.92974" lon="-0.34896">
        <ele>2268</ele>
        <time>2021-03-03T11:37:35.538Z</time>
      </trkpt>
      <trkpt lat="42.92971" lon="-0.34897">
        <ele>2268</ele>
        <time>2021-03-03T11:37:40.536Z</time>
      </trkpt>
      <trkpt lat="42.9297" lon="-0.34898">
        <ele>2268</ele>
        <time>2021-03-03T11:37:45.537Z</time>
      </trkpt>
      <trkpt lat="42.92967" lon="-0.349">
        <ele>2268</ele>
        <time>2021-03-03T11:37:50.536Z</time>
      </trkpt>
      <trkpt lat="42.92964" lon="-0.34902">
        <ele>2268</ele>
        <time>2021-03-03T11:37:55.566Z</time>
      </trkpt>
      <trkpt lat="42.92962" lon="-0.34905">
        <ele>2293</ele>
        <time>2021-03-03T11:38:00.538Z</time>
      </trkpt>
      <trkpt lat="42.92959" lon="-0.34907">
        <ele>2293</ele>
        <time>2021-03-03T11:38:14.539Z</time>
      </trkpt>
      <trkpt lat="42.92958" lon="-0.34908">
        <ele>2280</ele>
        <time>2021-03-03T11:38:18.544Z</time>
      </trkpt>
      <trkpt lat="42.92955" lon="-0.3491">
        <ele>2280</ele>
        <time>2021-03-03T11:38:23.565Z</time>
      </trkpt>
      <trkpt lat="42.92953" lon="-0.34912">
        <ele>2280</ele>
        <time>2021-03-03T11:38:28.534Z</time>
      </trkpt>
      <trkpt lat="42.9295" lon="-0.34914">
        <ele>2280</ele>
        <time>2021-03-03T11:38:33.533Z</time>
      </trkpt>
      <trkpt lat="42.92952" lon="-0.3492">
        <ele>2280</ele>
        <time>2021-03-03T11:39:01.541Z</time>
      </trkpt>
      <trkpt lat="42.92949" lon="-0.34922">
        <ele>2280</ele>
        <time>2021-03-03T11:39:06.574Z</time>
      </trkpt>
      <trkpt lat="42.92949" lon="-0.34923">
        <ele>2280</ele>
        <time>2021-03-03T11:39:11.535Z</time>
      </trkpt>
      <trkpt lat="42.92948" lon="-0.34925">
        <ele>2280</ele>
        <time>2021-03-03T11:39:16.539Z</time>
      </trkpt>
      <trkpt lat="42.92947" lon="-0.34928">
        <ele>2280</ele>
        <time>2021-03-03T11:39:21.538Z</time>
      </trkpt>
      <trkpt lat="42.92943" lon="-0.34934">
        <ele>2303</ele>
        <time>2021-03-03T11:39:31.537Z</time>
      </trkpt>
      <trkpt lat="42.92942" lon="-0.34936">
        <ele>2303</ele>
        <time>2021-03-03T11:39:36.539Z</time>
      </trkpt>
      <trkpt lat="42.92941" lon="-0.34938">
        <ele>2303</ele>
        <time>2021-03-03T11:39:41.565Z</time>
      </trkpt>
      <trkpt lat="42.9294" lon="-0.3494">
        <ele>2303</ele>
        <time>2021-03-03T11:39:46.928Z</time>
      </trkpt>
      <trkpt lat="42.92939" lon="-0.34941">
        <ele>2303</ele>
        <time>2021-03-03T11:39:51.537Z</time>
      </trkpt>
      <trkpt lat="42.92938" lon="-0.34942">
        <ele>2303</ele>
        <time>2021-03-03T11:39:55.563Z</time>
      </trkpt>
      <trkpt lat="42.92936" lon="-0.34944">
        <ele>2303</ele>
        <time>2021-03-03T11:40:00.533Z</time>
      </trkpt>
      <trkpt lat="42.92933" lon="-0.34947">
        <ele>2303</ele>
        <time>2021-03-03T11:40:05.535Z</time>
      </trkpt>
      <trkpt lat="42.92931" lon="-0.34949">
        <ele>2303</ele>
        <time>2021-03-03T11:40:10.528Z</time>
      </trkpt>
      <trkpt lat="42.9293" lon="-0.34951">
        <ele>2282</ele>
        <time>2021-03-03T11:40:14.768Z</time>
      </trkpt>
      <trkpt lat="42.92922" lon="-0.34953">
        <ele>2282</ele>
        <time>2021-03-03T11:40:47.530Z</time>
      </trkpt>
      <trkpt lat="42.92921" lon="-0.34954">
        <ele>2282</ele>
        <time>2021-03-03T11:40:51.798Z</time>
      </trkpt>
      <trkpt lat="42.92919" lon="-0.34954">
        <ele>2282</ele>
        <time>2021-03-03T11:40:56.535Z</time>
      </trkpt>
      <trkpt lat="42.92916" lon="-0.34955">
        <ele>2282</ele>
        <time>2021-03-03T11:41:01.540Z</time>
      </trkpt>
      <trkpt lat="42.92914" lon="-0.34954">
        <ele>2282</ele>
        <time>2021-03-03T11:41:05.834Z</time>
      </trkpt>
      <trkpt lat="42.92911" lon="-0.34956">
        <ele>2282</ele>
        <time>2021-03-03T11:41:15.538Z</time>
      </trkpt>
      <trkpt lat="42.9291" lon="-0.34959">
        <ele>2299</ele>
        <time>2021-03-03T11:41:20.539Z</time>
      </trkpt>
      <trkpt lat="42.92908" lon="-0.34961">
        <ele>2299</ele>
        <time>2021-03-03T11:41:25.539Z</time>
      </trkpt>
      <trkpt lat="42.92907" lon="-0.34962">
        <ele>2299</ele>
        <time>2021-03-03T11:41:30.537Z</time>
      </trkpt>
      <trkpt lat="42.92906" lon="-0.34966">
        <ele>2299</ele>
        <time>2021-03-03T11:41:35.563Z</time>
      </trkpt>
      <trkpt lat="42.92906" lon="-0.34968">
        <ele>2299</ele>
        <time>2021-03-03T11:41:55.531Z</time>
      </trkpt>
      <trkpt lat="42.92904" lon="-0.34972">
        <ele>2299</ele>
        <time>2021-03-03T11:42:00.536Z</time>
      </trkpt>
      <trkpt lat="42.92903" lon="-0.34975">
        <ele>2299</ele>
        <time>2021-03-03T11:42:05.532Z</time>
      </trkpt>
      <trkpt lat="42.92902" lon="-0.34976">
        <ele>2305</ele>
        <time>2021-03-03T11:42:10.532Z</time>
      </trkpt>
      <trkpt lat="42.929" lon="-0.34977">
        <ele>2305</ele>
        <time>2021-03-03T11:42:14.564Z</time>
      </trkpt>
      <trkpt lat="42.92895" lon="-0.34986">
        <ele>2316</ele>
        <time>2021-03-03T11:42:34.532Z</time>
      </trkpt>
      <trkpt lat="42.92896" lon="-0.34988">
        <ele>2316</ele>
        <time>2021-03-03T11:42:39.537Z</time>
      </trkpt>
      <trkpt lat="42.92895" lon="-0.3499">
        <ele>2316</ele>
        <time>2021-03-03T11:42:44.567Z</time>
      </trkpt>
      <trkpt lat="42.92894" lon="-0.3499">
        <ele>2316</ele>
        <time>2021-03-03T11:42:49.532Z</time>
      </trkpt>
      <trkpt lat="42.92893" lon="-0.34991">
        <ele>2316</ele>
        <time>2021-03-03T11:42:54.537Z</time>
      </trkpt>
      <trkpt lat="42.92891" lon="-0.34993">
        <ele>2316</ele>
        <time>2021-03-03T11:42:59.532Z</time>
      </trkpt>
      <trkpt lat="42.9289" lon="-0.34996">
        <ele>2316</ele>
        <time>2021-03-03T11:43:04.558Z</time>
      </trkpt>
      <trkpt lat="42.92888" lon="-0.34999">
        <ele>2316</ele>
        <time>2021-03-03T11:43:09.541Z</time>
      </trkpt>
      <trkpt lat="42.92886" lon="-0.35001">
        <ele>2316</ele>
        <time>2021-03-03T11:43:14.536Z</time>
      </trkpt>
      <trkpt lat="42.92883" lon="-0.35004">
        <ele>2316</ele>
        <time>2021-03-03T11:43:19.537Z</time>
      </trkpt>
      <trkpt lat="42.9288" lon="-0.35007">
        <ele>2316</ele>
        <time>2021-03-03T11:43:24.534Z</time>
      </trkpt>
      <trkpt lat="42.92877" lon="-0.3501">
        <ele>2316</ele>
        <time>2021-03-03T11:43:29.540Z</time>
      </trkpt>
      <trkpt lat="42.92875" lon="-0.35012">
        <ele>2317</ele>
        <time>2021-03-03T11:43:34.532Z</time>
      </trkpt>
      <trkpt lat="42.92874" lon="-0.35014">
        <ele>2319</ele>
        <time>2021-03-03T11:43:38.820Z</time>
      </trkpt>
      <trkpt lat="42.92873" lon="-0.35017">
        <ele>2319</ele>
        <time>2021-03-03T11:43:43.534Z</time>
      </trkpt>
      <trkpt lat="42.9287" lon="-0.35017">
        <ele>2319</ele>
        <time>2021-03-03T11:43:53.530Z</time>
      </trkpt>
      <trkpt lat="42.92868" lon="-0.35019">
        <ele>2319</ele>
        <time>2021-03-03T11:43:58.535Z</time>
      </trkpt>
      <trkpt lat="42.92866" lon="-0.35021">
        <ele>2319</ele>
        <time>2021-03-03T11:44:03.530Z</time>
      </trkpt>
      <trkpt lat="42.92865" lon="-0.35023">
        <ele>2319</ele>
        <time>2021-03-03T11:44:07.785Z</time>
      </trkpt>
      <trkpt lat="42.92862" lon="-0.35024">
        <ele>2319</ele>
        <time>2021-03-03T11:44:12.534Z</time>
      </trkpt>
      <trkpt lat="42.92854" lon="-0.35028">
        <ele>2319</ele>
        <time>2021-03-03T11:45:05.533Z</time>
      </trkpt>
      <trkpt lat="42.92853" lon="-0.35029">
        <ele>2319</ele>
        <time>2021-03-03T11:45:09.956Z</time>
      </trkpt>
      <trkpt lat="42.92852" lon="-0.35029">
        <ele>2319</ele>
        <time>2021-03-03T11:45:14.564Z</time>
      </trkpt>
      <trkpt lat="42.92851" lon="-0.35029">
        <ele>2319</ele>
        <time>2021-03-03T11:45:18.959Z</time>
      </trkpt>
      <trkpt lat="42.92849" lon="-0.35031">
        <ele>2319</ele>
        <time>2021-03-03T11:45:23.834Z</time>
      </trkpt>
      <trkpt lat="42.92845" lon="-0.35035">
        <ele>2321</ele>
        <time>2021-03-03T11:45:37.529Z</time>
      </trkpt>
      <trkpt lat="42.92845" lon="-0.35035">
        <ele>2321</ele>
        <time>2021-03-03T11:45:42.538Z</time>
      </trkpt>
      <trkpt lat="42.92841" lon="-0.35037">
        <ele>2321</ele>
        <time>2021-03-03T11:45:47.540Z</time>
      </trkpt>
      <trkpt lat="42.92838" lon="-0.35039">
        <ele>2321</ele>
        <time>2021-03-03T11:45:52.535Z</time>
      </trkpt>
      <trkpt lat="42.92835" lon="-0.35041">
        <ele>2321</ele>
        <time>2021-03-03T11:45:56.837Z</time>
      </trkpt>
      <trkpt lat="42.92824" lon="-0.35044">
        <ele>2320</ele>
        <time>2021-03-03T11:46:33.536Z</time>
      </trkpt>
      <trkpt lat="42.92823" lon="-0.35044">
        <ele>2320</ele>
        <time>2021-03-03T11:46:38.531Z</time>
      </trkpt>
      <trkpt lat="42.92823" lon="-0.35044">
        <ele>2320</ele>
        <time>2021-03-03T11:46:43.538Z</time>
      </trkpt>
      <trkpt lat="42.92823" lon="-0.35044">
        <ele>2320</ele>
        <time>2021-03-03T11:46:48.532Z</time>
      </trkpt>
      <trkpt lat="42.92823" lon="-0.35044">
        <ele>2320</ele>
        <time>2021-03-03T11:46:53.532Z</time>
      </trkpt>
      <trkpt lat="42.92824" lon="-0.3504">
        <ele>2321</ele>
        <time>2021-03-03T11:47:32.531Z</time>
      </trkpt>
      <trkpt lat="42.92825" lon="-0.3504">
        <ele>2321</ele>
        <time>2021-03-03T11:47:36.565Z</time>
      </trkpt>
      <trkpt lat="42.92827" lon="-0.3504">
        <ele>2321</ele>
        <time>2021-03-03T11:47:41.534Z</time>
      </trkpt>
      <trkpt lat="42.9283" lon="-0.35046">
        <ele>2320</ele>
        <time>2021-03-03T11:47:46.576Z</time>
      </trkpt>
      <trkpt lat="42.92832" lon="-0.35054">
        <ele>2320</ele>
        <time>2021-03-03T11:47:51.535Z</time>
      </trkpt>
      <trkpt lat="42.92834" lon="-0.35062">
        <ele>2320</ele>
        <time>2021-03-03T11:48:01.538Z</time>
      </trkpt>
      <trkpt lat="42.92837" lon="-0.35068">
        <ele>2320</ele>
        <time>2021-03-03T11:48:06.536Z</time>
      </trkpt>
      <trkpt lat="42.92837" lon="-0.3507">
        <ele>2330</ele>
        <time>2021-03-03T11:48:11.573Z</time>
      </trkpt>
      <trkpt lat="42.92837" lon="-0.3507">
        <ele>2330</ele>
        <time>2021-03-03T11:48:16.531Z</time>
      </trkpt>
      <trkpt lat="42.92837" lon="-0.35071">
        <ele>2330</ele>
        <time>2021-03-03T11:48:21.536Z</time>
      </trkpt>
      <trkpt lat="42.92837" lon="-0.35072">
        <ele>2330</ele>
        <time>2021-03-03T11:48:41.536Z</time>
      </trkpt>
      <trkpt lat="42.92837" lon="-0.35072">
        <ele>2330</ele>
        <time>2021-03-03T11:48:46.565Z</time>
      </trkpt>
      <trkpt lat="42.9284" lon="-0.35075">
        <ele>2330</ele>
        <time>2021-03-03T11:48:51.536Z</time>
      </trkpt>
      <trkpt lat="42.92844" lon="-0.35078">
        <ele>2330</ele>
        <time>2021-03-03T11:48:56.536Z</time>
      </trkpt>
      <trkpt lat="42.92845" lon="-0.35078">
        <ele>2330</ele>
        <time>2021-03-03T11:49:01.538Z</time>
      </trkpt>
      <trkpt lat="42.9285" lon="-0.35085">
        <ele>2331</ele>
        <time>2021-03-03T11:50:29.559Z</time>
      </trkpt>
      <trkpt lat="42.9285" lon="-0.35085">
        <ele>2331</ele>
        <time>2021-03-03T11:50:34.537Z</time>
      </trkpt>
      <trkpt lat="42.9285" lon="-0.35085">
        <ele>2331</ele>
        <time>2021-03-03T11:50:39.542Z</time>
      </trkpt>
      <trkpt lat="42.92849" lon="-0.35086">
        <ele>2331</ele>
        <time>2021-03-03T11:50:44.540Z</time>
      </trkpt>
      <trkpt lat="42.92851" lon="-0.35088">
        <ele>2331</ele>
        <time>2021-03-03T11:50:49.532Z</time>
      </trkpt>
      <trkpt lat="42.92854" lon="-0.35097">
        <ele>2331</ele>
        <time>2021-03-03T11:51:03.538Z</time>
      </trkpt>
      <trkpt lat="42.92856" lon="-0.35097">
        <ele>2331</ele>
        <time>2021-03-03T11:51:08.537Z</time>
      </trkpt>
      <trkpt lat="42.92858" lon="-0.35095">
        <ele>2331</ele>
        <time>2021-03-03T11:51:13.536Z</time>
      </trkpt>
      <trkpt lat="42.9286" lon="-0.35095">
        <ele>2331</ele>
        <time>2021-03-03T11:51:17.548Z</time>
      </trkpt>
      <trkpt lat="42.92864" lon="-0.35097">
        <ele>2331</ele>
        <time>2021-03-03T11:51:22.540Z</time>
      </trkpt>
      <trkpt lat="42.92868" lon="-0.35098">
        <ele>2342</ele>
        <time>2021-03-03T11:51:27.540Z</time>
      </trkpt>
      <trkpt lat="42.92872" lon="-0.35101">
        <ele>2342</ele>
        <time>2021-03-03T11:51:32.583Z</time>
      </trkpt>
      <trkpt lat="42.92875" lon="-0.35103">
        <ele>2342</ele>
        <time>2021-03-03T11:51:37.534Z</time>
      </trkpt>
      <trkpt lat="42.92878" lon="-0.35103">
        <ele>2350</ele>
        <time>2021-03-03T11:51:42.544Z</time>
      </trkpt>
      <trkpt lat="42.9288" lon="-0.35102">
        <ele>2350</ele>
        <time>2021-03-03T11:52:07.563Z</time>
      </trkpt>
      <trkpt lat="42.92883" lon="-0.35101">
        <ele>2350</ele>
        <time>2021-03-03T11:52:12.575Z</time>
      </trkpt>
      <trkpt lat="42.92886" lon="-0.35101">
        <ele>2350</ele>
        <time>2021-03-03T11:52:17.544Z</time>
      </trkpt>
      <trkpt lat="42.92888" lon="-0.35102">
        <ele>2350</ele>
        <time>2021-03-03T11:52:22.535Z</time>
      </trkpt>
      <trkpt lat="42.9289" lon="-0.35102">
        <ele>2350</ele>
        <time>2021-03-03T11:52:27.536Z</time>
      </trkpt>
      <trkpt lat="42.92897" lon="-0.35095">
        <ele>2343</ele>
        <time>2021-03-03T11:53:20.535Z</time>
      </trkpt>
      <trkpt lat="42.92897" lon="-0.35095">
        <ele>2343</ele>
        <time>2021-03-03T11:53:25.536Z</time>
      </trkpt>
      <trkpt lat="42.92897" lon="-0.35095">
        <ele>2343</ele>
        <time>2021-03-03T11:53:30.533Z</time>
      </trkpt>
      <trkpt lat="42.92896" lon="-0.35094">
        <ele>2343</ele>
        <time>2021-03-03T11:53:35.538Z</time>
      </trkpt>
      <trkpt lat="42.92897" lon="-0.35093">
        <ele>2343</ele>
        <time>2021-03-03T11:53:40.534Z</time>
      </trkpt>
      <trkpt lat="42.929" lon="-0.35093">
        <ele>2343</ele>
        <time>2021-03-03T11:54:04.539Z</time>
      </trkpt>
      <trkpt lat="42.929" lon="-0.35095">
        <ele>2343</ele>
        <time>2021-03-03T11:54:09.534Z</time>
      </trkpt>
      <trkpt lat="42.92898" lon="-0.351">
        <ele>2350</ele>
        <time>2021-03-03T11:54:14.854Z</time>
      </trkpt>
      <trkpt lat="42.92897" lon="-0.35104">
        <ele>2350</ele>
        <time>2021-03-03T11:54:19.532Z</time>
      </trkpt>
      <trkpt lat="42.92896" lon="-0.35108">
        <ele>2350</ele>
        <time>2021-03-03T11:54:24.534Z</time>
      </trkpt>
      <trkpt lat="42.92888" lon="-0.35117">
        <ele>2350</ele>
        <time>2021-03-03T11:55:04.540Z</time>
      </trkpt>
      <trkpt lat="42.92888" lon="-0.35117">
        <ele>2350</ele>
        <time>2021-03-03T11:55:09.536Z</time>
      </trkpt>
      <trkpt lat="42.92888" lon="-0.35117">
        <ele>2350</ele>
        <time>2021-03-03T11:55:14.535Z</time>
      </trkpt>
      <trkpt lat="42.92888" lon="-0.35117">
        <ele>2350</ele>
        <time>2021-03-03T11:55:19.533Z</time>
      </trkpt>
      <trkpt lat="42.92885" lon="-0.35118">
        <ele>2350</ele>
        <time>2021-03-03T11:55:23.822Z</time>
      </trkpt>
      <trkpt lat="42.92884" lon="-0.35118">
        <ele>2350</ele>
        <time>2021-03-03T11:55:28.535Z</time>
      </trkpt>
      <trkpt lat="42.92886" lon="-0.35118">
        <ele>2350</ele>
        <time>2021-03-03T11:55:33.567Z</time>
      </trkpt>
      <trkpt lat="42.92888" lon="-0.35118">
        <ele>2350</ele>
        <time>2021-03-03T11:55:38.699Z</time>
      </trkpt>
      <trkpt lat="42.9289" lon="-0.35119">
        <ele>2350</ele>
        <time>2021-03-03T11:55:43.537Z</time>
      </trkpt>
      <trkpt lat="42.92893" lon="-0.35118">
        <ele>2350</ele>
        <time>2021-03-03T11:55:48.538Z</time>
      </trkpt>
      <trkpt lat="42.92895" lon="-0.35116">
        <ele>2350</ele>
        <time>2021-03-03T11:56:01.594Z</time>
      </trkpt>
      <trkpt lat="42.92897" lon="-0.35114">
        <ele>2350</ele>
        <time>2021-03-03T11:56:06.923Z</time>
      </trkpt>
      <trkpt lat="42.92899" lon="-0.35113">
        <ele>2350</ele>
        <time>2021-03-03T11:56:11.538Z</time>
      </trkpt>
      <trkpt lat="42.92901" lon="-0.35113">
        <ele>2350</ele>
        <time>2021-03-03T11:56:16.534Z</time>
      </trkpt>
      <trkpt lat="42.92903" lon="-0.35112">
        <ele>2358</ele>
        <time>2021-03-03T11:56:20.570Z</time>
      </trkpt>
      <trkpt lat="42.92907" lon="-0.35115">
        <ele>2358</ele>
        <time>2021-03-03T11:57:47.536Z</time>
      </trkpt>
      <trkpt lat="42.92906" lon="-0.35117">
        <ele>2358</ele>
        <time>2021-03-03T11:57:51.805Z</time>
      </trkpt>
      <trkpt lat="42.92904" lon="-0.35119">
        <ele>2358</ele>
        <time>2021-03-03T11:57:56.536Z</time>
      </trkpt>
      <trkpt lat="42.92904" lon="-0.35123">
        <ele>2358</ele>
        <time>2021-03-03T11:58:01.536Z</time>
      </trkpt>
      <trkpt lat="42.92904" lon="-0.35127">
        <ele>2364</ele>
        <time>2021-03-03T11:58:05.839Z</time>
      </trkpt>
      <trkpt lat="42.92898" lon="-0.35135">
        <ele>2357</ele>
        <time>2021-03-03T11:58:20.538Z</time>
      </trkpt>
      <trkpt lat="42.92898" lon="-0.35135">
        <ele>2357</ele>
        <time>2021-03-03T11:58:25.537Z</time>
      </trkpt>
      <trkpt lat="42.92897" lon="-0.35136">
        <ele>2357</ele>
        <time>2021-03-03T11:58:30.536Z</time>
      </trkpt>
      <trkpt lat="42.92896" lon="-0.35138">
        <ele>2357</ele>
        <time>2021-03-03T11:58:35.541Z</time>
      </trkpt>
      <trkpt lat="42.92894" lon="-0.3514">
        <ele>2357</ele>
        <time>2021-03-03T11:58:40.536Z</time>
      </trkpt>
      <trkpt lat="42.92895" lon="-0.35141">
        <ele>2357</ele>
        <time>2021-03-03T11:59:40.534Z</time>
      </trkpt>
      <trkpt lat="42.92896" lon="-0.35141">
        <ele>2357</ele>
        <time>2021-03-03T11:59:45.539Z</time>
      </trkpt>
      <trkpt lat="42.92897" lon="-0.35141">
        <ele>2357</ele>
        <time>2021-03-03T11:59:50.537Z</time>
      </trkpt>
      <trkpt lat="42.92898" lon="-0.35141">
        <ele>2357</ele>
        <time>2021-03-03T11:59:55.576Z</time>
      </trkpt>
      <trkpt lat="42.92901" lon="-0.35142">
        <ele>2357</ele>
        <time>2021-03-03T12:00:00.537Z</time>
      </trkpt>
      <trkpt lat="42.92905" lon="-0.35144">
        <ele>2364</ele>
        <time>2021-03-03T12:00:10.545Z</time>
      </trkpt>
      <trkpt lat="42.92907" lon="-0.35143">
        <ele>2364</ele>
        <time>2021-03-03T12:00:15.538Z</time>
      </trkpt>
      <trkpt lat="42.92909" lon="-0.35142">
        <ele>2364</ele>
        <time>2021-03-03T12:00:20.535Z</time>
      </trkpt>
      <trkpt lat="42.9291" lon="-0.35141">
        <ele>2364</ele>
        <time>2021-03-03T12:00:25.536Z</time>
      </trkpt>
      <trkpt lat="42.92912" lon="-0.3514">
        <ele>2364</ele>
        <time>2021-03-03T12:00:30.537Z</time>
      </trkpt>
      <trkpt lat="42.92918" lon="-0.35139">
        <ele>2364</ele>
        <time>2021-03-03T12:01:47.538Z</time>
      </trkpt>
      <trkpt lat="42.92916" lon="-0.35143">
        <ele>2364</ele>
        <time>2021-03-03T12:01:52.541Z</time>
      </trkpt>
      <trkpt lat="42.92914" lon="-0.35146">
        <ele>2364</ele>
        <time>2021-03-03T12:01:57.538Z</time>
      </trkpt>
      <trkpt lat="42.92913" lon="-0.3515">
        <ele>2364</ele>
        <time>2021-03-03T12:02:02.539Z</time>
      </trkpt>
      <trkpt lat="42.92911" lon="-0.35153">
        <ele>2372</ele>
        <time>2021-03-03T12:02:07.545Z</time>
      </trkpt>
      <trkpt lat="42.92906" lon="-0.35161">
        <ele>2372</ele>
        <time>2021-03-03T12:02:56.535Z</time>
      </trkpt>
      <trkpt lat="42.92908" lon="-0.35166">
        <ele>2372</ele>
        <time>2021-03-03T12:03:01.534Z</time>
      </trkpt>
      <trkpt lat="42.92911" lon="-0.35166">
        <ele>2372</ele>
        <time>2021-03-03T12:03:05.577Z</time>
      </trkpt>
      <trkpt lat="42.92914" lon="-0.35165">
        <ele>2372</ele>
        <time>2021-03-03T12:03:10.540Z</time>
      </trkpt>
      <trkpt lat="42.92917" lon="-0.35165">
        <ele>2372</ele>
        <time>2021-03-03T12:03:15.538Z</time>
      </trkpt>
      <trkpt lat="42.92922" lon="-0.35163">
        <ele>2372</ele>
        <time>2021-03-03T12:03:25.536Z</time>
      </trkpt>
      <trkpt lat="42.92921" lon="-0.35166">
        <ele>2372</ele>
        <time>2021-03-03T12:03:30.535Z</time>
      </trkpt>
      <trkpt lat="42.9292" lon="-0.35168">
        <ele>2372</ele>
        <time>2021-03-03T12:03:35.537Z</time>
      </trkpt>
      <trkpt lat="42.9292" lon="-0.35173">
        <ele>2372</ele>
        <time>2021-03-03T12:03:40.538Z</time>
      </trkpt>
      <trkpt lat="42.92919" lon="-0.35178">
        <ele>2372</ele>
        <time>2021-03-03T12:03:45.537Z</time>
      </trkpt>
      <trkpt lat="42.92919" lon="-0.35184">
        <ele>2378</ele>
        <time>2021-03-03T12:04:20.560Z</time>
      </trkpt>
      <trkpt lat="42.92921" lon="-0.35183">
        <ele>2378</ele>
        <time>2021-03-03T12:04:24.961Z</time>
      </trkpt>
      <trkpt lat="42.92923" lon="-0.35182">
        <ele>2378</ele>
        <time>2021-03-03T12:04:29.539Z</time>
      </trkpt>
      <trkpt lat="42.92925" lon="-0.3518">
        <ele>2372</ele>
        <time>2021-03-03T12:04:34.536Z</time>
      </trkpt>
      <trkpt lat="42.92926" lon="-0.35177">
        <ele>2372</ele>
        <time>2021-03-03T12:04:39.537Z</time>
      </trkpt>
      <trkpt lat="42.92926" lon="-0.35176">
        <ele>2372</ele>
        <time>2021-03-03T12:04:54.538Z</time>
      </trkpt>
      <trkpt lat="42.92925" lon="-0.35178">
        <ele>2372</ele>
        <time>2021-03-03T12:04:59.533Z</time>
      </trkpt>
      <trkpt lat="42.92925" lon="-0.35182">
        <ele>2378</ele>
        <time>2021-03-03T12:05:04.536Z</time>
      </trkpt>
      <trkpt lat="42.92924" lon="-0.35185">
        <ele>2378</ele>
        <time>2021-03-03T12:05:08.533Z</time>
      </trkpt>
      <trkpt lat="42.92922" lon="-0.3519">
        <ele>2378</ele>
        <time>2021-03-03T12:05:13.539Z</time>
      </trkpt>
      <trkpt lat="42.92924" lon="-0.35198">
        <ele>2378</ele>
        <time>2021-03-03T12:05:47.543Z</time>
      </trkpt>
      <trkpt lat="42.92923" lon="-0.352">
        <ele>2378</ele>
        <time>2021-03-03T12:05:51.577Z</time>
      </trkpt>
      <trkpt lat="42.92923" lon="-0.35203">
        <ele>2378</ele>
        <time>2021-03-03T12:05:56.544Z</time>
      </trkpt>
      <trkpt lat="42.92925" lon="-0.35206">
        <ele>2378</ele>
        <time>2021-03-03T12:06:01.548Z</time>
      </trkpt>
      <trkpt lat="42.92925" lon="-0.35207">
        <ele>2378</ele>
        <time>2021-03-03T12:06:06.537Z</time>
      </trkpt>
      <trkpt lat="42.92928" lon="-0.3521">
        <ele>2385</ele>
        <time>2021-03-03T12:07:09.536Z</time>
      </trkpt>
      <trkpt lat="42.92928" lon="-0.35211">
        <ele>2385</ele>
        <time>2021-03-03T12:07:14.534Z</time>
      </trkpt>
      <trkpt lat="42.92928" lon="-0.35214">
        <ele>2385</ele>
        <time>2021-03-03T12:07:19.562Z</time>
      </trkpt>
      <trkpt lat="42.92929" lon="-0.35217">
        <ele>2385</ele>
        <time>2021-03-03T12:07:24.539Z</time>
      </trkpt>
      <trkpt lat="42.92931" lon="-0.3522">
        <ele>2398</ele>
        <time>2021-03-03T12:07:29.540Z</time>
      </trkpt>
      <trkpt lat="42.9293" lon="-0.35228">
        <ele>2385</ele>
        <time>2021-03-03T12:07:59.537Z</time>
      </trkpt>
      <trkpt lat="42.9293" lon="-0.35228">
        <ele>2385</ele>
        <time>2021-03-03T12:08:04.533Z</time>
      </trkpt>
      <trkpt lat="42.9293" lon="-0.35228">
        <ele>2385</ele>
        <time>2021-03-03T12:08:09.535Z</time>
      </trkpt>
      <trkpt lat="42.92931" lon="-0.35232">
        <ele>2398</ele>
        <time>2021-03-03T12:08:14.545Z</time>
      </trkpt>
      <trkpt lat="42.92932" lon="-0.35235">
        <ele>2398</ele>
        <time>2021-03-03T12:08:19.536Z</time>
      </trkpt>
      <trkpt lat="42.92934" lon="-0.35243">
        <ele>2409</ele>
        <time>2021-03-03T12:08:54.535Z</time>
      </trkpt>
      <trkpt lat="42.92934" lon="-0.35243">
        <ele>2409</ele>
        <time>2021-03-03T12:08:59.540Z</time>
      </trkpt>
      <trkpt lat="42.92934" lon="-0.35244">
        <ele>2409</ele>
        <time>2021-03-03T12:09:04.539Z</time>
      </trkpt>
      <trkpt lat="42.92934" lon="-0.35247">
        <ele>2409</ele>
        <time>2021-03-03T12:09:08.570Z</time>
      </trkpt>
      <trkpt lat="42.92935" lon="-0.35251">
        <ele>2409</ele>
        <time>2021-03-03T12:09:13.540Z</time>
      </trkpt>
      <trkpt lat="42.92943" lon="-0.35258">
        <ele>2409</ele>
        <time>2021-03-03T12:09:38.533Z</time>
      </trkpt>
      <trkpt lat="42.92943" lon="-0.35258">
        <ele>2409</ele>
        <time>2021-03-03T12:09:43.537Z</time>
      </trkpt>
      <trkpt lat="42.92943" lon="-0.35258">
        <ele>2409</ele>
        <time>2021-03-03T12:09:48.533Z</time>
      </trkpt>
      <trkpt lat="42.92943" lon="-0.35259">
        <ele>2409</ele>
        <time>2021-03-03T12:09:53.542Z</time>
      </trkpt>
      <trkpt lat="42.92945" lon="-0.35259">
        <ele>2409</ele>
        <time>2021-03-03T12:09:57.541Z</time>
      </trkpt>
      <trkpt lat="42.92948" lon="-0.35259">
        <ele>2409</ele>
        <time>2021-03-03T12:10:02.539Z</time>
      </trkpt>
      <trkpt lat="42.92951" lon="-0.35257">
        <ele>2409</ele>
        <time>2021-03-03T12:10:07.539Z</time>
      </trkpt>
      <trkpt lat="42.92953" lon="-0.35256">
        <ele>2409</ele>
        <time>2021-03-03T12:10:12.534Z</time>
      </trkpt>
      <trkpt lat="42.92955" lon="-0.35254">
        <ele>2409</ele>
        <time>2021-03-03T12:10:16.625Z</time>
      </trkpt>
      <trkpt lat="42.92957" lon="-0.35255">
        <ele>2409</ele>
        <time>2021-03-03T12:10:21.538Z</time>
      </trkpt>
      <trkpt lat="42.92957" lon="-0.35257">
        <ele>2409</ele>
        <time>2021-03-03T12:10:26.535Z</time>
      </trkpt>
      <trkpt lat="42.92957" lon="-0.35261">
        <ele>2409</ele>
        <time>2021-03-03T12:10:31.829Z</time>
      </trkpt>
      <trkpt lat="42.92955" lon="-0.35265">
        <ele>2420</ele>
        <time>2021-03-03T12:10:36.535Z</time>
      </trkpt>
      <trkpt lat="42.92954" lon="-0.35269">
        <ele>2420</ele>
        <time>2021-03-03T12:10:41.533Z</time>
      </trkpt>
      <trkpt lat="42.92957" lon="-0.35276">
        <ele>2420</ele>
        <time>2021-03-03T12:11:15.531Z</time>
      </trkpt>
      <trkpt lat="42.92959" lon="-0.35273">
        <ele>2433</ele>
        <time>2021-03-03T12:11:19.721Z</time>
      </trkpt>
      <trkpt lat="42.92962" lon="-0.3527">
        <ele>2433</ele>
        <time>2021-03-03T12:11:24.538Z</time>
      </trkpt>
      <trkpt lat="42.92964" lon="-0.35266">
        <ele>2433</ele>
        <time>2021-03-03T12:11:29.542Z</time>
      </trkpt>
      <trkpt lat="42.92966" lon="-0.35263">
        <ele>2426</ele>
        <time>2021-03-03T12:11:34.529Z</time>
      </trkpt>
      <trkpt lat="42.92972" lon="-0.35258">
        <ele>2426</ele>
        <time>2021-03-03T12:12:18.537Z</time>
      </trkpt>
      <trkpt lat="42.92971" lon="-0.35262">
        <ele>2426</ele>
        <time>2021-03-03T12:12:23.530Z</time>
      </trkpt>
      <trkpt lat="42.92972" lon="-0.35266">
        <ele>2433</ele>
        <time>2021-03-03T12:12:28.537Z</time>
      </trkpt>
      <trkpt lat="42.92971" lon="-0.35271">
        <ele>2433</ele>
        <time>2021-03-03T12:12:33.563Z</time>
      </trkpt>
      <trkpt lat="42.92971" lon="-0.35273">
        <ele>2433</ele>
        <time>2021-03-03T12:12:37.806Z</time>
      </trkpt>
      <trkpt lat="42.92968" lon="-0.35284">
        <ele>2433</ele>
        <time>2021-03-03T12:13:06.536Z</time>
      </trkpt>
      <trkpt lat="42.92968" lon="-0.35285">
        <ele>2433</ele>
        <time>2021-03-03T12:13:10.562Z</time>
      </trkpt>
      <trkpt lat="42.92968" lon="-0.3529">
        <ele>2433</ele>
        <time>2021-03-03T12:13:15.538Z</time>
      </trkpt>
      <trkpt lat="42.92967" lon="-0.35294">
        <ele>2435</ele>
        <time>2021-03-03T12:13:20.538Z</time>
      </trkpt>
      <trkpt lat="42.92966" lon="-0.35298">
        <ele>2435</ele>
        <time>2021-03-03T12:13:25.540Z</time>
      </trkpt>
      <trkpt lat="42.92967" lon="-0.35299">
        <ele>2435</ele>
        <time>2021-03-03T12:13:39.541Z</time>
      </trkpt>
      <trkpt lat="42.92967" lon="-0.35298">
        <ele>2435</ele>
        <time>2021-03-03T12:13:43.829Z</time>
      </trkpt>
      <trkpt lat="42.92968" lon="-0.35296">
        <ele>2435</ele>
        <time>2021-03-03T12:13:48.538Z</time>
      </trkpt>
      <trkpt lat="42.9297" lon="-0.35294">
        <ele>2435</ele>
        <time>2021-03-03T12:13:53.570Z</time>
      </trkpt>
      <trkpt lat="42.92972" lon="-0.3529">
        <ele>2433</ele>
        <time>2021-03-03T12:13:58.743Z</time>
      </trkpt>
      <trkpt lat="42.92974" lon="-0.35287">
        <ele>2433</ele>
        <time>2021-03-03T12:14:03.541Z</time>
      </trkpt>
      <trkpt lat="42.92976" lon="-0.35283">
        <ele>2433</ele>
        <time>2021-03-03T12:14:08.731Z</time>
      </trkpt>
      <trkpt lat="42.92977" lon="-0.35281">
        <ele>2433</ele>
        <time>2021-03-03T12:14:13.546Z</time>
      </trkpt>
      <trkpt lat="42.92979" lon="-0.35278">
        <ele>2433</ele>
        <time>2021-03-03T12:14:18.541Z</time>
      </trkpt>
      <trkpt lat="42.92981" lon="-0.35275">
        <ele>2433</ele>
        <time>2021-03-03T12:14:23.535Z</time>
      </trkpt>
      <trkpt lat="42.92982" lon="-0.35276">
        <ele>2433</ele>
        <time>2021-03-03T12:14:41.533Z</time>
      </trkpt>
      <trkpt lat="42.92982" lon="-0.35276">
        <ele>2433</ele>
        <time>2021-03-03T12:14:46.539Z</time>
      </trkpt>
      <trkpt lat="42.9298" lon="-0.35281">
        <ele>2433</ele>
        <time>2021-03-03T12:14:51.539Z</time>
      </trkpt>
      <trkpt lat="42.9298" lon="-0.35285">
        <ele>2433</ele>
        <time>2021-03-03T12:14:56.827Z</time>
      </trkpt>
      <trkpt lat="42.92978" lon="-0.35288">
        <ele>2433</ele>
        <time>2021-03-03T12:15:01.536Z</time>
      </trkpt>
      <trkpt lat="42.92975" lon="-0.35302">
        <ele>2435</ele>
        <time>2021-03-03T12:15:43.720Z</time>
      </trkpt>
      <trkpt lat="42.92973" lon="-0.35305">
        <ele>2435</ele>
        <time>2021-03-03T12:15:48.536Z</time>
      </trkpt>
      <trkpt lat="42.9297" lon="-0.35307">
        <ele>2435</ele>
        <time>2021-03-03T12:15:53.541Z</time>
      </trkpt>
      <trkpt lat="42.9297" lon="-0.35307">
        <ele>2435</ele>
        <time>2021-03-03T12:15:57.534Z</time>
      </trkpt>
      <trkpt lat="42.9297" lon="-0.35307">
        <ele>2435</ele>
        <time>2021-03-03T12:16:02.545Z</time>
      </trkpt>
      <trkpt lat="42.92971" lon="-0.35308">
        <ele>2435</ele>
        <time>2021-03-03T12:16:07.543Z</time>
      </trkpt>
      <trkpt lat="42.92974" lon="-0.35306">
        <ele>2435</ele>
        <time>2021-03-03T12:16:12.542Z</time>
      </trkpt>
      <trkpt lat="42.92976" lon="-0.35305">
        <ele>2435</ele>
        <time>2021-03-03T12:16:17.539Z</time>
      </trkpt>
      <trkpt lat="42.92978" lon="-0.35304">
        <ele>2435</ele>
        <time>2021-03-03T12:16:21.538Z</time>
      </trkpt>
      <trkpt lat="42.9298" lon="-0.35303">
        <ele>2435</ele>
        <time>2021-03-03T12:16:26.536Z</time>
      </trkpt>
      <trkpt lat="42.92981" lon="-0.35307">
        <ele>2435</ele>
        <time>2021-03-03T12:17:00.543Z</time>
      </trkpt>
      <trkpt lat="42.9298" lon="-0.3531">
        <ele>2435</ele>
        <time>2021-03-03T12:17:05.544Z</time>
      </trkpt>
      <trkpt lat="42.9298" lon="-0.35313">
        <ele>2435</ele>
        <time>2021-03-03T12:17:09.536Z</time>
      </trkpt>
      <trkpt lat="42.9298" lon="-0.35314">
        <ele>2435</ele>
        <time>2021-03-03T12:17:14.535Z</time>
      </trkpt>
      <trkpt lat="42.9298" lon="-0.35314">
        <ele>2435</ele>
        <time>2021-03-03T12:17:19.535Z</time>
      </trkpt>
      <trkpt lat="42.9298" lon="-0.35326">
        <ele>2440</ele>
        <time>2021-03-03T12:18:14.560Z</time>
      </trkpt>
      <trkpt lat="42.9298" lon="-0.35326">
        <ele>2440</ele>
        <time>2021-03-03T12:18:19.538Z</time>
      </trkpt>
      <trkpt lat="42.92978" lon="-0.35328">
        <ele>2440</ele>
        <time>2021-03-03T12:18:24.537Z</time>
      </trkpt>
      <trkpt lat="42.92978" lon="-0.3533">
        <ele>2440</ele>
        <time>2021-03-03T12:18:29.539Z</time>
      </trkpt>
      <trkpt lat="42.92976" lon="-0.35333">
        <ele>2440</ele>
        <time>2021-03-03T12:18:34.539Z</time>
      </trkpt>
      <trkpt lat="42.92978" lon="-0.35337">
        <ele>2440</ele>
        <time>2021-03-03T12:19:14.534Z</time>
      </trkpt>
      <trkpt lat="42.92978" lon="-0.35337">
        <ele>2440</ele>
        <time>2021-03-03T12:19:19.747Z</time>
      </trkpt>
      <trkpt lat="42.92981" lon="-0.35335">
        <ele>2440</ele>
        <time>2021-03-03T12:19:24.537Z</time>
      </trkpt>
      <trkpt lat="42.92983" lon="-0.35333">
        <ele>2440</ele>
        <time>2021-03-03T12:19:29.540Z</time>
      </trkpt>
      <trkpt lat="42.92984" lon="-0.35332">
        <ele>2440</ele>
        <time>2021-03-03T12:19:33.766Z</time>
      </trkpt>
      <trkpt lat="42.92996" lon="-0.35325">
        <ele>2445</ele>
        <time>2021-03-03T12:20:36.539Z</time>
      </trkpt>
      <trkpt lat="42.92996" lon="-0.35325">
        <ele>2445</ele>
        <time>2021-03-03T12:20:40.564Z</time>
      </trkpt>
      <trkpt lat="42.92998" lon="-0.35325">
        <ele>2445</ele>
        <time>2021-03-03T12:20:45.541Z</time>
      </trkpt>
      <trkpt lat="42.93" lon="-0.35325">
        <ele>2445</ele>
        <time>2021-03-03T12:20:49.733Z</time>
      </trkpt>
      <trkpt lat="42.93001" lon="-0.35323">
        <ele>2445</ele>
        <time>2021-03-03T12:20:54.536Z</time>
      </trkpt>
      <trkpt lat="42.93008" lon="-0.35313">
        <ele>2439</ele>
        <time>2021-03-03T12:21:42.536Z</time>
      </trkpt>
      <trkpt lat="42.93009" lon="-0.35312">
        <ele>2439</ele>
        <time>2021-03-03T12:21:46.541Z</time>
      </trkpt>
      <trkpt lat="42.9301" lon="-0.35309">
        <ele>2439</ele>
        <time>2021-03-03T12:21:51.535Z</time>
      </trkpt>
      <trkpt lat="42.93012" lon="-0.35306">
        <ele>2439</ele>
        <time>2021-03-03T12:21:56.535Z</time>
      </trkpt>
      <trkpt lat="42.93014" lon="-0.35303">
        <ele>2438</ele>
        <time>2021-03-03T12:22:01.538Z</time>
      </trkpt>
      <trkpt lat="42.93015" lon="-0.35299">
        <ele>2438</ele>
        <time>2021-03-03T12:22:06.540Z</time>
      </trkpt>
      <trkpt lat="42.93016" lon="-0.35295">
        <ele>2438</ele>
        <time>2021-03-03T12:22:11.536Z</time>
      </trkpt>
      <trkpt lat="42.93017" lon="-0.35291">
        <ele>2442</ele>
        <time>2021-03-03T12:22:15.774Z</time>
      </trkpt>
      <trkpt lat="42.93018" lon="-0.35287">
        <ele>2442</ele>
        <time>2021-03-03T12:22:20.537Z</time>
      </trkpt>
      <trkpt lat="42.93019" lon="-0.35279">
        <ele>2442</ele>
        <time>2021-03-03T12:22:34.540Z</time>
      </trkpt>
      <trkpt lat="42.93019" lon="-0.35279">
        <ele>2442</ele>
        <time>2021-03-03T12:22:39.537Z</time>
      </trkpt>
      <trkpt lat="42.93019" lon="-0.35278">
        <ele>2442</ele>
        <time>2021-03-03T12:22:44.543Z</time>
      </trkpt>
      <trkpt lat="42.9302" lon="-0.35275">
        <ele>2442</ele>
        <time>2021-03-03T12:22:49.537Z</time>
      </trkpt>
      <trkpt lat="42.93021" lon="-0.35271">
        <ele>2442</ele>
        <time>2021-03-03T12:22:54.536Z</time>
      </trkpt>
      <trkpt lat="42.93021" lon="-0.35268">
        <ele>2442</ele>
        <time>2021-03-03T12:49:15.545Z</time>
      </trkpt>
      <trkpt lat="42.93021" lon="-0.3527">
        <ele>2442</ele>
        <time>2021-03-03T12:49:20.543Z</time>
      </trkpt>
      <trkpt lat="42.9302" lon="-0.35275">
        <ele>2442</ele>
        <time>2021-03-03T12:49:25.540Z</time>
      </trkpt>
      <trkpt lat="42.93019" lon="-0.3528">
        <ele>2442</ele>
        <time>2021-03-03T12:49:30.543Z</time>
      </trkpt>
      <trkpt lat="42.93017" lon="-0.35288">
        <ele>2442</ele>
        <time>2021-03-03T12:49:35.541Z</time>
      </trkpt>
      <trkpt lat="42.93014" lon="-0.35302">
        <ele>2438</ele>
        <time>2021-03-03T12:49:40.542Z</time>
      </trkpt>
      <trkpt lat="42.93011" lon="-0.35311">
        <ele>2439</ele>
        <time>2021-03-03T12:49:45.547Z</time>
      </trkpt>
      <trkpt lat="42.93003" lon="-0.35324">
        <ele>2445</ele>
        <time>2021-03-03T12:49:50.544Z</time>
      </trkpt>
      <trkpt lat="42.92994" lon="-0.35333">
        <ele>2445</ele>
        <time>2021-03-03T12:49:55.544Z</time>
      </trkpt>
      <trkpt lat="42.92981" lon="-0.35338">
        <ele>2440</ele>
        <time>2021-03-03T12:50:00.541Z</time>
      </trkpt>
      <trkpt lat="42.9298" lon="-0.3532">
        <ele>2440</ele>
        <time>2021-03-03T12:50:05.540Z</time>
      </trkpt>
      <trkpt lat="42.92974" lon="-0.35318">
        <ele>2435</ele>
        <time>2021-03-03T12:50:10.539Z</time>
      </trkpt>
      <trkpt lat="42.92965" lon="-0.3531">
        <ele>2435</ele>
        <time>2021-03-03T12:50:14.591Z</time>
      </trkpt>
      <trkpt lat="42.92965" lon="-0.35294">
        <ele>2435</ele>
        <time>2021-03-03T12:50:19.544Z</time>
      </trkpt>
      <trkpt lat="42.92964" lon="-0.35283">
        <ele>2433</ele>
        <time>2021-03-03T12:50:24.544Z</time>
      </trkpt>
      <trkpt lat="42.92961" lon="-0.35257">
        <ele>2426</ele>
        <time>2021-03-03T12:50:29.545Z</time>
      </trkpt>
      <trkpt lat="42.92943" lon="-0.35247">
        <ele>2409</ele>
        <time>2021-03-03T12:50:34.546Z</time>
      </trkpt>
      <trkpt lat="42.92939" lon="-0.35235">
        <ele>2398</ele>
        <time>2021-03-03T12:50:48.546Z</time>
      </trkpt>
      <trkpt lat="42.92939" lon="-0.35236">
        <ele>2398</ele>
        <time>2021-03-03T12:50:52.540Z</time>
      </trkpt>
      <trkpt lat="42.92937" lon="-0.35238">
        <ele>2409</ele>
        <time>2021-03-03T12:50:57.543Z</time>
      </trkpt>
      <trkpt lat="42.92936" lon="-0.35239">
        <ele>2409</ele>
        <time>2021-03-03T12:51:02.543Z</time>
      </trkpt>
      <trkpt lat="42.92935" lon="-0.35241">
        <ele>2409</ele>
        <time>2021-03-03T12:51:07.547Z</time>
      </trkpt>
      <trkpt lat="42.92936" lon="-0.35232">
        <ele>2398</ele>
        <time>2021-03-03T12:55:00.551Z</time>
      </trkpt>
      <trkpt lat="42.92936" lon="-0.35231">
        <ele>2398</ele>
        <time>2021-03-03T12:55:05.565Z</time>
      </trkpt>
      <trkpt lat="42.92936" lon="-0.35231">
        <ele>2398</ele>
        <time>2021-03-03T12:55:10.547Z</time>
      </trkpt>
      <trkpt lat="42.92931" lon="-0.35225">
        <ele>2398</ele>
        <time>2021-03-03T12:55:15.550Z</time>
      </trkpt>
      <trkpt lat="42.92936" lon="-0.3521">
        <ele>2398</ele>
        <time>2021-03-03T12:55:20.545Z</time>
      </trkpt>
      <trkpt lat="42.92931" lon="-0.35187">
        <ele>2400</ele>
        <time>2021-03-03T12:55:25.547Z</time>
      </trkpt>
      <trkpt lat="42.92926" lon="-0.35177">
        <ele>2372</ele>
        <time>2021-03-03T12:55:30.541Z</time>
      </trkpt>
      <trkpt lat="42.92926" lon="-0.35161">
        <ele>2372</ele>
        <time>2021-03-03T12:55:35.533Z</time>
      </trkpt>
      <trkpt lat="42.92906" lon="-0.35164">
        <ele>2372</ele>
        <time>2021-03-03T12:55:40.560Z</time>
      </trkpt>
      <trkpt lat="42.92917" lon="-0.35145">
        <ele>2364</ele>
        <time>2021-03-03T12:55:45.667Z</time>
      </trkpt>
      <trkpt lat="42.92908" lon="-0.3514">
        <ele>2364</ele>
        <time>2021-03-03T12:55:50.553Z</time>
      </trkpt>
      <trkpt lat="42.92907" lon="-0.3513">
        <ele>2364</ele>
        <time>2021-03-03T12:55:55.544Z</time>
      </trkpt>
      <trkpt lat="42.92902" lon="-0.35123">
        <ele>2350</ele>
        <time>2021-03-03T12:56:00.548Z</time>
      </trkpt>
      <trkpt lat="42.92893" lon="-0.35112">
        <ele>2350</ele>
        <time>2021-03-03T12:56:05.561Z</time>
      </trkpt>
      <trkpt lat="42.92896" lon="-0.35101">
        <ele>2350</ele>
        <time>2021-03-03T12:56:10.544Z</time>
      </trkpt>
      <trkpt lat="42.92877" lon="-0.35099">
        <ele>2350</ele>
        <time>2021-03-03T12:56:15.547Z</time>
      </trkpt>
      <trkpt lat="42.92893" lon="-0.35077">
        <ele>2343</ele>
        <time>2021-03-03T12:56:20.541Z</time>
      </trkpt>
      <trkpt lat="42.92871" lon="-0.35073">
        <ele>2331</ele>
        <time>2021-03-03T12:56:25.541Z</time>
      </trkpt>
      <trkpt lat="42.92889" lon="-0.35046">
        <ele>2335</ele>
        <time>2021-03-03T12:56:30.543Z</time>
      </trkpt>
      <trkpt lat="42.92909" lon="-0.3502">
        <ele>2331</ele>
        <time>2021-03-03T12:56:35.577Z</time>
      </trkpt>
      <trkpt lat="42.92919" lon="-0.35001">
        <ele>2315</ele>
        <time>2021-03-03T12:56:40.546Z</time>
      </trkpt>
      <trkpt lat="42.92927" lon="-0.34987">
        <ele>2315</ele>
        <time>2021-03-03T12:56:45.548Z</time>
      </trkpt>
      <trkpt lat="42.92935" lon="-0.34973">
        <ele>2323</ele>
        <time>2021-03-03T12:56:50.543Z</time>
      </trkpt>
      <trkpt lat="42.92949" lon="-0.34956">
        <ele>2303</ele>
        <time>2021-03-03T12:56:55.570Z</time>
      </trkpt>
      <trkpt lat="42.92972" lon="-0.3494">
        <ele>2318</ele>
        <time>2021-03-03T12:57:00.547Z</time>
      </trkpt>
      <trkpt lat="42.93001" lon="-0.34904">
        <ele>2306</ele>
        <time>2021-03-03T12:57:20.544Z</time>
      </trkpt>
      <trkpt lat="42.93021" lon="-0.34886">
        <ele>2282</ele>
        <time>2021-03-03T12:57:24.543Z</time>
      </trkpt>
      <trkpt lat="42.93042" lon="-0.34881">
        <ele>2282</ele>
        <time>2021-03-03T12:57:29.541Z</time>
      </trkpt>
      <trkpt lat="42.93068" lon="-0.34869">
        <ele>2264</ele>
        <time>2021-03-03T12:57:34.571Z</time>
      </trkpt>
      <trkpt lat="42.93093" lon="-0.34852">
        <ele>2262</ele>
        <time>2021-03-03T12:57:39.540Z</time>
      </trkpt>
      <trkpt lat="42.93116" lon="-0.3483">
        <ele>2257</ele>
        <time>2021-03-03T12:57:44.550Z</time>
      </trkpt>
      <trkpt lat="42.93141" lon="-0.348">
        <ele>2255</ele>
        <time>2021-03-03T12:57:49.553Z</time>
      </trkpt>
      <trkpt lat="42.93148" lon="-0.3477">
        <ele>2252</ele>
        <time>2021-03-03T12:57:54.542Z</time>
      </trkpt>
      <trkpt lat="42.9315" lon="-0.34756">
        <ele>2247</ele>
        <time>2021-03-03T12:57:59.544Z</time>
      </trkpt>
      <trkpt lat="42.9316" lon="-0.34724">
        <ele>2243</ele>
        <time>2021-03-03T12:58:04.579Z</time>
      </trkpt>
      <trkpt lat="42.93173" lon="-0.3471">
        <ele>2243</ele>
        <time>2021-03-03T12:58:09.598Z</time>
      </trkpt>
      <trkpt lat="42.93178" lon="-0.34698">
        <ele>2238</ele>
        <time>2021-03-03T12:58:14.550Z</time>
      </trkpt>
      <trkpt lat="42.93179" lon="-0.34697">
        <ele>2238</ele>
        <time>2021-03-03T12:58:19.549Z</time>
      </trkpt>
      <trkpt lat="42.93176" lon="-0.34691">
        <ele>2238</ele>
        <time>2021-03-03T13:00:52.531Z</time>
      </trkpt>
      <trkpt lat="42.9318" lon="-0.34689">
        <ele>2238</ele>
        <time>2021-03-03T13:00:57.565Z</time>
      </trkpt>
      <trkpt lat="42.93194" lon="-0.34678">
        <ele>2235</ele>
        <time>2021-03-03T13:01:02.542Z</time>
      </trkpt>
      <trkpt lat="42.93209" lon="-0.34665">
        <ele>2232</ele>
        <time>2021-03-03T13:01:07.542Z</time>
      </trkpt>
      <trkpt lat="42.93215" lon="-0.34666">
        <ele>2232</ele>
        <time>2021-03-03T13:01:12.548Z</time>
      </trkpt>
      <trkpt lat="42.93234" lon="-0.34664">
        <ele>2232</ele>
        <time>2021-03-03T13:01:17.542Z</time>
      </trkpt>
      <trkpt lat="42.93242" lon="-0.34658">
        <ele>2224</ele>
        <time>2021-03-03T13:01:21.563Z</time>
      </trkpt>
      <trkpt lat="42.93241" lon="-0.34634">
        <ele>2226</ele>
        <time>2021-03-03T13:01:26.546Z</time>
      </trkpt>
      <trkpt lat="42.93253" lon="-0.34644">
        <ele>2226</ele>
        <time>2021-03-03T13:01:31.547Z</time>
      </trkpt>
      <trkpt lat="42.93269" lon="-0.3464">
        <ele>2209</ele>
        <time>2021-03-03T13:01:46.543Z</time>
      </trkpt>
      <trkpt lat="42.93269" lon="-0.34642">
        <ele>2209</ele>
        <time>2021-03-03T13:01:51.547Z</time>
      </trkpt>
      <trkpt lat="42.93272" lon="-0.34644">
        <ele>2209</ele>
        <time>2021-03-03T13:01:56.545Z</time>
      </trkpt>
      <trkpt lat="42.93283" lon="-0.34655">
        <ele>2211</ele>
        <time>2021-03-03T13:02:01.545Z</time>
      </trkpt>
      <trkpt lat="42.93294" lon="-0.34668">
        <ele>2190</ele>
        <time>2021-03-03T13:02:06.547Z</time>
      </trkpt>
      <trkpt lat="42.93303" lon="-0.34679">
        <ele>2190</ele>
        <time>2021-03-03T13:02:11.544Z</time>
      </trkpt>
      <trkpt lat="42.93312" lon="-0.34699">
        <ele>2196</ele>
        <time>2021-03-03T13:02:16.584Z</time>
      </trkpt>
      <trkpt lat="42.93326" lon="-0.34724">
        <ele>2189</ele>
        <time>2021-03-03T13:02:21.539Z</time>
      </trkpt>
      <trkpt lat="42.93338" lon="-0.34742">
        <ele>2197</ele>
        <time>2021-03-03T13:02:26.573Z</time>
      </trkpt>
      <trkpt lat="42.93346" lon="-0.34725">
        <ele>2189</ele>
        <time>2021-03-03T13:02:31.541Z</time>
      </trkpt>
      <trkpt lat="42.93358" lon="-0.34738">
        <ele>2180</ele>
        <time>2021-03-03T13:02:36.546Z</time>
      </trkpt>
      <trkpt lat="42.93365" lon="-0.34726">
        <ele>2171</ele>
        <time>2021-03-03T13:02:40.561Z</time>
      </trkpt>
      <trkpt lat="42.9338" lon="-0.34746">
        <ele>2152</ele>
        <time>2021-03-03T13:02:45.544Z</time>
      </trkpt>
      <trkpt lat="42.93388" lon="-0.34735">
        <ele>2140</ele>
        <time>2021-03-03T13:02:49.618Z</time>
      </trkpt>
      <trkpt lat="42.93409" lon="-0.34753">
        <ele>2141</ele>
        <time>2021-03-03T13:02:54.551Z</time>
      </trkpt>
      <trkpt lat="42.93425" lon="-0.3474">
        <ele>2141</ele>
        <time>2021-03-03T13:02:59.557Z</time>
      </trkpt>
      <trkpt lat="42.93446" lon="-0.34768">
        <ele>2142</ele>
        <time>2021-03-03T13:03:04.538Z</time>
      </trkpt>
      <trkpt lat="42.93489" lon="-0.34757">
        <ele>2117</ele>
        <time>2021-03-03T13:03:24.985Z</time>
      </trkpt>
      <trkpt lat="42.9349" lon="-0.34756">
        <ele>2117</ele>
        <time>2021-03-03T13:03:29.544Z</time>
      </trkpt>
      <trkpt lat="42.93492" lon="-0.34754">
        <ele>2117</ele>
        <time>2021-03-03T13:03:34.546Z</time>
      </trkpt>
      <trkpt lat="42.93492" lon="-0.34754">
        <ele>2117</ele>
        <time>2021-03-03T13:03:39.548Z</time>
      </trkpt>
      <trkpt lat="42.93492" lon="-0.34754">
        <ele>2117</ele>
        <time>2021-03-03T13:03:44.545Z</time>
      </trkpt>
      <trkpt lat="42.93492" lon="-0.34754">
        <ele>2117</ele>
        <time>2021-03-03T13:05:22.548Z</time>
      </trkpt>
      <trkpt lat="42.93492" lon="-0.34754">
        <ele>2117</ele>
        <time>2021-03-03T13:05:27.565Z</time>
      </trkpt>
      <trkpt lat="42.93492" lon="-0.34754">
        <ele>2117</ele>
        <time>2021-03-03T13:05:32.546Z</time>
      </trkpt>
      <trkpt lat="42.93491" lon="-0.34746">
        <ele>2117</ele>
        <time>2021-03-03T13:05:37.545Z</time>
      </trkpt>
      <trkpt lat="42.93495" lon="-0.34726">
        <ele>2111</ele>
        <time>2021-03-03T13:05:42.551Z</time>
      </trkpt>
      <trkpt lat="42.93509" lon="-0.34725">
        <ele>2111</ele>
        <time>2021-03-03T13:05:47.546Z</time>
      </trkpt>
      <trkpt lat="42.93522" lon="-0.3471">
        <ele>2101</ele>
        <time>2021-03-03T13:05:51.751Z</time>
      </trkpt>
      <trkpt lat="42.93548" lon="-0.34701">
        <ele>2093</ele>
        <time>2021-03-03T13:05:56.541Z</time>
      </trkpt>
      <trkpt lat="42.93575" lon="-0.34682">
        <ele>2098</ele>
        <time>2021-03-03T13:06:01.548Z</time>
      </trkpt>
      <trkpt lat="42.93608" lon="-0.34652">
        <ele>2084</ele>
        <time>2021-03-03T13:06:06.549Z</time>
      </trkpt>
      <trkpt lat="42.9363" lon="-0.34622">
        <ele>2079</ele>
        <time>2021-03-03T13:06:11.551Z</time>
      </trkpt>
      <trkpt lat="42.93638" lon="-0.34593">
        <ele>2078</ele>
        <time>2021-03-03T13:06:15.926Z</time>
      </trkpt>
      <trkpt lat="42.93653" lon="-0.34552">
        <ele>2078</ele>
        <time>2021-03-03T13:06:20.585Z</time>
      </trkpt>
      <trkpt lat="42.93667" lon="-0.34502">
        <ele>2074</ele>
        <time>2021-03-03T13:06:25.546Z</time>
      </trkpt>
      <trkpt lat="42.93672" lon="-0.34477">
        <ele>2072</ele>
        <time>2021-03-03T13:06:30.546Z</time>
      </trkpt>
      <trkpt lat="42.9367" lon="-0.34471">
        <ele>2072</ele>
        <time>2021-03-03T13:06:35.550Z</time>
      </trkpt>
      <trkpt lat="42.93671" lon="-0.34463">
        <ele>2072</ele>
        <time>2021-03-03T13:06:40.548Z</time>
      </trkpt>
      <trkpt lat="42.93672" lon="-0.34456">
        <ele>2072</ele>
        <time>2021-03-03T13:06:45.547Z</time>
      </trkpt>
      <trkpt lat="42.93676" lon="-0.34443">
        <ele>2072</ele>
        <time>2021-03-03T13:06:50.576Z</time>
      </trkpt>
      <trkpt lat="42.93683" lon="-0.34427">
        <ele>2068</ele>
        <time>2021-03-03T13:06:55.554Z</time>
      </trkpt>
      <trkpt lat="42.93687" lon="-0.34425">
        <ele>2068</ele>
        <time>2021-03-03T13:07:00.568Z</time>
      </trkpt>
      <trkpt lat="42.93704" lon="-0.34427">
        <ele>2068</ele>
        <time>2021-03-03T13:07:05.556Z</time>
      </trkpt>
      <trkpt lat="42.93714" lon="-0.34433">
        <ele>2065</ele>
        <time>2021-03-03T13:07:09.619Z</time>
      </trkpt>
      <trkpt lat="42.93718" lon="-0.34428">
        <ele>2060</ele>
        <time>2021-03-03T13:07:14.537Z</time>
      </trkpt>
      <trkpt lat="42.93731" lon="-0.34442">
        <ele>2065</ele>
        <time>2021-03-03T13:07:19.546Z</time>
      </trkpt>
      <trkpt lat="42.93742" lon="-0.34446">
        <ele>2056</ele>
        <time>2021-03-03T13:07:24.576Z</time>
      </trkpt>
      <trkpt lat="42.93748" lon="-0.34422">
        <ele>2052</ele>
        <time>2021-03-03T13:07:29.561Z</time>
      </trkpt>
      <trkpt lat="42.93767" lon="-0.34442">
        <ele>2051</ele>
        <time>2021-03-03T13:07:34.552Z</time>
      </trkpt>
      <trkpt lat="42.93767" lon="-0.34411">
        <ele>2048</ele>
        <time>2021-03-03T13:07:39.551Z</time>
      </trkpt>
      <trkpt lat="42.93774" lon="-0.34408">
        <ele>2048</ele>
        <time>2021-03-03T13:07:44.548Z</time>
      </trkpt>
      <trkpt lat="42.93782" lon="-0.34402">
        <ele>2042</ele>
        <time>2021-03-03T13:07:49.548Z</time>
      </trkpt>
      <trkpt lat="42.93791" lon="-0.3439">
        <ele>2042</ele>
        <time>2021-03-03T13:07:54.545Z</time>
      </trkpt>
      <trkpt lat="42.9381" lon="-0.34409">
        <ele>2035</ele>
        <time>2021-03-03T13:07:59.546Z</time>
      </trkpt>
      <trkpt lat="42.93823" lon="-0.34427">
        <ele>2010</ele>
        <time>2021-03-03T13:08:24.551Z</time>
      </trkpt>
      <trkpt lat="42.93823" lon="-0.34428">
        <ele>2010</ele>
        <time>2021-03-03T13:08:29.542Z</time>
      </trkpt>
      <trkpt lat="42.93823" lon="-0.34428">
        <ele>2010</ele>
        <time>2021-03-03T13:08:34.545Z</time>
      </trkpt>
      <trkpt lat="42.93826" lon="-0.34428">
        <ele>2010</ele>
        <time>2021-03-03T13:08:39.569Z</time>
      </trkpt>
      <trkpt lat="42.93835" lon="-0.34432">
        <ele>2018</ele>
        <time>2021-03-03T13:08:44.546Z</time>
      </trkpt>
      <trkpt lat="42.93845" lon="-0.34436">
        <ele>2018</ele>
        <time>2021-03-03T13:08:49.550Z</time>
      </trkpt>
      <trkpt lat="42.93844" lon="-0.34424">
        <ele>2010</ele>
        <time>2021-03-03T13:08:54.543Z</time>
      </trkpt>
      <trkpt lat="42.93855" lon="-0.34415">
        <ele>1996</ele>
        <time>2021-03-03T13:08:59.544Z</time>
      </trkpt>
      <trkpt lat="42.93849" lon="-0.34372">
        <ele>1978</ele>
        <time>2021-03-03T13:09:04.540Z</time>
      </trkpt>
      <trkpt lat="42.9386" lon="-0.34373">
        <ele>1978</ele>
        <time>2021-03-03T13:09:09.543Z</time>
      </trkpt>
      <trkpt lat="42.93869" lon="-0.34376">
        <ele>1988</ele>
        <time>2021-03-03T13:09:13.568Z</time>
      </trkpt>
      <trkpt lat="42.93864" lon="-0.34347">
        <ele>1972</ele>
        <time>2021-03-03T13:09:18.543Z</time>
      </trkpt>
      <trkpt lat="42.93872" lon="-0.34327">
        <ele>1972</ele>
        <time>2021-03-03T13:09:22.638Z</time>
      </trkpt>
      <trkpt lat="42.93881" lon="-0.34321">
        <ele>1968</ele>
        <time>2021-03-03T13:09:27.597Z</time>
      </trkpt>
      <trkpt lat="42.93886" lon="-0.3433">
        <ele>1968</ele>
        <time>2021-03-03T13:09:32.546Z</time>
      </trkpt>
      <trkpt lat="42.93889" lon="-0.34335">
        <ele>1968</ele>
        <time>2021-03-03T13:09:37.546Z</time>
      </trkpt>
      <trkpt lat="42.93889" lon="-0.34336">
        <ele>1968</ele>
        <time>2021-03-03T13:09:42.549Z</time>
      </trkpt>
      <trkpt lat="42.93892" lon="-0.34339">
        <ele>1968</ele>
        <time>2021-03-03T13:10:56.817Z</time>
      </trkpt>
      <trkpt lat="42.93892" lon="-0.34339">
        <ele>1968</ele>
        <time>2021-03-03T13:11:01.542Z</time>
      </trkpt>
      <trkpt lat="42.93892" lon="-0.34339">
        <ele>1968</ele>
        <time>2021-03-03T13:11:06.544Z</time>
      </trkpt>
      <trkpt lat="42.93893" lon="-0.3434">
        <ele>1968</ele>
        <time>2021-03-03T13:11:11.545Z</time>
      </trkpt>
      <trkpt lat="42.93901" lon="-0.34333">
        <ele>1968</ele>
        <time>2021-03-03T13:11:16.555Z</time>
      </trkpt>
      <trkpt lat="42.93899" lon="-0.34317">
        <ele>1970</ele>
        <time>2021-03-03T13:11:20.579Z</time>
      </trkpt>
      <trkpt lat="42.93912" lon="-0.34317">
        <ele>1964</ele>
        <time>2021-03-03T13:11:25.618Z</time>
      </trkpt>
      <trkpt lat="42.93929" lon="-0.34309">
        <ele>1964</ele>
        <time>2021-03-03T13:11:30.543Z</time>
      </trkpt>
      <trkpt lat="42.93943" lon="-0.34312">
        <ele>1957</ele>
        <time>2021-03-03T13:11:35.548Z</time>
      </trkpt>
      <trkpt lat="42.93956" lon="-0.34309">
        <ele>1957</ele>
        <time>2021-03-03T13:11:40.551Z</time>
      </trkpt>
      <trkpt lat="42.93961" lon="-0.34285">
        <ele>1938</ele>
        <time>2021-03-03T13:11:44.541Z</time>
      </trkpt>
      <trkpt lat="42.93967" lon="-0.34281">
        <ele>1938</ele>
        <time>2021-03-03T13:11:49.550Z</time>
      </trkpt>
      <trkpt lat="42.93975" lon="-0.34272">
        <ele>1938</ele>
        <time>2021-03-03T13:11:54.534Z</time>
      </trkpt>
      <trkpt lat="42.93992" lon="-0.34292">
        <ele>1936</ele>
        <time>2021-03-03T13:12:28.533Z</time>
      </trkpt>
      <trkpt lat="42.93992" lon="-0.34292">
        <ele>1936</ele>
        <time>2021-03-03T13:12:33.539Z</time>
      </trkpt>
      <trkpt lat="42.93993" lon="-0.34292">
        <ele>1932</ele>
        <time>2021-03-03T13:12:38.571Z</time>
      </trkpt>
      <trkpt lat="42.93995" lon="-0.34281">
        <ele>1932</ele>
        <time>2021-03-03T13:12:43.556Z</time>
      </trkpt>
      <trkpt lat="42.93995" lon="-0.34257">
        <ele>1928</ele>
        <time>2021-03-03T13:12:48.550Z</time>
      </trkpt>
      <trkpt lat="42.9401" lon="-0.34247">
        <ele>1928</ele>
        <time>2021-03-03T13:12:53.561Z</time>
      </trkpt>
      <trkpt lat="42.94019" lon="-0.3423">
        <ele>1913</ele>
        <time>2021-03-03T13:12:58.557Z</time>
      </trkpt>
      <trkpt lat="42.94021" lon="-0.34221">
        <ele>1913</ele>
        <time>2021-03-03T13:13:03.553Z</time>
      </trkpt>
      <trkpt lat="42.94024" lon="-0.34208">
        <ele>1913</ele>
        <time>2021-03-03T13:13:08.598Z</time>
      </trkpt>
      <trkpt lat="42.94028" lon="-0.34184">
        <ele>1913</ele>
        <time>2021-03-03T13:13:13.552Z</time>
      </trkpt>
      <trkpt lat="42.94045" lon="-0.34159">
        <ele>1897</ele>
        <time>2021-03-03T13:13:18.548Z</time>
      </trkpt>
      <trkpt lat="42.94054" lon="-0.34143">
        <ele>1889</ele>
        <time>2021-03-03T13:13:23.547Z</time>
      </trkpt>
      <trkpt lat="42.94073" lon="-0.3413">
        <ele>1880</ele>
        <time>2021-03-03T13:13:28.553Z</time>
      </trkpt>
      <trkpt lat="42.94074" lon="-0.34112">
        <ele>1879</ele>
        <time>2021-03-03T13:13:33.543Z</time>
      </trkpt>
      <trkpt lat="42.94076" lon="-0.34085">
        <ele>1883</ele>
        <time>2021-03-03T13:13:38.539Z</time>
      </trkpt>
      <trkpt lat="42.9409" lon="-0.34071">
        <ele>1883</ele>
        <time>2021-03-03T13:13:43.568Z</time>
      </trkpt>
      <trkpt lat="42.94104" lon="-0.34063">
        <ele>1873</ele>
        <time>2021-03-03T13:13:48.549Z</time>
      </trkpt>
      <trkpt lat="42.9411" lon="-0.34023">
        <ele>1872</ele>
        <time>2021-03-03T13:14:21.550Z</time>
      </trkpt>
      <trkpt lat="42.94112" lon="-0.34017">
        <ele>1872</ele>
        <time>2021-03-03T13:14:26.544Z</time>
      </trkpt>
      <trkpt lat="42.94124" lon="-0.34013">
        <ele>1870</ele>
        <time>2021-03-03T13:14:31.544Z</time>
      </trkpt>
      <trkpt lat="42.94134" lon="-0.33998">
        <ele>1854</ele>
        <time>2021-03-03T13:14:36.549Z</time>
      </trkpt>
      <trkpt lat="42.94142" lon="-0.33992">
        <ele>1854</ele>
        <time>2021-03-03T13:14:40.548Z</time>
      </trkpt>
      <trkpt lat="42.94155" lon="-0.33986">
        <ele>1847</ele>
        <time>2021-03-03T13:14:45.550Z</time>
      </trkpt>
      <trkpt lat="42.94176" lon="-0.33951">
        <ele>1849</ele>
        <time>2021-03-03T13:14:50.552Z</time>
      </trkpt>
      <trkpt lat="42.94204" lon="-0.3394">
        <ele>1834</ele>
        <time>2021-03-03T13:14:55.546Z</time>
      </trkpt>
      <trkpt lat="42.94216" lon="-0.33902">
        <ele>1825</ele>
        <time>2021-03-03T13:15:00.556Z</time>
      </trkpt>
      <trkpt lat="42.94223" lon="-0.33884">
        <ele>1825</ele>
        <time>2021-03-03T13:15:05.549Z</time>
      </trkpt>
      <trkpt lat="42.94249" lon="-0.33871">
        <ele>1818</ele>
        <time>2021-03-03T13:15:10.536Z</time>
      </trkpt>
      <trkpt lat="42.94257" lon="-0.33838">
        <ele>1820</ele>
        <time>2021-03-03T13:15:14.558Z</time>
      </trkpt>
      <trkpt lat="42.94278" lon="-0.33848">
        <ele>1812</ele>
        <time>2021-03-03T13:15:18.884Z</time>
      </trkpt>
      <trkpt lat="42.94298" lon="-0.33835">
        <ele>1802</ele>
        <time>2021-03-03T13:15:23.562Z</time>
      </trkpt>
      <trkpt lat="42.9433" lon="-0.33818">
        <ele>1789</ele>
        <time>2021-03-03T13:15:28.548Z</time>
      </trkpt>
      <trkpt lat="42.94353" lon="-0.338">
        <ele>1783</ele>
        <time>2021-03-03T13:15:33.544Z</time>
      </trkpt>
      <trkpt lat="42.9438" lon="-0.33791">
        <ele>1772</ele>
        <time>2021-03-03T13:15:38.554Z</time>
      </trkpt>
      <trkpt lat="42.9441" lon="-0.33786">
        <ele>1769</ele>
        <time>2021-03-03T13:15:43.534Z</time>
      </trkpt>
      <trkpt lat="42.94429" lon="-0.33778">
        <ele>1769</ele>
        <time>2021-03-03T13:15:47.538Z</time>
      </trkpt>
      <trkpt lat="42.94435" lon="-0.33765">
        <ele>1770</ele>
        <time>2021-03-03T13:15:52.537Z</time>
      </trkpt>
      <trkpt lat="42.94437" lon="-0.33767">
        <ele>1770</ele>
        <time>2021-03-03T13:15:56.545Z</time>
      </trkpt>
      <trkpt lat="42.94434" lon="-0.33765">
        <ele>1770</ele>
        <time>2021-03-03T13:17:36.545Z</time>
      </trkpt>
      <trkpt lat="42.94434" lon="-0.33764">
        <ele>1770</ele>
        <time>2021-03-03T13:17:41.547Z</time>
      </trkpt>
      <trkpt lat="42.94434" lon="-0.33764">
        <ele>1770</ele>
        <time>2021-03-03T13:17:46.542Z</time>
      </trkpt>
      <trkpt lat="42.94434" lon="-0.33762">
        <ele>1767</ele>
        <time>2021-03-03T13:17:51.547Z</time>
      </trkpt>
      <trkpt lat="42.94437" lon="-0.33753">
        <ele>1767</ele>
        <time>2021-03-03T13:17:56.543Z</time>
      </trkpt>
      <trkpt lat="42.94443" lon="-0.33741">
        <ele>1767</ele>
        <time>2021-03-03T13:18:01.546Z</time>
      </trkpt>
      <trkpt lat="42.94451" lon="-0.33731">
        <ele>1761</ele>
        <time>2021-03-03T13:18:06.543Z</time>
      </trkpt>
      <trkpt lat="42.94472" lon="-0.33718">
        <ele>1758</ele>
        <time>2021-03-03T13:18:11.546Z</time>
      </trkpt>
      <trkpt lat="42.94493" lon="-0.33704">
        <ele>1753</ele>
        <time>2021-03-03T13:18:16.575Z</time>
      </trkpt>
      <trkpt lat="42.94515" lon="-0.33705">
        <ele>1747</ele>
        <time>2021-03-03T13:18:21.553Z</time>
      </trkpt>
      <trkpt lat="42.94538" lon="-0.33695">
        <ele>1747</ele>
        <time>2021-03-03T13:18:26.552Z</time>
      </trkpt>
      <trkpt lat="42.94563" lon="-0.33685">
        <ele>1736</ele>
        <time>2021-03-03T13:18:31.543Z</time>
      </trkpt>
      <trkpt lat="42.94572" lon="-0.33653">
        <ele>1717</ele>
        <time>2021-03-03T13:18:36.558Z</time>
      </trkpt>
      <trkpt lat="42.94594" lon="-0.33643">
        <ele>1717</ele>
        <time>2021-03-03T13:18:41.552Z</time>
      </trkpt>
      <trkpt lat="42.94615" lon="-0.33632">
        <ele>1714</ele>
        <time>2021-03-03T13:18:46.558Z</time>
      </trkpt>
      <trkpt lat="42.94631" lon="-0.3361">
        <ele>1704</ele>
        <time>2021-03-03T13:18:51.538Z</time>
      </trkpt>
      <trkpt lat="42.94647" lon="-0.3361">
        <ele>1704</ele>
        <time>2021-03-03T13:18:55.556Z</time>
      </trkpt>
      <trkpt lat="42.94654" lon="-0.33606">
        <ele>1699</ele>
        <time>2021-03-03T13:19:35.537Z</time>
      </trkpt>
      <trkpt lat="42.94655" lon="-0.33609">
        <ele>1699</ele>
        <time>2021-03-03T13:19:40.552Z</time>
      </trkpt>
      <trkpt lat="42.94665" lon="-0.33609">
        <ele>1699</ele>
        <time>2021-03-03T13:19:45.552Z</time>
      </trkpt>
      <trkpt lat="42.94673" lon="-0.3359">
        <ele>1696</ele>
        <time>2021-03-03T13:19:50.577Z</time>
      </trkpt>
      <trkpt lat="42.94688" lon="-0.33582">
        <ele>1689</ele>
        <time>2021-03-03T13:19:55.552Z</time>
      </trkpt>
      <trkpt lat="42.94704" lon="-0.33576">
        <ele>1689</ele>
        <time>2021-03-03T13:20:00.554Z</time>
      </trkpt>
      <trkpt lat="42.9472" lon="-0.33582">
        <ele>1674</ele>
        <time>2021-03-03T13:20:05.858Z</time>
      </trkpt>
      <trkpt lat="42.94728" lon="-0.33578">
        <ele>1674</ele>
        <time>2021-03-03T13:20:10.548Z</time>
      </trkpt>
      <trkpt lat="42.94742" lon="-0.33573">
        <ele>1665</ele>
        <time>2021-03-03T13:20:14.549Z</time>
      </trkpt>
      <trkpt lat="42.9475" lon="-0.33549">
        <ele>1657</ele>
        <time>2021-03-03T13:20:19.537Z</time>
      </trkpt>
      <trkpt lat="42.94767" lon="-0.33556">
        <ele>1650</ele>
        <time>2021-03-03T13:20:23.554Z</time>
      </trkpt>
      <trkpt lat="42.9478" lon="-0.33542">
        <ele>1650</ele>
        <time>2021-03-03T13:20:28.553Z</time>
      </trkpt>
      <trkpt lat="42.94784" lon="-0.33524">
        <ele>1640</ele>
        <time>2021-03-03T13:20:33.540Z</time>
      </trkpt>
      <trkpt lat="42.94788" lon="-0.33497">
        <ele>1632</ele>
        <time>2021-03-03T13:27:18.708Z</time>
      </trkpt>
      <trkpt lat="42.9479" lon="-0.33488">
        <ele>1632</ele>
        <time>2021-03-03T13:27:23.550Z</time>
      </trkpt>
      <trkpt lat="42.94794" lon="-0.33469">
        <ele>1624</ele>
        <time>2021-03-03T13:27:28.562Z</time>
      </trkpt>
      <trkpt lat="42.94795" lon="-0.3345">
        <ele>1622</ele>
        <time>2021-03-03T13:27:33.553Z</time>
      </trkpt>
      <trkpt lat="42.94806" lon="-0.33432">
        <ele>1622</ele>
        <time>2021-03-03T13:27:38.555Z</time>
      </trkpt>
      <trkpt lat="42.94811" lon="-0.33409">
        <ele>1621</ele>
        <time>2021-03-03T13:27:43.556Z</time>
      </trkpt>
      <trkpt lat="42.94825" lon="-0.33401">
        <ele>1620</ele>
        <time>2021-03-03T13:27:47.582Z</time>
      </trkpt>
      <trkpt lat="42.94843" lon="-0.33403">
        <ele>1619</ele>
        <time>2021-03-03T13:27:52.552Z</time>
      </trkpt>
      <trkpt lat="42.94862" lon="-0.33392">
        <ele>1616</ele>
        <time>2021-03-03T13:27:57.560Z</time>
      </trkpt>
      <trkpt lat="42.94873" lon="-0.33402">
        <ele>1616</ele>
        <time>2021-03-03T13:28:02.546Z</time>
      </trkpt>
      <trkpt lat="42.94899" lon="-0.33398">
        <ele>1606</ele>
        <time>2021-03-03T13:28:07.543Z</time>
      </trkpt>
      <trkpt lat="42.94918" lon="-0.33375">
        <ele>1591</ele>
        <time>2021-03-03T13:28:12.550Z</time>
      </trkpt>
      <trkpt lat="42.94938" lon="-0.33374">
        <ele>1579</ele>
        <time>2021-03-03T13:28:17.561Z</time>
      </trkpt>
      <trkpt lat="42.94944" lon="-0.33367">
        <ele>1579</ele>
        <time>2021-03-03T13:31:49.554Z</time>
      </trkpt>
      <trkpt lat="42.94944" lon="-0.33369">
        <ele>1579</ele>
        <time>2021-03-03T13:31:54.552Z</time>
      </trkpt>
      <trkpt lat="42.94953" lon="-0.33381">
        <ele>1579</ele>
        <time>2021-03-03T13:31:59.552Z</time>
      </trkpt>
      <trkpt lat="42.94972" lon="-0.33374">
        <ele>1575</ele>
        <time>2021-03-03T13:32:04.539Z</time>
      </trkpt>
      <trkpt lat="42.94997" lon="-0.33378">
        <ele>1571</ele>
        <time>2021-03-03T13:32:09.551Z</time>
      </trkpt>
      <trkpt lat="42.95011" lon="-0.33407">
        <ele>1571</ele>
        <time>2021-03-03T13:32:14.564Z</time>
      </trkpt>
      <trkpt lat="42.95037" lon="-0.33419">
        <ele>1565</ele>
        <time>2021-03-03T13:32:19.552Z</time>
      </trkpt>
      <trkpt lat="42.95056" lon="-0.33445">
        <ele>1559</ele>
        <time>2021-03-03T13:32:24.550Z</time>
      </trkpt>
      <trkpt lat="42.95078" lon="-0.33457">
        <ele>1550</ele>
        <time>2021-03-03T13:32:29.556Z</time>
      </trkpt>
      <trkpt lat="42.95105" lon="-0.33462">
        <ele>1542</ele>
        <time>2021-03-03T13:32:34.550Z</time>
      </trkpt>
      <trkpt lat="42.95138" lon="-0.3347">
        <ele>1539</ele>
        <time>2021-03-03T13:32:39.555Z</time>
      </trkpt>
      <trkpt lat="42.95163" lon="-0.33474">
        <ele>1535</ele>
        <time>2021-03-03T13:32:44.556Z</time>
      </trkpt>
      <trkpt lat="42.95186" lon="-0.33457">
        <ele>1534</ele>
        <time>2021-03-03T13:32:49.552Z</time>
      </trkpt>
      <trkpt lat="42.95207" lon="-0.33468">
        <ele>1531</ele>
        <time>2021-03-03T13:32:53.825Z</time>
      </trkpt>
      <trkpt lat="42.95231" lon="-0.33455">
        <ele>1526</ele>
        <time>2021-03-03T13:32:58.554Z</time>
      </trkpt>
      <trkpt lat="42.95248" lon="-0.33464">
        <ele>1513</ele>
        <time>2021-03-03T13:33:03.559Z</time>
      </trkpt>
      <trkpt lat="42.95262" lon="-0.3347">
        <ele>1513</ele>
        <time>2021-03-03T13:33:08.537Z</time>
      </trkpt>
      <trkpt lat="42.95271" lon="-0.3347">
        <ele>1507</ele>
        <time>2021-03-03T13:33:12.551Z</time>
      </trkpt>
      <trkpt lat="42.95294" lon="-0.3348">
        <ele>1500</ele>
        <time>2021-03-03T13:33:16.540Z</time>
      </trkpt>
      <trkpt lat="42.95311" lon="-0.33492">
        <ele>1499</ele>
        <time>2021-03-03T13:33:21.552Z</time>
      </trkpt>
      <trkpt lat="42.95328" lon="-0.33502">
        <ele>1491</ele>
        <time>2021-03-03T13:33:26.551Z</time>
      </trkpt>
      <trkpt lat="42.95338" lon="-0.33503">
        <ele>1491</ele>
        <time>2021-03-03T13:33:31.562Z</time>
      </trkpt>
      <trkpt lat="42.95357" lon="-0.33522">
        <ele>1483</ele>
        <time>2021-03-03T13:33:36.546Z</time>
      </trkpt>
      <trkpt lat="42.95368" lon="-0.33539">
        <ele>1483</ele>
        <time>2021-03-03T13:33:41.548Z</time>
      </trkpt>
      <trkpt lat="42.95388" lon="-0.33549">
        <ele>1474</ele>
        <time>2021-03-03T13:33:46.545Z</time>
      </trkpt>
      <trkpt lat="42.95397" lon="-0.33563">
        <ele>1474</ele>
        <time>2021-03-03T13:34:05.552Z</time>
      </trkpt>
      <trkpt lat="42.95396" lon="-0.33567">
        <ele>1474</ele>
        <time>2021-03-03T13:34:10.558Z</time>
      </trkpt>
      <trkpt lat="42.95396" lon="-0.33589">
        <ele>1475</ele>
        <time>2021-03-03T13:34:15.558Z</time>
      </trkpt>
      <trkpt lat="42.95403" lon="-0.33611">
        <ele>1467</ele>
        <time>2021-03-03T13:34:20.550Z</time>
      </trkpt>
      <trkpt lat="42.95415" lon="-0.33626">
        <ele>1469</ele>
        <time>2021-03-03T13:34:25.549Z</time>
      </trkpt>
      <trkpt lat="42.95424" lon="-0.33634">
        <ele>1469</ele>
        <time>2021-03-03T13:34:30.550Z</time>
      </trkpt>
      <trkpt lat="42.95453" lon="-0.33646">
        <ele>1461</ele>
        <time>2021-03-03T13:34:35.550Z</time>
      </trkpt>
      <trkpt lat="42.9546" lon="-0.33635">
        <ele>1451</ele>
        <time>2021-03-03T13:34:40.549Z</time>
      </trkpt>
      <trkpt lat="42.95477" lon="-0.3363">
        <ele>1451</ele>
        <time>2021-03-03T13:34:45.546Z</time>
      </trkpt>
      <trkpt lat="42.9547" lon="-0.33606">
        <ele>1445</ele>
        <time>2021-03-03T13:34:49.777Z</time>
      </trkpt>
      <trkpt lat="42.95478" lon="-0.33583">
        <ele>1442</ele>
        <time>2021-03-03T13:34:54.546Z</time>
      </trkpt>
      <trkpt lat="42.95477" lon="-0.33561">
        <ele>1438</ele>
        <time>2021-03-03T13:34:59.545Z</time>
      </trkpt>
      <trkpt lat="42.95487" lon="-0.3355">
        <ele>1424</ele>
        <time>2021-03-03T13:35:04.552Z</time>
      </trkpt>
      <trkpt lat="42.95487" lon="-0.33532">
        <ele>1420</ele>
        <time>2021-03-03T13:35:09.555Z</time>
      </trkpt>
      <trkpt lat="42.95504" lon="-0.33508">
        <ele>1413</ele>
        <time>2021-03-03T13:35:14.580Z</time>
      </trkpt>
      <trkpt lat="42.95523" lon="-0.33497">
        <ele>1409</ele>
        <time>2021-03-03T13:35:19.564Z</time>
      </trkpt>
      <trkpt lat="42.95532" lon="-0.33474">
        <ele>1407</ele>
        <time>2021-03-03T13:35:24.558Z</time>
      </trkpt>
      <trkpt lat="42.9555" lon="-0.3345">
        <ele>1400</ele>
        <time>2021-03-03T13:35:29.555Z</time>
      </trkpt>
      <trkpt lat="42.95562" lon="-0.33432">
        <ele>1400</ele>
        <time>2021-03-03T13:35:34.555Z</time>
      </trkpt>
      <trkpt lat="42.95576" lon="-0.3341">
        <ele>1387</ele>
        <time>2021-03-03T13:35:39.555Z</time>
      </trkpt>
      <trkpt lat="42.9558" lon="-0.33401">
        <ele>1383</ele>
        <time>2021-03-03T13:35:43.551Z</time>
      </trkpt>
      <trkpt lat="42.95584" lon="-0.33402">
        <ele>1383</ele>
        <time>2021-03-03T13:36:16.543Z</time>
      </trkpt>
      <trkpt lat="42.95584" lon="-0.33402">
        <ele>1383</ele>
        <time>2021-03-03T13:36:21.548Z</time>
      </trkpt>
      <trkpt lat="42.95583" lon="-0.33397">
        <ele>1383</ele>
        <time>2021-03-03T13:36:26.559Z</time>
      </trkpt>
      <trkpt lat="42.95584" lon="-0.33377">
        <ele>1383</ele>
        <time>2021-03-03T13:36:31.548Z</time>
      </trkpt>
      <trkpt lat="42.95581" lon="-0.33358">
        <ele>1380</ele>
        <time>2021-03-03T13:36:36.574Z</time>
      </trkpt>
      <trkpt lat="42.95596" lon="-0.33354">
        <ele>1380</ele>
        <time>2021-03-03T13:36:41.969Z</time>
      </trkpt>
      <trkpt lat="42.95602" lon="-0.33337">
        <ele>1377</ele>
        <time>2021-03-03T13:36:46.544Z</time>
      </trkpt>
      <trkpt lat="42.95609" lon="-0.33317">
        <ele>1372</ele>
        <time>2021-03-03T13:36:50.555Z</time>
      </trkpt>
      <trkpt lat="42.95616" lon="-0.33288">
        <ele>1369</ele>
        <time>2021-03-03T13:36:55.552Z</time>
      </trkpt>
      <trkpt lat="42.95629" lon="-0.33278">
        <ele>1367</ele>
        <time>2021-03-03T13:37:00.548Z</time>
      </trkpt>
      <trkpt lat="42.95642" lon="-0.33265">
        <ele>1367</ele>
        <time>2021-03-03T13:37:05.547Z</time>
      </trkpt>
      <trkpt lat="42.95658" lon="-0.33231">
        <ele>1363</ele>
        <time>2021-03-03T13:37:10.572Z</time>
      </trkpt>
      <trkpt lat="42.9567" lon="-0.33203">
        <ele>1363</ele>
        <time>2021-03-03T13:37:15.546Z</time>
      </trkpt>
      <trkpt lat="42.95674" lon="-0.33201">
        <ele>1363</ele>
        <time>2021-03-03T13:37:20.548Z</time>
      </trkpt>
      <trkpt lat="42.95677" lon="-0.33204">
        <ele>1363</ele>
        <time>2021-03-03T13:37:25.548Z</time>
      </trkpt>
      <trkpt lat="42.95681" lon="-0.33205">
        <ele>1363</ele>
        <time>2021-03-03T13:37:29.612Z</time>
      </trkpt>
      <trkpt lat="42.95682" lon="-0.33206">
        <ele>1363</ele>
        <time>2021-03-03T13:37:34.549Z</time>
      </trkpt>
      <trkpt lat="42.95683" lon="-0.33201">
        <ele>1363</ele>
        <time>2021-03-03T13:39:18.547Z</time>
      </trkpt>
      <trkpt lat="42.95684" lon="-0.33199">
        <ele>1363</ele>
        <time>2021-03-03T13:39:23.552Z</time>
      </trkpt>
      <trkpt lat="42.95686" lon="-0.33196">
        <ele>1363</ele>
        <time>2021-03-03T13:39:27.553Z</time>
      </trkpt>
      <trkpt lat="42.95688" lon="-0.33192">
        <ele>1363</ele>
        <time>2021-03-03T13:39:32.559Z</time>
      </trkpt>
      <trkpt lat="42.95688" lon="-0.33187">
        <ele>1363</ele>
        <time>2021-03-03T13:39:37.553Z</time>
      </trkpt>
      <trkpt lat="42.95687" lon="-0.33173">
        <ele>1363</ele>
        <time>2021-03-03T13:39:57.543Z</time>
      </trkpt>
      <trkpt lat="42.95687" lon="-0.33171">
        <ele>1363</ele>
        <time>2021-03-03T13:40:02.575Z</time>
      </trkpt>
      <trkpt lat="42.95686" lon="-0.33166">
        <ele>1363</ele>
        <time>2021-03-03T13:40:07.548Z</time>
      </trkpt>
      <trkpt lat="42.95685" lon="-0.3316">
        <ele>1363</ele>
        <time>2021-03-03T13:40:12.545Z</time>
      </trkpt>
      <trkpt lat="42.95683" lon="-0.33153">
        <ele>1364</ele>
        <time>2021-03-03T13:40:17.548Z</time>
      </trkpt>
      <trkpt lat="42.95682" lon="-0.33146">
        <ele>1364</ele>
        <time>2021-03-03T13:40:22.541Z</time>
      </trkpt>
      <trkpt lat="42.95682" lon="-0.33138">
        <ele>1364</ele>
        <time>2021-03-03T13:40:27.741Z</time>
      </trkpt>
      <trkpt lat="42.95683" lon="-0.33138">
        <ele>1364</ele>
        <time>2021-03-03T13:40:32.543Z</time>
      </trkpt>
      <trkpt lat="42.95684" lon="-0.33137">
        <ele>1364</ele>
        <time>2021-03-03T13:40:37.579Z</time>
      </trkpt>
      <trkpt lat="42.95685" lon="-0.33131">
        <ele>1364</ele>
        <time>2021-03-03T13:40:42.717Z</time>
      </trkpt>
      <trkpt lat="42.95685" lon="-0.33127">
        <ele>1364</ele>
        <time>2021-03-03T13:40:47.551Z</time>
      </trkpt>
      <trkpt lat="42.95687" lon="-0.33122">
        <ele>1366</ele>
        <time>2021-03-03T13:40:52.548Z</time>
      </trkpt>
      <trkpt lat="42.95688" lon="-0.33117">
        <ele>1366</ele>
        <time>2021-03-03T13:40:57.550Z</time>
      </trkpt>
      <trkpt lat="42.95688" lon="-0.33112">
        <ele>1366</ele>
        <time>2021-03-03T13:41:02.551Z</time>
      </trkpt>
      <trkpt lat="42.95688" lon="-0.33108">
        <ele>1366</ele>
        <time>2021-03-03T13:41:07.545Z</time>
      </trkpt>
      <trkpt lat="42.95688" lon="-0.33104">
        <ele>1366</ele>
        <time>2021-03-03T13:41:12.545Z</time>
      </trkpt>
      <trkpt lat="42.9569" lon="-0.331">
        <ele>1366</ele>
        <time>2021-03-03T13:41:17.546Z</time>
      </trkpt>
      <trkpt lat="42.95693" lon="-0.33096">
        <ele>1365</ele>
        <time>2021-03-03T13:41:22.547Z</time>
      </trkpt>
      <trkpt lat="42.95697" lon="-0.33093">
        <ele>1365</ele>
        <time>2021-03-03T13:41:27.547Z</time>
      </trkpt>
      <trkpt lat="42.95701" lon="-0.3309">
        <ele>1365</ele>
        <time>2021-03-03T13:41:31.544Z</time>
      </trkpt>
      <trkpt lat="42.95705" lon="-0.33085">
        <ele>1365</ele>
        <time>2021-03-03T13:41:36.548Z</time>
      </trkpt>
      <trkpt lat="42.95706" lon="-0.3308">
        <ele>1365</ele>
        <time>2021-03-03T13:41:41.546Z</time>
      </trkpt>
      <trkpt lat="42.95705" lon="-0.33074">
        <ele>1365</ele>
        <time>2021-03-03T13:41:46.548Z</time>
      </trkpt>
      <trkpt lat="42.95703" lon="-0.33068">
        <ele>1362</ele>
        <time>2021-03-03T13:41:51.546Z</time>
      </trkpt>
      <trkpt lat="42.95701" lon="-0.33062">
        <ele>1362</ele>
        <time>2021-03-03T13:41:55.574Z</time>
      </trkpt>
      <trkpt lat="42.95697" lon="-0.33054">
        <ele>1362</ele>
        <time>2021-03-03T13:42:00.546Z</time>
      </trkpt>
      <trkpt lat="42.95691" lon="-0.33045">
        <ele>1362</ele>
        <time>2021-03-03T13:42:20.547Z</time>
      </trkpt>
      <trkpt lat="42.95688" lon="-0.33043">
        <ele>1362</ele>
        <time>2021-03-03T13:42:25.545Z</time>
      </trkpt>
      <trkpt lat="42.95686" lon="-0.3304">
        <ele>1359</ele>
        <time>2021-03-03T13:42:30.573Z</time>
      </trkpt>
      <trkpt lat="42.95686" lon="-0.3304">
        <ele>1359</ele>
        <time>2021-03-03T13:42:35.547Z</time>
      </trkpt>
      <trkpt lat="42.95686" lon="-0.3304">
        <ele>1359</ele>
        <time>2021-03-03T13:42:40.544Z</time>
      </trkpt>
    </trkseg>
  </trk>
</gpx>